[[{"header":{"parameterUnit":"m.s-1","parameterCategory":1,"la1":30.6,"la2":29.2853,"lo1":-89.7004,"lo2":-87.6739,"dy":0.0162,"dx":0.0183,"nx":112,"ny":82,"refTime":"2025-08-20T00:00:00:Z","depth":0,"parameterNumber":2,"parameterNumberName":"U-component_of_WINDS"},"data":[0.0,0.0,0.0,0.0,0.0,0.0,0.0,0.0,0.0,0.0,0.0,0.0,0.0,0.0,0.0,0.0,0.0,0.0,0.0,0.0,0.0,0.0,0.0,0.0,0.0,0.0,0.0,0.0,0.0,0.0,0.0,0.0,0.0,0.0,0.0,0.0,0.0,0.0,0.0,0.0,0.0,0.0,0.0,0.0,0.0,0.0,0.0,0.0,0.0,0.0,0.0,0.0,0.0,0.0,0.0,0.0,0.0,0.0,0.0,0.0,0.0,0.0,0.0,0.0,0.0,0.0,0.0,0.0,0.0,0.0,0.0,0.0,0.0,0.0,0.0,0.0,0.0,0.0,0.0,0.0,0.0,0.0,0.0,0.0,0.0,0.0,0.0,0.0,0.0,0.0,0.0,-0.8793,-1.053,-1.1734,-1.2077,-1.2508,-1.1928,-0.9928,0.0,0.0,0.0,0.0,0.0,0.0,0.0,0.0,0.0,0.0,0.0,0.0,0.0,0.0,0.0,0.0,0.0,0.0,0.0,0.0,0.0,0.0,0.0,0.0,0.0,0.0,0.0,0.0,0.0,0.0,0.0,0.0,0.0,0.0,0.0,0.0,0.0,0.0,0.0,0.0,0.0,0.0,0.0,0.0,0.0,0.0,0.0,0.0,0.0,0.0,0.0,0.0,0.0,0.0,0.0,0.0,0.0,0.0,0.0,0.0,0.0,0.0,0.0,0.0,0.0,0.0,0.0,0.0,0.0,0.0,0.0,0.0,0.0,0.0,0.0,0.0,0.0,0.0,0.0,0.0,0.0,0.0,0.0,0.0,0.0,0.0,0.0,0.0,0.0,0.0,0.0,0.0,0.0,0.0,0.0,0.0,0.0,0.0,0.0,0.0,0.0,0.0,0.0,0.0,-0.8304,-1.0261,-1.1395,-1.2023,-1.2084,-1.2425,-1.1818,-0.9926,0.0,0.0,0.0,0.0,0.0,0.0,0.0,0.0,0.0,0.0,0.0,0.0,0.0,0.0,0.0,0.0,0.0,0.0,0.0,0.0,0.0,0.0,0.0,0.0,0.0,0.0,0.0,0.0,0.0,0.0,0.0,0.0,0.0,0.0,0.0,0.0,0.0,0.0,0.0,0.0,0.0,0.0,0.0,0.0,0.0,0.0,0.0,0.0,0.0,0.0,0.0,0.0,0.0,0.0,0.0,0.0,0.0,0.0,0.0,0.0,0.0,0.0,0.0,0.0,0.0,0.0,0.0,0.0,0.0,0.0,0.0,0.0,0.0,0.0,0.0,0.0,0.0,0.0,0.0,0.0,0.0,0.0,0.0,0.0,0.0,0.0,0.0,0.0,0.0,0.0,0.0,0.0,0.0,0.0,0.0,0.0,0.0,0.0,0.0,0.0,0.0,0.0,0.0,-0.7764,-0.8955,-1.0969,-1.1546,-1.1943,-1.2336,-1.2514,-1.1883,-1.0186,-1.0337,0.0,0.0,0.0,0.0,0.0,0.0,0.0,0.0,0.0,0.0,0.0,0.0,0.0,0.0,0.0,0.0,0.0,0.0,0.0,0.0,0.0,0.0,0.0,0.0,0.0,0.0,0.0,0.0,0.0,0.0,0.0,0.0,0.0,0.0,0.0,0.0,0.0,0.0,0.0,0.0,0.0,0.0,0.0,0.0,0.0,0.0,0.0,0.0,0.0,0.0,0.0,0.0,0.0,0.0,0.0,0.0,0.0,0.0,0.0,0.0,0.0,0.0,0.0,0.0,0.0,0.0,0.0,0.0,0.0,0.0,0.0,0.0,0.0,0.0,0.0,0.0,0.0,0.0,0.0,0.0,0.0,0.0,0.0,0.0,0.0,0.0,0.0,0.0,0.0,0.0,0.0,0.0,0.0,0.0,0.0,0.0,0.0,0.0,0.0,0.0,0.0,0.0,-0.8907,-0.9575,-1.13,-1.1485,-1.1715,-1.2282,-1.2183,-1.1503,-1.0135,-0.9854,0.0,0.0,0.0,0.0,0.0,0.0,0.0,0.0,0.0,0.0,0.0,0.0,0.0,0.0,0.0,0.0,0.0,0.0,0.0,0.0,0.0,0.0,0.0,0.0,0.0,0.0,0.0,0.0,0.0,0.0,0.0,0.0,0.0,0.0,0.0,0.0,0.0,0.0,0.0,0.0,0.0,0.0,0.0,0.0,0.0,0.0,0.0,0.0,0.0,0.0,0.0,0.0,0.0,0.0,0.0,0.0,0.0,0.0,0.0,0.0,0.0,0.0,0.0,0.0,0.0,0.0,0.0,0.0,0.0,0.0,0.0,0.0,0.0,0.0,0.0,0.0,0.0,0.0,0.0,0.0,0.0,0.0,0.0,0.0,0.0,0.0,0.0,0.0,0.0,0.0,0.0,0.0,0.0,0.0,0.0,0.0,0.0,0.0,0.0,0.0,0.0,0.0,-0.9318,-1.0236,-1.1376,-1.144,-1.1459,-1.1578,-1.095,-1.0198,-0.9329,-0.8573,0.0,0.0,0.0,0.0,0.0,0.0,0.0,0.0,0.0,0.0,0.0,0.0,0.0,0.0,0.0,0.0,0.0,0.0,0.0,0.0,0.0,0.0,0.0,0.0,0.0,0.0,0.0,0.0,0.0,0.0,0.0,0.0,0.0,0.0,0.0,0.0,0.0,0.0,0.0,0.0,0.0,0.0,0.0,0.0,0.0,0.0,0.0,0.0,0.0,0.0,0.0,0.0,0.0,0.0,0.0,0.0,0.0,0.0,0.0,0.0,0.0,0.0,0.0,0.0,0.0,0.0,0.0,0.0,0.0,0.0,0.0,0.0,0.0,0.0,0.0,0.0,0.0,0.0,0.0,0.0,0.0,0.0,0.0,0.0,0.0,0.0,0.0,0.0,0.0,0.0,0.0,0.0,0.0,0.0,0.0,0.0,0.0,0.0,0.0,0.0,0.0,0.0,-0.9117,-1.0103,0.0,-1.1796,-1.2016,-1.2461,-1.2277,-1.1488,-0.9913,0.0,0.0,0.0,0.0,0.0,0.0,0.0,0.0,0.0,0.0,0.0,0.0,0.0,0.0,0.0,0.0,0.0,0.0,0.0,0.0,0.0,0.0,0.0,0.0,0.0,0.0,0.0,0.0,0.0,0.0,0.0,0.0,0.0,0.0,0.0,0.0,0.0,0.0,0.0,0.0,0.0,0.0,0.0,0.0,0.0,0.0,0.0,0.0,0.0,0.0,0.0,0.0,0.0,0.0,0.0,0.0,0.0,0.0,0.0,0.0,0.0,0.0,0.0,0.0,0.0,0.0,0.0,0.0,0.0,0.0,0.0,0.0,0.0,0.0,0.0,0.0,0.0,0.0,0.0,0.0,0.0,0.0,0.0,0.0,0.0,0.0,0.0,0.0,0.0,0.0,0.0,0.0,0.0,0.0,0.0,0.0,0.0,0.0,0.0,0.0,0.0,0.0,-0.8331,-0.923,-1.0281,0.0,-1.2174,-1.2419,-1.289,-1.2568,-1.1685,-1.0135,0.0,0.0,0.0,0.0,0.0,0.0,0.0,0.0,0.0,0.0,0.0,0.0,0.0,0.0,0.0,0.0,0.0,0.0,0.0,0.0,0.0,0.0,0.0,0.0,0.0,0.0,0.0,0.0,0.0,0.0,0.0,0.0,0.0,0.0,0.0,0.0,0.0,0.0,0.0,0.0,0.0,0.0,0.0,0.0,0.0,0.0,0.0,0.0,0.0,0.0,0.0,0.0,0.0,0.0,0.0,0.0,0.0,0.0,0.0,0.0,0.0,0.0,0.0,0.0,0.0,0.0,0.0,0.0,0.0,0.0,0.0,0.0,0.0,0.0,0.0,0.0,0.0,0.0,0.0,0.0,0.0,0.0,0.0,0.0,0.0,0.0,0.0,0.0,0.0,0.0,0.0,0.0,0.0,0.0,0.0,0.0,0.0,0.0,0.0,0.0,0.0,0.0,-0.8619,-0.9773,-1.0931,-1.2354,-1.2508,-1.2532,-1.2603,-1.1332,-1.03,0.0,0.0,0.0,0.0,0.0,0.0,0.0,0.0,0.0,0.0,0.0,0.0,0.0,0.0,0.0,0.0,0.0,0.0,0.0,0.0,0.0,0.0,0.0,0.0,0.0,0.0,0.0,0.0,0.0,0.0,0.0,0.0,0.0,0.0,0.0,0.0,0.0,0.0,0.0,0.0,0.0,0.0,0.0,0.0,0.0,0.0,0.0,0.0,0.0,0.0,0.0,0.0,0.0,0.0,0.0,0.0,0.0,0.0,0.0,0.0,0.0,0.0,0.0,0.0,0.0,0.0,0.0,0.0,0.0,0.0,0.0,0.0,0.0,0.0,0.0,0.0,0.0,0.0,0.0,0.0,0.0,0.0,0.0,0.0,0.0,0.0,0.0,0.0,0.0,0.0,0.0,0.0,0.0,0.0,0.0,0.0,0.0,0.0,0.0,0.0,0.0,0.0,0.0,-0.857,-0.9912,-1.1193,-1.2559,-1.2738,-1.2901,-1.3207,-1.2545,-1.1538,-1.0135,0.0,0.0,0.0,0.0,0.0,0.0,0.0,0.0,0.0,0.0,0.0,0.0,0.0,0.0,0.0,0.0,0.0,0.0,0.0,0.0,0.0,0.0,0.0,0.0,0.0,0.0,0.0,0.0,0.0,0.0,0.0,0.0,0.0,0.0,0.0,0.0,0.0,0.0,0.0,0.0,0.0,0.0,0.0,0.0,0.0,0.0,0.0,0.0,0.0,0.0,0.0,0.0,0.0,0.0,0.0,0.0,0.0,0.0,0.0,0.0,0.0,0.0,0.0,0.0,0.0,0.0,0.0,0.0,0.0,0.0,0.0,0.0,0.0,0.0,0.0,0.0,0.0,0.0,0.0,0.0,0.0,0.0,0.0,0.0,0.0,0.0,0.0,0.0,0.0,0.0,0.0,0.0,0.0,0.0,0.0,0.0,0.0,0.0,0.0,0.0,0.0,0.0,-0.8767,-1.0167,-1.1516,-1.2889,-1.3087,-1.3242,-1.3493,-1.3009,-1.2045,-1.0571,0.0,0.0,0.0,0.0,0.0,0.0,0.0,0.0,0.0,0.0,0.0,0.0,0.0,0.0,0.0,0.0,0.0,0.0,0.0,0.0,0.0,0.0,0.0,0.0,0.0,0.0,0.0,0.0,0.0,0.0,0.0,0.0,0.0,0.0,0.0,0.0,0.0,0.0,0.0,0.0,0.0,0.0,0.0,0.0,0.0,0.0,0.0,0.0,0.0,0.0,0.0,0.0,0.0,0.0,0.0,0.0,0.0,0.0,0.0,0.0,0.0,0.0,0.0,0.0,0.0,0.0,0.0,0.0,0.0,0.0,0.0,0.0,0.0,0.0,0.0,0.0,0.0,0.0,0.0,0.0,0.0,0.0,0.0,0.0,0.0,0.0,0.0,0.0,0.0,0.0,0.0,0.0,0.0,0.0,0.0,0.0,0.0,0.0,0.0,0.0,0.0,0.0,-0.9078,-1.0488,-1.1864,-1.323,-1.3442,-1.3493,-1.348,-1.2882,-1.2035,-1.0989,0.0,0.0,0.0,0.0,0.0,0.0,0.0,0.0,0.0,0.0,0.0,0.0,0.0,0.0,0.0,0.0,0.0,0.0,0.0,0.0,0.0,0.0,0.0,0.0,0.0,0.0,0.0,0.0,0.0,0.0,0.0,0.0,0.0,0.0,0.0,0.0,0.0,0.0,0.0,0.0,0.0,0.0,0.0,0.0,0.0,0.0,0.0,0.0,0.0,0.0,0.0,0.0,0.0,0.0,0.0,0.0,0.0,0.0,0.0,0.0,-1.4667,0.0,0.0,0.0,0.0,0.0,0.0,0.0,0.0,0.0,0.0,0.0,0.0,0.0,0.0,0.0,0.0,0.0,0.0,0.0,0.0,0.0,0.0,0.0,0.0,0.0,0.0,0.0,0.0,0.0,0.0,0.0,0.0,0.0,0.0,0.0,0.0,0.0,0.0,0.0,0.0,0.0,-0.9091,-1.0616,-1.1971,-1.3107,-1.3267,-1.3306,-1.3408,-1.2866,-1.205,-1.1045,-1.0263,0.0,0.0,0.0,0.0,0.0,0.0,0.0,0.0,0.0,0.0,0.0,0.0,0.0,0.0,0.0,0.0,0.0,0.0,0.0,0.0,0.0,0.0,0.0,0.0,0.0,0.0,0.0,0.0,0.0,0.0,0.0,0.0,0.0,0.0,0.0,0.0,0.0,0.0,0.0,0.0,0.0,0.0,0.0,0.0,0.0,0.0,0.0,0.0,0.0,0.0,0.0,0.0,0.0,0.0,0.0,0.0,0.0,0.0,0.0,0.0,-1.6551,0.0,0.0,0.0,0.0,0.0,0.0,0.0,0.0,0.0,0.0,0.0,0.0,0.0,0.0,0.0,0.0,0.0,0.0,0.0,0.0,0.0,0.0,0.0,0.0,0.0,0.0,0.0,0.0,0.0,0.0,0.0,0.0,0.0,0.0,0.0,0.0,0.0,0.0,0.0,0.0,-0.9177,-1.0866,-1.2303,-1.311,-1.3198,-1.3232,-1.3301,-1.3019,-1.2506,-1.172,-1.1097,0.0,0.0,0.0,0.0,0.0,0.0,0.0,0.0,0.0,0.0,0.0,0.0,0.0,0.0,0.0,0.0,0.0,0.0,0.0,0.0,0.0,0.0,0.0,0.0,0.0,0.0,0.0,0.0,0.0,0.0,0.0,0.0,0.0,0.0,0.0,0.0,0.0,0.0,0.0,0.0,0.0,0.0,0.0,0.0,0.0,0.0,0.0,0.0,0.0,0.0,0.0,0.0,0.0,-1.9607,-2.0221,-2.1962,-2.1127,-2.1247,-2.1967,-1.9959,-1.9307,-1.9532,0.0,0.0,0.0,0.0,0.0,0.0,0.0,0.0,0.0,0.0,0.0,0.0,0.0,0.0,0.0,0.0,0.0,0.0,0.0,0.0,0.0,0.0,0.0,0.0,0.0,-1.3047,-1.2535,0.0,0.0,0.0,0.0,0.0,0.0,0.0,0.0,0.0,0.0,0.0,0.0,-0.9576,-1.1265,-1.2613,-1.3135,-1.3198,-1.3198,-1.3198,-1.3198,-1.296,-1.2425,-1.1967,-1.1228,0.0,0.0,0.0,0.0,0.0,0.0,0.0,0.0,0.0,0.0,0.0,0.0,0.0,0.0,0.0,0.0,0.0,0.0,0.0,0.0,0.0,0.0,0.0,0.0,0.0,0.0,0.0,0.0,0.0,0.0,0.0,0.0,-1.0014,-1.0606,0.0,0.0,0.0,0.0,0.0,0.0,0.0,0.0,0.0,0.0,0.0,0.0,0.0,-1.9374,-2.0519,-2.1198,-2.1552,-2.1562,-2.207,-2.2468,-2.2756,-2.2623,-2.2635,-2.2774,-2.2725,0.0,-2.0462,-1.9641,0.0,0.0,0.0,0.0,0.0,0.0,0.0,0.0,0.0,0.0,0.0,0.0,0.0,0.0,0.0,0.0,0.0,0.0,0.0,0.0,0.0,0.0,-1.4703,-1.4257,-1.3899,-1.3518,0.0,-1.1763,-1.0458,-0.9796,-0.935,0.0,0.0,0.0,0.0,0.0,0.0,0.0,-1.086,-1.1824,-1.2613,-1.3135,-1.3198,-1.3198,-1.3198,-1.3198,-1.296,-1.2425,-1.2341,-1.1773,-1.0645,-1.0018,0.0,0.0,0.0,0.0,0.0,0.0,0.0,0.0,0.0,0.0,0.0,0.0,0.0,0.0,0.0,0.0,0.0,0.0,0.0,0.0,0.0,0.0,0.0,0.0,0.0,0.0,0.0,0.0,0.0,-1.0066,-1.1243,-1.1492,-1.202,-1.2183,0.0,0.0,0.0,0.0,0.0,0.0,0.0,0.0,0.0,-1.966,-2.0381,-2.1375,-2.2694,-2.301,-2.3735,-2.4854,-2.5163,-2.5666,-2.633,-2.6241,-2.6094,-2.5889,-2.5996,-2.5318,-2.4035,-2.1967,-2.0622,-1.9699,0.0,0.0,0.0,0.0,-1.7997,-1.8016,-1.8485,-1.8573,0.0,0.0,0.0,0.0,0.0,0.0,0.0,0.0,0.0,0.0,0.0,0.0,0.0,-1.5571,-1.5417,-1.5262,-1.5262,-1.4357,-1.3118,0.0,-1.1406,-1.0821,-0.907,0.0,0.0,0.0,0.0,-1.1189,-1.1682,-1.2937,-1.3903,-1.4136,-1.3891,-1.3715,-1.3715,-1.3391,-1.3098,-1.2847,-1.2852,-1.25,-1.1685,-1.1136,-1.0332,0.0,0.0,0.0,0.0,0.0,0.0,0.0,0.0,0.0,0.0,0.0,0.0,0.0,0.0,0.0,0.0,0.0,0.0,0.0,0.0,0.0,0.0,0.0,0.0,0.0,0.0,0.0,0.0,-1.1169,-1.2276,-1.2562,-1.3545,-1.3919,0.0,0.0,0.0,0.0,0.0,0.0,-1.8059,-1.9475,-2.0751,-2.1839,-2.2514,-2.3518,-2.4856,-2.4872,-2.5753,-2.7502,-2.7502,-2.795,-2.8795,-2.8686,-2.8462,-2.8171,-2.8125,-2.7755,-2.6995,-2.4315,-2.285,-2.223,-2.1087,-2.0463,-2.0264,-2.087,-2.0781,-2.0529,-2.171,-2.1736,-2.1083,-1.9998,0.0,-1.7841,-1.6042,0.0,0.0,0.0,0.0,-1.5152,-1.603,-1.6084,-1.6007,-1.6455,-1.6522,-1.65,-1.65,-1.609,-1.5229,0.0,-1.338,-1.2824,-1.0758,0.0,0.0,0.0,0.0,-1.2717,-1.2819,-1.4038,-1.4896,-1.4896,-1.4538,-1.4299,-1.4299,-1.3778,-1.3428,-1.3428,-1.3303,-1.3023,-1.2626,-1.209,-1.1337,-1.0345,0.0,0.0,0.0,0.0,0.0,0.0,0.0,0.0,0.0,0.0,0.0,0.0,0.0,0.0,0.0,0.0,0.0,0.0,0.0,0.0,0.0,0.0,0.0,0.0,0.0,0.0,0.0,0.0,0.0,-1.4081,-1.5298,0.0,0.0,0.0,0.0,-1.6846,-1.9139,-2.0874,-2.1601,-2.2912,-2.3986,-2.4748,-2.544,-2.6325,-2.7494,-2.751,-2.7787,-2.8355,-2.8355,-2.8298,-2.8252,-2.8216,-2.819,-2.8106,-2.8086,-2.807,-2.7905,-2.6286,-2.5347,-2.4829,-2.4067,-2.3945,-2.4132,-2.3488,-2.3217,-2.3095,-2.2425,-2.2075,-2.1933,-2.1706,-2.0916,-1.9943,-1.9256,-1.8442,0.0,0.0,-1.6868,-1.6815,-1.693,-1.6718,-1.6505,-1.6641,-1.6599,-1.65,-1.65,-1.6126,-1.5736,0.0,-1.5146,-1.4499,-1.3545,0.0,-1.3423,-1.3344,-1.3459,-1.3834,-1.4657,-1.4833,-1.4896,-1.4896,-1.489,-1.4865,-1.4865,-1.4362,-1.4053,-1.4053,-1.3521,-1.3185,-1.316,-1.2651,-1.209,-1.1527,-1.0395,0.0,0.0,0.0,0.0,0.0,0.0,0.0,0.0,0.0,0.0,0.0,0.0,0.0,0.0,0.0,0.0,0.0,0.0,0.0,0.0,0.0,0.0,0.0,0.0,0.0,0.0,0.0,0.0,-1.5916,-1.7043,0.0,-1.7334,-1.8353,-1.9309,-1.9974,-2.1588,-2.2935,-2.3863,-2.476,-2.5707,-2.6716,-2.6969,-2.7644,-2.877,-2.8787,-2.9258,-3.0154,-3.0154,-3.0232,-3.0385,-3.0342,-3.0321,-3.028,-3.0146,-3.011,-3.0085,-2.9015,-2.7956,-2.6951,-2.6136,-2.5877,-2.5883,-2.5047,-2.4758,-2.4666,-2.4076,-2.3798,-2.3526,-2.2667,-2.1643,-2.079,-2.083,-2.0251,-1.9496,-1.9223,-1.8895,-1.8517,-1.8234,-1.7696,-1.7216,-1.7273,-1.6872,-1.65,-1.65,-1.638,-1.6232,-1.6216,-1.5814,-1.5262,-1.4553,-1.4709,-1.4709,-1.402,-1.4517,-1.506,-1.5379,-1.5718,-1.5932,-1.5932,-1.5618,-1.5412,-1.5412,-1.4614,-1.4103,-1.4103,-1.3534,-1.3198,-1.3198,-1.301,-1.2663,-1.2128,-1.1374,-1.027,0.0,0.0,0.0,0.0,0.0,0.0,0.0,0.0,0.0,0.0,0.0,0.0,0.0,0.0,0.0,0.0,0.0,0.0,0.0,0.0,0.0,0.0,0.0,0.0,0.0,0.0,-1.6253,-1.7251,-1.8514,-1.9234,-1.9079,-2.0299,-2.143,-2.2156,-2.353,-2.4719,-2.5589,-2.6278,-2.7079,-2.8033,-2.8234,-2.8845,-2.9932,-2.9952,-3.0401,-3.1259,-3.1259,-3.1372,-3.1559,-3.1464,-3.1423,-3.1402,-3.1249,-3.123,-3.122,-3.0685,-2.9964,-2.9045,-2.7957,-2.7392,-2.7038,-2.6339,-2.5826,-2.5408,-2.4759,-2.4472,-2.4236,-2.3305,-2.2536,-2.1936,-2.1852,-2.1434,-2.0856,-2.0285,-1.9836,-1.9423,-1.8953,-1.8354,-1.7829,-1.7661,-1.7219,-1.676,-1.6538,-1.65,-1.65,-1.65,-1.625,-1.5908,-1.5514,-1.5731,-1.5731,-1.5009,-1.5505,-1.5969,-1.5969,-1.6274,-1.6565,-1.6735,-1.6279,-1.6031,-1.6196,-1.5081,-1.4437,-1.4626,-1.3735,-1.3303,-1.3509,-1.314,-1.2764,-1.24,-1.1676,-1.0847,-0.9931,0.0,0.0,0.0,0.0,0.0,0.0,0.0,0.0,0.0,0.0,0.0,0.0,0.0,0.0,0.0,0.0,0.0,0.0,0.0,0.0,0.0,0.0,0.0,-1.4718,-1.6062,-1.7313,-1.805,-1.9669,-2.0225,-1.9048,-2.1591,-2.331,-2.3268,-2.5006,-2.6309,-2.6895,-2.7585,-2.8221,-2.8816,-2.935,-3.0081,-3.1004,-3.1083,-3.1278,-3.1598,-3.1598,-3.1559,-3.1498,-3.137,-3.1274,-3.121,-3.119,-3.119,-3.121,-3.119,-3.119,-3.1055,-2.9602,-2.8552,-2.7822,-2.7394,-2.6529,-2.5422,-2.4421,-2.4061,-2.3967,-2.3696,-2.3595,-2.3421,-2.2452,-2.2151,-2.1829,-2.0292,-1.9788,-1.9573,-1.9084,-1.8709,-1.8312,-1.7878,-1.7581,-1.726,-1.6672,-1.6513,-1.65,-1.65,-1.6522,-1.6522,-1.65,-1.65,-1.65,-1.65,-1.65,0.0,-1.65,-1.6522,-1.668,-1.7136,-1.6778,-1.6693,-1.7136,-1.5798,-1.5155,-1.5651,-1.4167,-1.3514,-1.4096,-1.3065,-1.2467,-1.245,-1.136,-1.1059,-1.1628,0.0,0.0,0.0,0.0,0.0,0.0,0.0,0.0,0.0,0.0,0.0,0.0,0.0,0.0,0.0,0.0,0.0,0.0,0.0,0.0,0.0,0.0,-1.5795,-1.5739,-1.6829,-1.8044,-1.9127,-2.0015,-2.0879,-2.1682,-2.3054,-2.4162,-2.4811,-2.6355,-2.7302,-2.7482,-2.848,-2.9255,-2.9739,-3.0215,-3.0767,-3.1428,-3.1449,-3.156,-3.1746,-3.1746,-3.167,-3.1498,-3.1462,-3.1387,-3.1274,-3.123,-3.123,-3.1274,-3.123,-3.119,-3.1106,-3.0159,-2.9668,-2.9396,-2.8747,-2.7766,-2.6641,-2.6022,-2.5208,-2.4354,-2.3909,-2.3674,-2.3551,-2.3275,-2.3187,-2.2943,-2.1778,-2.1433,-2.124,-2.0424,-1.9731,-1.9238,-1.9107,-1.8288,-1.7505,-1.7318,-1.6876,-1.6522,-1.6633,-1.6892,-1.6951,-1.6573,-1.6577,-1.6654,-1.6654,-1.6654,0.0,-1.6654,-1.6727,-1.6757,-1.6714,-1.6663,-1.6663,-1.6693,-1.627,-1.5847,-1.5498,-1.4954,-1.4589,-1.4474,-1.4167,-1.389,-1.3632,-1.2906,-1.2397,0.0,0.0,0.0,0.0,0.0,0.0,0.0,0.0,0.0,0.0,0.0,0.0,0.0,0.0,0.0,0.0,0.0,0.0,0.0,0.0,0.0,0.0,-1.6958,-1.7557,-1.7868,-1.852,-1.9286,-2.0185,-2.1176,-2.2136,-2.2962,-2.4043,-2.5047,-2.5894,-2.7025,-2.782,-2.807,-2.8946,-2.9633,-3.0081,-3.0563,-3.1196,-3.2021,-3.2097,-3.2309,-3.2691,-3.2691,-3.2614,-3.2498,-3.2476,-3.223,0.0,-3.1766,-3.1579,-3.1295,-3.123,-3.119,0.0,0.0,0.0,0.0,0.0,-2.8173,-2.7333,-2.6836,-2.6031,-2.5072,-2.4425,-2.4138,-2.3925,-2.3444,-2.3312,-2.3143,-2.2337,-2.2105,-2.1931,-2.1204,-2.062,-2.0169,-1.9705,-1.8958,-1.8229,-1.7757,-1.7474,-1.7196,-1.6842,-1.7144,0.0,-1.6921,-1.6913,-1.6884,-1.6718,-1.6842,-1.6968,-1.7044,-1.7248,-1.74,-1.7387,-1.731,-1.7269,-1.7325,-1.6924,0.0,0.0,0.0,-1.5048,-1.4415,-1.4392,0.0,0.0,0.0,0.0,0.0,0.0,0.0,0.0,-1.3115,-1.2839,0.0,0.0,0.0,0.0,0.0,0.0,0.0,0.0,0.0,0.0,0.0,0.0,0.0,0.0,0.0,0.0,-1.8877,-1.9502,-2.0507,-2.0656,-2.079,-2.1159,-2.2527,-2.3407,-2.3364,-2.4657,-2.5831,-2.6621,-2.7372,-2.8015,-2.8542,0.0,0.0,0.0,0.0,-3.1435,-3.261,-3.2805,-3.3242,-3.392,-3.392,-3.392,-3.39,-3.3853,-3.3416,-3.2727,-3.2582,-3.21,-3.1414,-3.1266,-3.121,-3.119,-3.119,-3.0801,-3.0085,-2.9032,-2.8326,-2.7818,-2.7238,0.0,0.0,-2.5168,-2.483,-2.4537,-2.3509,-2.3154,-2.2968,-2.245,-2.2254,-2.2081,-2.1589,-2.1348,-2.1005,-2.009,-1.9692,-1.9261,-1.83,-1.8289,-1.8216,-1.7281,-1.7519,-1.7754,-1.7407,-1.7353,-1.7222,-1.6905,-1.7173,-1.7469,-1.7564,-1.7901,-1.8238,-1.85,0.0,0.0,-1.8403,-1.7683,-1.7225,-1.7253,-1.625,-1.5298,-1.447,-1.438,-1.4337,-1.4274,-1.4337,-1.4815,-1.5693,-1.5756,-1.6032,-1.6437,-1.3993,-1.3659,0.0,0.0,0.0,0.0,0.0,0.0,0.0,0.0,0.0,0.0,0.0,0.0,0.0,0.0,0.0,-1.975,-2.0336,-2.1029,-2.202,-2.2221,-2.214,-2.1852,-2.2222,-2.2953,-2.4213,-2.5084,-2.6046,-2.7178,-2.7888,-2.8306,-2.842,-2.9227,0.0,-2.994,-3.0751,-3.1708,-3.2745,-3.2803,-3.324,-3.4056,0.0,0.0,-3.39,-3.388,-3.3771,-3.3516,-3.2864,-3.2446,-3.2216,-3.1548,-3.1252,-3.119,-3.119,-3.1106,-3.0915,-3.0312,-2.9658,-2.896,-2.8147,-2.7265,-2.639,-2.5917,-2.559,-2.5367,-2.514,-2.4714,0.0,-2.3705,-2.3167,-2.2626,-2.2095,-2.166,-2.1393,-2.159,-2.09,-2.0251,-2.0406,-1.9754,-1.8963,-1.8443,-1.8603,-1.8563,-1.7767,-1.7625,-1.7666,-1.7821,-1.7994,-1.8127,-1.8127,-1.8305,-1.8344,-1.8127,-1.8187,-1.8167,-1.7948,-1.8252,-1.8214,-1.7646,-1.7049,-1.6618,-1.6453,-1.6187,-1.5831,-1.5399,-1.5819,-1.5932,-1.5693,-1.6132,-1.6387,-1.6488,-1.5948,-1.5873,0.0,0.0,0.0,0.0,0.0,0.0,0.0,0.0,0.0,0.0,0.0,-1.7536,-1.8487,0.0,-2.0452,-2.1296,-2.169,-2.2126,-2.2969,-2.2931,-2.2716,-2.2491,-2.2922,-2.3741,-2.4971,-2.5644,-2.6535,-2.7803,-2.8211,-2.8411,-2.8411,-2.9082,-2.9601,-2.9881,-3.0649,-3.18,-3.3333,-3.3427,-3.4037,-3.5197,-3.5197,-3.5177,-3.5098,-3.5098,-3.4888,-3.4486,-3.4048,-3.3593,-3.3143,-3.2295,-3.1672,-3.1252,-3.1252,-3.1232,-3.1171,-3.0955,-3.0466,-2.9848,-2.9173,-2.8383,-2.7518,-2.6749,-2.6307,-2.6033,-2.5704,-2.5128,-2.4559,-2.4302,-2.3784,-2.312,-2.2626,-2.2328,-2.2156,-2.2105,-2.1671,-2.1241,-2.1218,-2.0873,-2.0402,-1.9697,-1.9845,-1.9812,-1.8943,-1.8865,-1.8733,-1.8274,-1.8428,-1.8621,-1.8693,-1.8921,-1.9016,-1.8822,-1.8879,-1.886,-1.863,-1.8726,-1.8603,-1.8177,-1.7749,-1.7464,-1.7406,-1.7036,-1.6722,-1.6473,-1.6477,-1.6362,-1.6107,-1.6362,-1.65,-1.65,-1.681,-1.6798,0.0,0.0,0.0,0.0,0.0,0.0,0.0,0.0,-1.7532,-1.8275,-1.8995,-1.9815,-2.0867,-2.1406,-2.193,-2.2662,-2.2851,-2.3122,-2.3649,-2.3399,-2.3179,-2.3179,-2.376,-2.4569,-2.562,-2.6146,-2.6934,-2.8304,-2.8411,-2.8411,-2.8411,-2.8873,-2.9464,-3.012,-3.0742,-3.205,-3.4126,-3.426,-3.4973,-3.6301,-3.6301,-3.6301,-3.6301,-3.6301,-3.5973,-3.5404,-3.518,-3.4641,-3.3831,-3.2957,-3.2193,-3.1536,-3.1346,-3.1254,-3.119,-3.1112,-3.0821,-3.0435,-2.9859,-2.9257,-2.8584,-2.7561,-2.7073,-2.6765,-2.6201,-2.5563,-2.4986,-2.4829,-2.4306,-2.3687,-2.3164,-2.2979,-2.2807,-2.2475,-2.2314,-2.2163,-2.181,-2.1931,-2.1823,-2.0877,-2.1009,-2.1029,-2.0255,-2.0293,-1.9992,-1.8744,-1.8831,-1.9095,-1.9199,-1.9493,-1.9672,-1.9611,-1.9611,-1.9593,-1.9468,-1.912,-1.8879,-1.8803,-1.8285,-1.7948,-1.7828,-1.7434,-1.7157,-1.7073,-1.6778,-1.6636,-1.6663,-1.6663,-1.6735,-1.6839,-1.7325,-1.7237,-1.4394,-1.5254,-1.655,-1.8064,-1.77,-1.7824,0.0,0.0,-2.0241,-2.1499,-2.1845,-2.1997,-2.226,-2.2721,-2.3152,-2.3365,-2.381,-2.4142,-2.4204,-2.4177,-2.4156,-2.4156,-2.3867,-2.4338,-2.6061,-2.6289,-2.688,-2.8304,-2.8411,-2.8411,-2.8411,-2.8959,-2.9823,-3.1013,-3.1633,-3.2951,-3.5022,-3.5059,-3.549,-3.6301,-3.6301,-3.6301,-3.6301,-3.6301,-3.6249,-3.6146,-3.5404,-3.4641,-3.3831,-3.2957,-3.25,-3.2284,-3.1587,-3.1254,-3.1151,-3.074,-3.0539,-3.0356,-2.9483,-2.9044,-2.8795,-2.8249,-2.7957,-2.7809,-2.7619,-2.7088,-2.6402,-2.5698,-2.5008,-2.435,-2.3694,-2.3224,-2.2979,-2.3355,-2.3098,-2.2905,-2.3267,-2.3054,-2.2599,-2.1939,-2.1808,-2.1627,-2.1064,-2.1281,-2.1059,-1.966,-1.9545,-1.9636,-1.9636,-1.9672,-1.9672,-1.9611,-1.965,-1.969,-1.9672,-1.9453,-1.9376,-1.9483,-1.8553,-1.7988,-1.7968,-1.7475,-1.701,-1.6586,-1.6947,-1.7183,-1.731,-1.731,-1.7539,-1.8016,-1.8078,-1.7815,-1.8146,-1.8359,-1.8744,0.0,-2.0832,-2.0918,-2.2825,-2.2675,-2.2247,-2.2819,-2.3091,-2.3202,-2.3095,-2.352,-2.3927,0.0,-2.4194,-2.4302,-2.4302,-2.4302,-2.4302,-2.4302,-2.4135,-2.4628,-2.6204,-2.6311,-2.688,-2.8304,-2.8411,-2.8411,-2.8411,-2.9328,-3.0243,-3.1166,-3.2129,-3.3435,-3.518,-3.5197,-3.5559,-3.6301,-3.6301,-3.6301,-3.6301,-3.6301,-3.6301,-3.6284,-3.5931,-3.5359,-3.4602,-3.3805,-3.312,-3.2517,-3.2193,-3.172,-3.1171,-3.0995,-3.074,-3.0414,-2.975,-2.9234,-2.8811,-2.8341,-2.8103,-2.798,-2.793,-2.7446,-2.6855,-2.652,-2.5876,-2.5145,-2.4469,-2.4089,-2.3844,-2.3656,-2.3443,-2.3355,-2.3551,-2.3443,-2.3223,-2.2978,-2.2912,-2.2706,-2.2126,-2.2181,-2.1949,-2.0968,-2.0509,-2.0139,-1.9753,-1.9708,-1.969,-1.9669,-1.969,-1.9708,-1.9708,-1.9617,-1.9726,-2.0098,-1.9701,-1.9588,-1.9855,-1.9419,-1.8894,-1.8319,-1.8267,-1.8122,-1.7865,-1.7865,-1.7978,-1.8216,-1.8506,-1.8555,-2.0237,-2.0535,0.0,-2.2524,-2.3076,-2.3425,-2.4007,-2.3997,-2.3841,-2.3876,-2.3951,-2.3932,-2.3577,-2.3882,-2.4188,-2.4244,-2.4277,-2.4302,-2.4302,-2.4302,-2.4302,-2.4302,-2.4302,-2.4779,-2.598,-2.6241,-2.6842,-2.8042,-2.8432,-2.8597,-2.8597,-2.9801,-3.0881,-3.1715,-3.282,-3.4105,-3.549,-3.549,-3.5766,-3.6301,-3.6301,-3.6301,-3.6301,-3.6301,-3.6301,-3.6301,-3.6301,-3.599,-3.5439,-3.4717,-3.394,-3.3191,-3.2761,-3.2148,-3.1481,-3.1275,-3.0995,-3.0638,-3.0161,-2.9705,-2.9257,-2.8637,-2.8389,-2.8284,-2.8103,-2.7729,-2.7272,-2.7066,-2.6537,-2.5885,-2.5025,-2.4702,-2.4425,-2.3759,-2.3595,-2.3595,-2.3595,-2.3595,-2.3595,-2.3595,-2.3595,-2.346,-2.3032,-2.2957,-2.2733,-2.2054,-2.156,-2.1006,-2.0352,-2.0262,-2.0262,-2.0262,-2.0262,-2.0262,-2.0262,-2.0225,-2.0363,-2.0748,-2.0622,-2.0684,-2.1009,-2.0726,-2.0201,-1.9449,-1.9248,-1.892,-1.8406,-1.8561,-1.8637,-1.8656,-1.9206,-1.9358,-1.9138,0.0,-2.2868,-2.2734,-2.3588,-2.4581,-2.5128,-2.5113,-2.4967,-2.5038,-2.4676,-2.423,-2.3697,-2.3713,-2.3767,-2.3666,-2.4008,-2.4302,-2.4302,-2.4302,-2.4302,-2.4302,-2.4302,-2.4558,0.0,-2.598,-2.6672,-2.738,-2.8451,-2.9074,-2.9074,-3.0474,-3.1814,-3.299,-3.3968,-3.5036,-3.6249,-3.6266,-3.6284,-3.6301,-3.6301,-3.6301,-3.6301,-3.6301,-3.6301,-3.6301,-3.6301,-3.6284,-3.6215,-3.5473,-3.5022,-3.4681,-3.3191,-3.2454,-3.2175,-3.1464,-3.119,-3.1112,-3.0638,-3.0477,-3.0293,-2.9355,-2.9074,-2.8951,-2.8365,-2.8171,-2.7994,-2.7226,-2.6901,-2.6464,-2.5146,-2.4702,-2.4425,-2.3759,-2.3595,-2.3595,-2.3595,-2.3595,-2.3595,-2.3595,-2.3595,-2.3595,-2.358,-2.3565,-2.3355,-2.2763,-2.2643,-2.2403,-2.1724,-2.1635,-2.1635,-2.1635,-2.1635,-2.1635,-2.1635,-2.152,-2.1441,-2.147,-2.0926,-2.0606,-2.0613,-2.0486,-1.9962,-1.9035,-1.9382,-1.9367,-1.8983,-1.9507,-1.974,-1.9748,-2.0308,-2.0257,-2.1815,0.0,-2.3053,-2.4355,-2.4798,-2.5178,-2.62,-2.6169,-2.5777,-2.5216,-2.4969,-2.4605,-2.3763,-2.3342,-2.3314,-2.3863,-2.3783,-2.3794,-2.4241,-2.4666,-2.4789,-2.4364,-2.5118,0.0,0.0,0.0,0.0,-2.7303,-2.8035,-2.8835,-2.9769,-3.1442,-3.2828,-3.3789,-3.5001,-3.5831,-3.6301,-3.6301,-3.6301,-3.6301,-3.6301,-3.6301,-3.6301,-3.6301,-3.6301,-3.6301,-3.6301,-3.6259,-3.6161,-3.5387,-3.4953,-3.4657,-3.3669,-3.2873,-3.2276,-3.2022,-3.1633,-3.1131,-3.0658,-3.0309,-2.9946,-2.9303,-2.9097,-2.8997,-2.8501,-2.8323,-2.8277,-2.8023,-2.7826,-2.7491,-2.6509,-2.5817,-2.5228,-2.4559,-2.4063,-2.3739,-2.3739,-2.3739,-2.3717,-2.3616,-2.3595,-2.3595,-2.3595,-2.3595,-2.3535,-2.3325,-2.2577,-2.1934,-2.1724,-2.1695,-2.1695,-2.1695,-2.1695,-2.1695,-2.1695,-2.1655,-2.1774,-2.2129,-2.207,-2.2058,-2.2258,-2.2302,-2.1957,-2.1139,-2.1255,-2.0918,-2.0063,-2.0248,-2.0153,-1.9798,-1.9978,-1.9978,-2.3336,-2.3869,-2.4133,-2.5586,-2.5953,-2.613,-2.6936,-2.6638,-2.6017,-2.5313,-2.4611,-2.3946,-2.3325,-2.2662,-2.2616,-2.3806,-2.3717,-2.3853,-2.4869,-2.5342,-2.546,-2.5126,-2.5876,-2.6224,0.0,0.0,0.0,-2.7549,-2.8446,-2.9349,-3.0267,-3.216,-3.3486,-3.4044,-3.5472,-3.6255,-3.6301,-3.6301,-3.6301,-3.6301,-3.6301,-3.6301,-3.6301,-3.6301,-3.6301,-3.6301,-3.6301,-3.6276,-3.6216,-3.5679,-3.5368,-3.5168,-3.4413,-3.3564,-3.2744,-3.2473,-3.1776,-3.0918,-3.0797,-3.0435,-2.9968,-2.9506,-2.9234,-2.902,-2.8525,-2.8411,-2.8411,-2.8411,-2.8299,-2.8033,-2.7274,-2.6638,-2.606,-2.5387,-2.4722,-2.4223,-2.4165,-2.3963,-2.376,-2.3696,-2.3674,-2.3674,-2.3674,-2.3616,-2.3595,-2.3595,-2.2892,-2.2383,-2.2383,-2.2383,-2.2383,-2.2383,-2.2383,-2.2383,-2.2383,-2.2383,-2.2542,-2.2861,-2.2948,-2.3035,-2.3164,-2.3201,-2.2814,-2.1926,-2.1898,-2.1396,-2.0308,-2.051,-2.0409,-2.008,-2.0295,-2.05,-2.3697,-2.4784,-2.6004,-2.637,-2.6939,-2.7365,-2.7244,-2.6553,-2.5768,-2.5278,-2.3686,-2.2389,0.0,0.0,-2.1713,-2.3391,-2.3756,-2.4395,-2.6034,-2.6177,-2.6235,0.0,0.0,0.0,0.0,0.0,0.0,-2.818,0.0,-3.0481,-3.0547,-3.2611,-3.3826,-3.3861,-3.5456,-3.6301,-3.6301,-3.6301,-3.6301,-3.6301,-3.6301,-3.6301,-3.6301,-3.6301,-3.6301,-3.6301,-3.6301,-3.6301,-3.6301,-3.6301,-3.6255,-3.6135,-3.5379,-3.4497,-3.3556,-3.2791,-3.1722,-3.0676,-3.1043,-3.0871,-3.0393,-2.9924,-2.9461,-2.902,-2.8525,-2.8411,-2.8411,-2.8411,-2.8323,-2.8058,-2.743,-2.7122,-2.6853,-2.6214,-2.556,-2.5014,-2.4858,-2.4338,-2.3848,-2.3818,-2.3797,-2.3797,-2.3797,-2.3674,-2.3595,-2.3595,-2.3595,-2.3595,-2.3595,-2.3595,-2.3595,-2.3595,-2.3595,-2.3595,-2.3595,-2.3595,-2.3595,-2.361,-2.3538,-2.3444,-2.3297,-2.3157,-2.2615,-2.1496,-2.1455,-2.093,-1.9927,-2.0409,-2.0648,-2.0649,-2.1155,-2.1711,-2.5708,-2.6162,-2.6306,-2.711,-2.7245,-2.7026,-2.6507,-2.6218,-2.5506,-2.3665,-2.289,-2.204,0.0,0.0,0.0,-2.1728,-2.2471,0.0,-2.5425,-2.6187,0.0,-2.6636,0.0,-2.8122,-2.7914,-2.8769,0.0,0.0,-2.984,-3.0203,-3.126,-3.2899,-3.4049,-3.4613,-3.5714,-3.6301,-3.6301,-3.6301,-3.6301,-3.6301,-3.6301,-3.6301,-3.6301,-3.6301,-3.6301,-3.6301,-3.6301,-3.6276,-3.6229,-3.6229,-3.6165,-3.5972,-3.5236,-3.4742,-3.4262,-3.3139,-3.244,-3.1951,-3.1166,-3.0511,-2.9903,-2.9438,-2.9189,-2.902,-2.8525,-2.8411,-2.8411,-2.8411,-2.8372,-2.8277,-2.8036,-2.7559,-2.7108,-2.694,-2.639,-2.5764,-2.5201,-2.4957,-2.4676,-2.4073,-2.3861,-2.376,-2.3674,-2.3616,-2.3595,-2.3595,-2.3595,-2.3595,-2.3595,-2.3595,-2.3595,-2.3595,-2.3595,-2.3595,-2.3595,-2.3595,-2.3588,-2.3538,-2.356,-2.3451,-2.3171,-2.3223,-2.3008,-2.2532,-2.217,-2.1851,-2.1589,-2.1334,-2.1194,-2.1199,-2.134,-2.1498,-2.6729,-2.7108,-2.7225,-2.7492,-2.7217,-2.6645,-2.5814,-2.5077,-2.4029,-2.2022,-2.1082,0.0,-1.895,0.0,0.0,0.0,0.0,0.0,-2.56,-2.6498,-2.7148,0.0,-2.8372,0.0,-2.884,-2.9599,-3.0272,0.0,-3.0493,-3.0667,-3.1403,-3.2958,-3.4021,-3.4408,-3.5645,-3.6301,-3.6301,-3.6301,-3.6301,-3.6301,-3.6301,-3.6301,-3.6301,-3.6301,-3.6301,-3.6301,0.0,-3.628,-3.6233,-3.6233,-3.6191,-3.6097,-3.5638,-3.5049,-3.4334,-3.3562,-3.2708,-3.185,-3.1181,-3.0354,-2.9571,-2.9208,-2.8951,-2.8748,-2.8493,-2.8411,-2.8411,-2.8411,-2.8411,-2.8372,-2.8323,-2.8008,-2.7731,-2.7731,-2.721,-2.6627,-2.616,-2.5625,-2.4976,-2.4225,-2.4024,-2.394,-2.3797,-2.3739,-2.3674,-2.3595,-2.3595,-2.3595,-2.3595,-2.3595,-2.3595,-2.3595,-2.3595,-2.3595,-2.3595,-2.3595,-2.3573,-2.356,-2.3588,-2.348,-2.3201,-2.3253,-2.3075,-2.2615,-2.2324,-2.2203,-2.2239,-2.1677,-2.1672,-2.218,-2.1917,-2.2084,-2.7225,-2.7745,-2.821,-2.7659,-2.7023,-2.6236,-2.5098,-2.3646,-2.2082,-2.0362,0.0,-1.7896,-1.7693,-1.7871,-1.8598,-2.0321,0.0,-2.3544,-2.5842,-2.6709,-2.7534,-2.8652,-2.8927,-2.9143,-2.9406,-2.993,-3.0398,-3.0804,-3.1254,-3.1443,-3.1249,-3.2852,-3.3825,-3.3987,-3.5494,-3.6301,-3.6301,-3.6301,-3.6301,-3.6301,-3.6301,-3.6301,-3.6301,-3.6301,-3.6301,-3.6301,0.0,0.0,-3.6301,-3.6301,-3.6301,-3.628,-3.6187,-3.5353,-3.4214,-3.3964,-3.2812,-3.1363,-3.1193,-3.0413,-2.9502,-2.9234,-2.8802,-2.8411,-2.8411,-2.8411,-2.8411,-2.8411,-2.8411,-2.8411,-2.8411,-2.8411,-2.8411,-2.8411,-2.7965,-2.748,-2.7278,-2.6244,-2.5157,-2.4462,-2.4325,-2.4252,-2.404,-2.3882,-2.376,-2.3653,-2.3595,-2.3595,-2.3595,-2.3595,-2.3595,-2.3595,-2.3595,-2.3595,-2.3595,-2.3595,-2.3595,-2.3595,-2.3595,-2.3523,-2.3341,-2.3319,-2.2949,-2.2217,-2.2208,-2.2225,-2.2276,-2.1771,-2.2089,-2.3177,-2.2736,-2.3013,-2.8006,-2.8071,-2.7926,-2.773,-2.6934,-2.5789,-2.435,-2.2854,0.0,0.0,-1.7786,-1.6799,-1.5525,-1.665,-1.7928,-1.8431,0.0,0.0,0.0,0.0,-2.6677,0.0,0.0,0.0,0.0,0.0,0.0,0.0,0.0,-3.1651,-3.146,-3.2432,-3.3596,-3.4932,-3.5832,-3.6301,-3.6301,-3.6301,-3.6301,-3.6301,-3.6301,-3.6301,-3.6301,-3.6301,-3.6301,-3.6301,-3.6301,0.0,-3.6301,-3.6301,-3.6301,-3.6259,-3.5854,-3.5419,-3.4898,-3.3982,-3.3316,-3.2678,-3.17,-3.086,-3.0135,-2.9543,-2.8931,-2.8411,-2.8411,-2.8411,-2.8411,-2.8411,-2.8411,-2.8411,-2.8411,-2.8411,-2.8411,-2.8411,-2.8319,-2.8073,-2.7495,-2.6688,-2.5898,-2.5173,-2.5028,-2.4802,-2.4116,-2.3882,-2.3797,-2.376,-2.3674,-2.3595,-2.3595,-2.3595,-2.3595,-2.3595,-2.3595,-2.3595,-2.3595,-2.3595,-2.3595,-2.3595,-2.3595,-2.3566,-2.3466,-2.3363,-2.2994,-2.2305,-2.2225,-2.2206,-2.2214,-2.2168,-2.2477,-2.3122,-2.3524,-2.3552,-2.7928,-2.7886,-2.7537,-2.6959,-2.6165,-2.4905,-2.2569,0.0,0.0,0.0,-1.6032,-1.5466,-1.4324,-1.577,0.0,-1.7157,-1.9034,0.0,0.0,0.0,0.0,0.0,0.0,0.0,0.0,0.0,0.0,0.0,0.0,-3.1707,-3.1517,-3.2331,-3.3358,-3.4594,-3.5335,-3.5732,-3.5732,-3.6111,-3.6301,-3.6301,-3.6301,-3.6301,-3.6301,-3.6301,-3.6301,-3.6301,-3.6301,0.0,-3.628,-3.6028,-3.6071,-3.6259,-3.57,-3.5214,-3.4695,-3.4137,-3.3443,-3.2687,-3.2122,-3.1259,-3.034,-3.0017,-2.9243,-2.8411,-2.8411,-2.8411,-2.8411,-2.8411,-2.8411,-2.8411,-2.8411,-2.8411,-2.8411,-2.8411,-2.8411,-2.8227,-2.7534,-2.7119,-2.6665,-2.5944,-2.5507,-2.5133,-2.4704,-2.4231,-2.3882,-2.3818,-2.3696,-2.3595,-2.3595,-2.3595,-2.3595,-2.3595,-2.3595,-2.3595,-2.3595,-2.3595,-2.3595,-2.3595,-2.3595,-2.3566,-2.3509,-2.3363,-2.3266,-2.3236,-2.3145,-2.3417,-2.4075,-2.3789,-2.396,-2.4557,-2.4544,-2.4371,-2.7466,-2.7534,-2.7326,-2.6492,-2.5633,-2.4232,-2.1329,-1.978,0.0,0.0,-1.4538,-1.4289,-1.3698,0.0,-1.6254,0.0,-1.8215,-2.0395,-2.2592,0.0,0.0,0.0,0.0,0.0,0.0,0.0,0.0,0.0,0.0,0.0,-3.1557,-3.2353,-3.3137,-3.3818,-3.4559,-3.5025,-3.5197,-3.5766,-3.6146,-3.6301,-3.6301,-3.6301,-3.6301,-3.6301,-3.6301,-3.6301,-3.6301,0.0,0.0,-3.5898,-3.5963,-3.6237,-3.5655,-3.5098,-3.4576,-3.4211,-3.3547,-3.2749,-3.2492,-3.1601,-3.0567,-3.0438,-2.9479,-2.8411,-2.8411,-2.8411,-2.8411,-2.8411,-2.8411,-2.8411,-2.8411,-2.8411,-2.8411,-2.8411,-2.8411,-2.8258,-2.7734,-2.7611,-2.7411,-2.6734,-2.6149,-2.5674,-2.5485,-2.4881,-2.4386,-2.4284,-2.4116,-2.3984,-2.3834,-2.3819,-2.3759,-2.361,-2.3595,-2.3595,-2.3595,-2.3595,-2.3595,-2.3595,-2.3729,-2.379,-2.374,-2.3703,-2.387,-2.4189,-2.3995,-2.4369,-2.5237,-2.4758,-2.4778,-2.5286,-2.4964,-2.4724,-2.6845,-2.7186,-2.7524,-2.7243,-2.6092,-2.4384,-2.2026,0.0,0.0,-1.5093,-1.4127,-1.3664,-1.3537,-1.4298,0.0,0.0,0.0,-1.9593,-2.1874,-2.3953,0.0,0.0,0.0,0.0,0.0,0.0,0.0,0.0,0.0,0.0,-3.1781,-3.2488,-3.2919,-3.3007,-3.3783,-3.4527,-3.518,-3.5266,-3.5628,-3.6301,-3.6301,-3.6301,-3.6301,-3.6301,-3.6301,-3.6301,-3.6301,0.0,0.0,-3.6259,-3.6259,-3.6259,-3.5788,-3.5481,-3.5174,-3.4062,-3.3811,-3.3887,-3.2761,-3.1835,-3.1052,-3.0567,-2.9479,-2.8411,-2.8411,-2.8411,-2.8411,-2.8411,-2.8411,-2.8411,-2.8411,-2.8411,-2.8411,-2.8411,-2.8411,-2.8381,-2.8319,-2.8319,-2.8119,-2.7442,-2.7257,-2.7011,-2.6395,-2.6031,-2.5811,-2.5788,-2.5582,-2.5187,-2.459,-2.4515,-2.4276,-2.367,-2.3595,-2.3595,-2.3595,-2.3595,-2.3595,-2.3595,-2.4156,-2.4515,-2.4492,-2.4836,-2.4853,-2.4464,-2.4163,-2.3811,-2.3437,-2.3315,-2.3314,-2.3365,-2.3914,-2.3855,-2.6384,-2.6931,-2.7085,-2.6159,-2.5454,-2.4026,-2.0278,0.0,-1.7298,-1.4459,-1.3734,-1.3578,-1.3512,-1.422,-1.5097,0.0,0.0,0.0,-2.0454,0.0,0.0,0.0,0.0,0.0,0.0,0.0,0.0,0.0,0.0,0.0,-3.18,-3.2076,-3.2231,-3.2231,-3.3457,-3.4251,-3.4545,-3.4973,-3.5559,-3.6284,-3.5852,-3.587,-3.6301,-3.6301,-3.6301,-3.6301,-3.6301,0.0,0.0,-3.6006,-3.6049,-3.622,-3.5419,-3.5237,-3.5243,-3.4062,-3.3659,-3.356,-3.2351,-3.143,-3.0729,-3.0113,-2.9289,-2.8517,-2.842,-2.8411,-2.8411,-2.8411,-2.8411,-2.8411,-2.8411,-2.8411,-2.8411,-2.8411,-2.8411,-2.8411,-2.8411,-2.8411,-2.8319,-2.8057,-2.7673,-2.7319,-2.7042,-2.6444,-2.5994,-2.5994,-2.5763,-2.551,-2.5232,-2.5187,-2.5098,-2.4837,-2.4088,-2.3759,-2.4156,-2.4201,-2.4365,-2.4777,-2.5038,-2.5179,-2.5095,-2.5168,-2.5077,-2.4867,-2.464,-2.4463,-2.4277,-2.4275,-2.425,-2.425,-2.4509,-2.4509,-2.5362,-2.6078,-2.6177,-2.519,-2.4603,-2.3244,0.0,-1.8025,-1.6918,-1.3999,-1.3479,-1.3528,-1.3512,-1.4032,-1.4753,-1.5744,0.0,-1.7484,-1.9895,-2.1299,0.0,0.0,0.0,0.0,0.0,0.0,0.0,0.0,0.0,0.0,0.0,-3.18,-3.18,-3.18,-3.2835,-3.3647,-3.4113,-3.4631,-3.5335,-3.6284,-3.5766,-3.5801,-3.6301,-3.6301,-3.6301,-3.6301,0.0,0.0,0.0,-3.5941,-3.6006,-3.6216,-3.5374,-3.5214,-3.5305,-3.4087,-3.37,-3.3585,-3.2394,-3.1503,-3.0789,-3.012,-2.9301,-2.8573,-2.8444,-2.8411,-2.8411,-2.8411,-2.8411,-2.8411,-2.8411,-2.8411,-2.8411,-2.8411,-2.8411,-2.8411,-2.8411,-2.8411,-2.8411,-2.8411,-2.8027,-2.7703,-2.7703,-2.7086,-2.6601,-2.6601,-2.635,-2.6123,-2.5929,-2.5899,-2.5824,-2.563,-2.4762,-2.4388,-2.4859,-2.4903,-2.5098,-2.5561,-2.5794,-2.5828,-2.5708,-2.5765,-2.5664,-2.5402,-2.5084,-2.486,-2.4738,-2.4525,-2.4439,-2.4439,-2.4439,-2.4439,-2.3659,-2.4419,-2.4819,-2.4801,-2.3699,-2.1996,-1.964,-1.7964,-1.6238,-1.3897,-1.3404,-1.3421,-1.3496,-1.3562,-1.4117,-1.5648,-1.6509,0.0,-2.0608,-2.2267,0.0,0.0,0.0,0.0,0.0,0.0,0.0,0.0,0.0,0.0,0.0,-3.18,-3.18,-3.18,-3.1817,-3.2559,-3.4096,-3.4113,-3.4835,-3.6301,-3.6284,-3.6284,-3.6301,-3.6301,-3.6301,0.0,0.0,0.0,0.0,-3.6301,-3.6301,-3.6259,-3.5788,-3.5594,-3.5459,-3.4243,-3.4136,-3.4431,-3.3277,-3.2309,-3.1478,-3.0816,-2.9689,-2.8573,-2.8444,-2.8411,-2.8411,-2.8411,-2.8411,-2.8411,-2.8411,-2.8411,-2.8411,-2.8411,-2.8411,-2.8411,-2.8411,-2.8411,-2.8411,-2.8411,-2.8396,-2.8396,-2.8396,-2.8162,-2.7989,-2.7989,-2.7735,-2.7345,-2.6662,-2.6572,-2.6333,-2.5674,-2.56,-2.5585,-2.56,-2.56,-2.56,-2.5615,-2.6213,-2.6538,-2.6396,-2.6904,-2.6826,-2.6108,-2.5356,-2.4696,-2.4102,-2.3454,-2.3138,-2.3138,-2.3138,-2.3138,-2.0703,-2.1609,-2.2226,-2.1224,-2.1001,-2.0286,-1.7431,-1.6843,-1.6228,-1.3888,-1.3471,-1.352,-1.3504,-1.3552,-1.4262,-1.6329,-1.6846,0.0,0.0,0.0,0.0,0.0,0.0,0.0,0.0,0.0,0.0,0.0,0.0,0.0,0.0,-3.18,-3.18,-3.18,-3.2283,-3.3041,-3.4096,-3.4113,-3.4855,-3.6284,-3.5783,-3.5801,-3.6301,-3.6301,0.0,0.0,0.0,0.0,0.0,-3.6301,-3.6114,-3.5771,-3.5237,-3.5052,-3.4911,-3.3764,-3.3636,-3.3815,-3.2161,-3.141,-3.1,-2.9755,-2.9066,-2.8684,-2.8484,-2.8411,-2.8411,-2.8411,-2.8411,-2.8411,-2.8411,-2.8411,-2.8411,-2.8411,-2.8411,-2.8411,-2.8411,-2.8411,-2.8411,-2.8411,-2.8411,-2.8411,-2.8411,-2.8192,-2.7995,-2.7995,-2.7765,-2.7525,-2.7315,-2.7285,-2.721,-2.7001,-2.6971,-2.6767,-2.6318,-2.6273,-2.6467,-2.6941,-2.7165,-2.7225,-2.7089,-2.6765,-2.6229,-2.5508,-2.4766,-2.406,-2.3424,-2.3198,-2.3108,-2.3108,-2.3108,-2.3108,-1.8548,-1.9395,-1.9826,-1.8899,-1.8825,-1.8398,-1.6176,-1.5848,-1.5526,-1.3752,-1.3472,-1.3521,-1.3504,-1.3536,-1.4228,-1.6251,-1.6829,0.0,0.0,0.0,0.0,0.0,0.0,0.0,0.0,0.0,0.0,0.0,0.0,0.0,0.0,-3.18,-3.18,-3.18,-3.2248,-3.299,-3.4096,-3.4113,-3.4855,-3.6284,-3.5835,-3.5852,-3.6301,-3.6301,0.0,0.0,0.0,0.0,0.0,-3.6028,-3.5749,-3.5253,-3.4738,-3.4537,-3.444,-3.3513,-3.3356,-3.3431,-3.2272,-3.1514,-3.0907,-2.9946,-2.9224,-2.8684,-2.8484,-2.8411,-2.8411,-2.8411,-2.8411,-2.8411,-2.8411,-2.8411,-2.8411,-2.8411,-2.8411,-2.8411,-2.8411,-2.8411,-2.8411,-2.8411,-2.8411,-2.8411,-2.8411,-2.8192,-2.7995,-2.7995,-2.7765,-2.76,-2.76,-2.76,-2.76,-2.76,-2.76,-2.742,-2.7016,-2.6986,-2.7165,-2.757,-2.76,-2.7423,-2.7011,-2.6537,-2.581,-2.4794,-2.4321,-2.378,-2.3108,-2.3108,-2.3108,-2.3108,-2.3108,-2.3108,0.0,-1.7534,-1.7546,-1.7495,-1.7059,-1.6428,-1.5632,-1.499,0.0,-1.3557,-1.3388,-1.3438,-1.3632,-1.3632,-1.4153,-1.5941,0.0,0.0,0.0,0.0,0.0,0.0,0.0,0.0,0.0,0.0,0.0,0.0,0.0,0.0,0.0,-3.18,-3.18,-3.18,-3.18,-3.2507,-3.401,-3.4079,-3.48,-3.6215,-3.6266,-3.6301,-3.6301,-3.6301,0.0,0.0,0.0,0.0,0.0,-3.5549,-3.523,-3.4714,-3.4259,-3.4075,-3.3975,-3.3477,-3.3309,-3.3293,-3.3245,-3.2376,-3.1246,-3.0995,-2.9848,-2.8573,-2.8444,-2.8411,-2.8411,-2.8411,-2.8411,-2.8411,-2.8411,-2.8411,-2.8411,-2.8411,-2.8411,-2.8411,-2.8411,-2.8411,-2.8411,-2.8411,-2.8411,-2.8411,-2.8411,-2.8192,-2.7995,-2.7995,-2.7765,-2.76,-2.76,-2.76,-2.76,-2.76,-2.76,-2.76,-2.76,-2.76,-2.76,-2.76,-2.756,-2.7178,-2.6336,-2.6229,-2.5536,-2.4147,-2.4073,-2.3721,-2.3108,-2.3108,-2.3108,-2.3108,-2.3108,-2.3108,-1.3159,0.0,-1.5138,-1.4583,-1.4743,-1.4843,0.0,-1.4101,-1.4113,-1.3523,-1.3278,-1.3606,-1.4997,-1.4795,-1.5499,-1.8799,0.0,0.0,0.0,0.0,0.0,0.0,0.0,0.0,0.0,0.0,0.0,0.0,0.0,0.0,0.0,-3.18,-3.18,-3.18,-3.18,-3.2231,-3.3179,-3.3783,-3.4562,-3.5456,-3.6025,-3.6301,-3.6301,-3.6301,0.0,0.0,0.0,0.0,-3.5571,-3.5161,-3.469,-3.4259,-3.4151,-3.3848,-3.3477,-3.3361,-3.3309,-3.323,-3.2718,-3.2323,-3.1814,-3.0503,-2.9401,-2.8573,-2.8444,-2.8411,-2.8411,-2.8411,-2.8411,-2.8411,-2.8411,-2.8411,-2.8411,-2.8411,-2.8411,-2.8411,-2.8411,-2.8411,-2.8411,-2.8411,-2.8411,-2.8411,-2.8411,-2.8192,-2.7995,-2.7995,-2.7765,-2.76,-2.76,-2.76,-2.76,-2.76,-2.76,-2.76,-2.76,-2.76,-2.76,-2.76,-2.7178,-2.6774,-2.6484,-2.5563,-2.4823,-2.4263,-2.3662,-2.3258,-2.3108,-2.3108,-2.3108,-2.3108,-2.3108,-2.3108,-1.1526,-1.3109,-1.4496,-1.4421,-1.4708,-1.4883,-1.4387,-1.404,-1.372,-1.3344,0.0,-1.3658,-1.4997,-1.5131,0.0,0.0,0.0,0.0,0.0,0.0,0.0,0.0,0.0,0.0,0.0,0.0,0.0,0.0,0.0,0.0,0.0,-3.18,-3.18,-3.18,-3.18,-3.2145,-3.2904,-3.3335,-3.3938,-3.4697,-3.5439,-3.5801,-3.5801,-3.6146,-3.6178,0.0,0.0,0.0,-3.488,-3.461,-3.4168,-3.372,-3.372,-3.3555,-3.3309,-3.3309,-3.3309,-3.3198,-3.2529,-3.2086,-3.164,-3.0595,-2.9768,-2.9173,-2.9277,-2.9119,-2.8772,-2.8488,-2.8411,-2.8411,-2.8411,-2.8411,-2.8411,-2.8411,-2.8411,-2.8411,-2.8411,-2.8411,-2.8411,-2.8411,-2.8411,-2.8411,-2.8411,-2.8192,-2.7995,-2.7995,-2.7765,-2.76,-2.76,-2.76,-2.76,-2.76,-2.76,-2.76,-2.76,-2.76,-2.7484,-2.7203,-2.6616,-2.6095,-2.5673,-2.5035,-2.4423,-2.3897,-2.3378,-2.3108,-2.3108,-2.3108,-2.3108,-2.3108,-2.3108,-2.3108,-1.1357,-1.3076,-1.4869,-1.5315,-1.5566,-1.5624,-1.5348,0.0,0.0,0.0,0.0,0.0,-1.5044,-1.5728,0.0,0.0,0.0,0.0,0.0,0.0,0.0,0.0,0.0,0.0,0.0,0.0,0.0,0.0,0.0,0.0,0.0,-3.1746,-3.18,-3.18,-3.18,-3.2093,-3.2731,-3.2852,-3.3231,-3.3941,-3.4663,-3.5025,-3.5042,-3.568,-3.5775,0.0,0.0,0.0,-3.4101,-3.4,-3.3694,-3.3309,-3.3309,-3.3309,-3.3309,-3.3309,-3.3309,-3.323,-3.2655,-3.1966,-3.1315,-3.1023,-3.0495,-3.0018,-3.032,-3.0002,-2.9402,-2.875,-2.855,-2.8535,-2.8427,-2.8411,-2.8411,-2.8411,-2.8411,-2.8411,-2.8411,-2.8411,-2.8411,-2.8411,-2.8411,-2.8411,-2.8411,-2.8192,-2.7995,-2.7995,-2.7765,-2.76,-2.76,-2.76,-2.76,-2.76,-2.76,-2.76,-2.76,-2.7524,-2.7229,-2.6721,-2.6229,-2.5577,-2.4766,-2.4595,-2.4147,-2.3433,-2.3198,-2.3108,-2.3108,-2.3108,-2.3108,-2.3108,-2.3108,-2.3108,-1.2525,-1.446,-1.5735,-1.4877,-1.5446,-1.6016,-1.535,-1.481,-1.4519,0.0,0.0,0.0,0.0,-1.8885,-2.0247,0.0,0.0,0.0,0.0,0.0,0.0,0.0,0.0,0.0,0.0,0.0,0.0,0.0,0.0,0.0,0.0,-3.1579,-3.18,-3.18,-3.18,-3.1852,-3.1972,-3.2593,-3.2955,-3.3093,-3.3886,-3.4268,-3.4268,-3.4407,-3.4487,0.0,0.0,-3.4027,-3.4075,-3.3607,-3.3372,-3.3309,-3.3309,-3.3309,-3.3309,-3.3309,-3.3309,-3.3293,-3.3182,-3.2718,-3.2082,-3.1742,-3.1197,-3.0616,-3.0459,-3.0325,-3.0109,-2.9433,-2.9233,-2.9135,-2.855,-2.8411,-2.8411,-2.8411,-2.8411,-2.8411,-2.8411,-2.8411,-2.8411,-2.8411,-2.8411,-2.8411,-2.8411,-2.8192,-2.7995,-2.7995,-2.7765,-2.76,-2.76,-2.76,-2.76,-2.76,-2.76,-2.76,-2.76,-2.7126,-2.6814,-2.6709,-2.6616,-2.6082,-2.4991,-2.4086,-2.3599,-2.3569,-2.3258,-2.3108,-2.3108,-2.3108,-2.3108,-2.3108,-2.3108,-2.3108,-1.1661,-1.3403,-1.4808,-1.5294,-1.6598,-1.7633,-1.7181,-1.6424,-1.5891,0.0,0.0,0.0,0.0,0.0,0.0,0.0,0.0,0.0,0.0,0.0,0.0,0.0,0.0,0.0,0.0,0.0,0.0,0.0,0.0,0.0,0.0,0.0,-3.18,-3.18,-3.18,-3.18,-3.18,-3.2145,-3.2317,-3.2317,-3.3076,-3.3455,-3.3455,-3.3906,-3.399,-3.382,0.0,-3.3829,-3.346,-3.3662,-3.3555,-3.3309,-3.3309,-3.3309,-3.3309,-3.3309,-3.3072,-3.2766,-3.2766,-3.2307,-3.171,-3.1789,-3.1353,-3.0896,-3.1338,-3.0955,-3.034,-3.0017,-2.9664,-2.9233,-2.8581,-2.8411,-2.8411,-2.8411,-2.8411,-2.8411,-2.8411,-2.8411,-2.8411,-2.8411,-2.8411,-2.8411,-2.8411,-2.8192,-2.7995,-2.7995,-2.7765,-2.76,-2.76,-2.76,-2.76,-2.76,-2.76,-2.76,-2.76,-2.7357,-2.6904,-2.6256,-2.5947,-2.5674,-2.5453,-2.4189,-2.3675,-2.4073,-2.3424,-2.3108,-2.3108,-2.3108,-2.3108,-2.3108,-2.3108,-2.3108,-1.14,-1.2688,-1.4003,-1.5967,0.0,-1.8405,-1.8846,-1.7882,0.0,0.0,0.0,0.0,0.0,0.0,0.0,0.0,0.0,0.0,0.0,0.0,0.0,0.0,0.0,0.0,0.0,0.0,0.0,0.0,0.0,0.0,0.0,0.0,-3.1746,-3.1653,-3.1634,-3.1634,-3.1634,-3.1634,-3.169,-3.18,-3.2369,-3.2645,-3.2662,-3.3266,-3.3374,-3.3077,-3.3532,-3.3315,-3.2708,-3.3401,-3.3428,-3.3072,-3.3245,-3.3198,-3.3072,-3.3245,-3.2756,-3.2102,-3.2418,-3.2045,-3.152,-3.1941,-3.1628,-3.1208,-3.218,-3.1501,-3.0402,-3.0402,-2.991,-2.9233,-2.8581,-2.8411,-2.8411,-2.8411,-2.8411,-2.8411,-2.8411,-2.8411,-2.8411,-2.8411,-2.8411,-2.8387,-2.8348,-2.8152,-2.798,-2.7955,-2.7765,-2.76,-2.76,-2.76,-2.76,-2.76,-2.76,-2.76,-2.76,-2.76,-2.7214,-2.6269,-2.5564,-2.537,-2.5783,-2.4379,-2.3822,-2.4292,-2.3514,-2.3108,-2.3108,-2.3108,-2.3108,-2.3108,-2.3108,-2.3108,-1.3472,-1.4115,-1.4488,-1.667,-1.6717,-1.6826,-1.9102,-1.8404,0.0,-2.0162,0.0,0.0,0.0,0.0,0.0,0.0,0.0,0.0,0.0,0.0,0.0,0.0,0.0,0.0,0.0,0.0,0.0,0.0,0.0,0.0,0.0,0.0,0.0,-3.1162,-3.1142,-3.1142,-3.1142,-3.1142,-3.1372,-3.18,-3.1852,-3.1869,-3.1869,-3.1938,-3.207,-3.2262,-3.1879,-3.1812,-3.2006,-3.2306,-3.2422,-3.2434,-3.3056,-3.2914,-3.2449,-3.3072,-3.244,-3.1476,-3.2771,-3.2797,-3.2313,-3.2824,-3.2441,-3.183,-3.2416,-3.157,-3.0402,-3.0402,-2.991,-2.9233,-2.8581,-2.8411,-2.8411,-2.8411,-2.8411,-2.8411,-2.8411,-2.8411,-2.8411,-2.8411,-2.8411,-2.8348,-2.8235,-2.8103,-2.7955,-2.7815,-2.7675,-2.76,-2.76,-2.76,-2.76,-2.76,-2.76,-2.76,-2.76,-2.76,-2.756,-2.7484,-2.6375,-2.5769,-2.5783,-2.4379,-2.3628,-2.3645,-2.3288,-2.3108,-2.3108,-2.3108,-2.3108,-2.3108,-2.3108,-2.3108,-1.1275,-1.2423,-1.369,-1.5792,-1.6287,0.0,0.0,-1.9876,-2.0507,-2.1976,-2.2524,0.0,0.0,0.0,0.0,0.0,0.0,0.0,0.0,0.0,0.0,0.0,0.0,0.0,0.0,0.0,0.0,0.0,0.0,0.0,0.0,0.0,0.0,-3.1411,-3.1504,-3.1483,-3.1349,-3.1466,-3.1617,-3.18,-3.18,-3.18,-3.18,-3.18,-3.1696,-3.1523,-3.187,-3.1697,-3.1246,-3.1863,-3.218,-3.237,-3.304,-3.3151,-3.2882,-3.275,-3.2355,-3.1823,-3.1501,-3.1476,-3.164,-3.1756,-3.18,-3.1893,-3.2431,-3.1848,-3.1028,-3.1028,-3.0551,-2.9771,-2.8688,-2.8411,-2.8411,-2.8411,-2.8411,-2.8411,-2.8411,-2.8411,-2.8411,-2.8411,-2.8411,-2.8348,-2.821,-2.8079,-2.7955,-2.7815,-2.7675,-2.76,-2.76,-2.76,-2.76,-2.76,-2.76,-2.76,-2.76,-2.76,-2.7433,-2.7074,-2.6256,-2.5987,-2.6336,-2.4567,-2.3793,-2.4147,-2.3454,-2.3108,-2.3108,-2.3108,-2.3108,-2.3108,-2.3108,-2.3108,-1.0656,-1.1924,-1.3426,-1.5256,0.0,0.0,-1.9468,-2.0643,-2.1682,-2.2977,-2.3167,0.0,0.0,0.0,0.0,0.0,0.0,0.0,0.0,0.0,0.0,0.0,0.0,0.0,0.0,0.0,0.0,0.0,0.0,0.0,0.0,0.0,0.0,0.0,-3.1447,-3.1447,-3.1368,-3.1389,-3.1447,-3.1579,-3.1447,-3.1523,-3.18,-3.1653,-3.1391,-3.1117,-3.1381,-3.1115,-3.0542,-3.1169,-3.1757,-3.2339,-3.2813,-3.2835,-3.2645,-3.2639,-3.2196,-3.1596,-3.1295,-3.1309,-3.147,-3.1681,-3.1737,-3.1856,-3.2501,-3.1782,-3.0849,-3.1294,-3.0757,-2.9835,-2.8747,-2.8596,-2.8673,-2.8458,-2.8411,-2.8411,-2.8411,-2.8411,-2.8411,-2.8411,-2.8411,-2.8348,-2.8177,-2.8054,-2.793,-2.7765,-2.765,-2.76,-2.76,-2.76,-2.76,-2.76,-2.7433,-2.7306,-2.7306,-2.7137,-2.6852,-2.6457,-2.5878,-2.5715,-2.6136,-2.458,-2.3852,-2.4205,-2.3543,-2.3168,-2.3108,-2.3108,-2.3108,-2.3108,-2.3108,-2.3108,-1.2459,-1.3241,-1.3956,0.0,0.0,0.0,-2.0206,-2.0457,-2.0959,-2.3157,0.0,-2.3337,-2.4058,0.0,0.0,0.0,0.0,0.0,0.0,0.0,0.0,0.0,0.0,0.0,0.0,0.0,0.0,0.0,0.0,0.0,0.0,0.0,0.0,0.0,-3.0804,-3.0888,-3.1103,-3.0703,-3.0703,-3.1083,-3.0703,-3.0945,-3.1764,-3.1315,-3.1103,-3.1044,-3.0166,-2.9793,-2.9814,-3.0092,-3.1026,-3.2276,-3.2291,-3.1864,-3.1397,-3.2787,-3.1981,-3.052,-3.2566,-3.2714,-3.2123,-3.3003,-3.2504,-3.1765,-3.264,-3.127,-2.9705,-3.1022,-3.0448,-2.9286,-2.8753,-2.9006,-2.9233,-2.8541,-2.8411,-2.8411,-2.8411,-2.8411,-2.8411,-2.8411,-2.8411,-2.8299,-2.8044,-2.7995,-2.7905,-2.765,-2.76,-2.76,-2.76,-2.76,-2.76,-2.76,-2.7074,-2.6709,-2.6709,-2.6149,-2.5783,-2.5783,-2.5286,-2.5005,-2.5005,-2.4287,-2.3819,-2.3599,-2.345,-2.33,-2.3108,-2.3108,-2.3108,-2.3108,-2.3108,-2.3108,-1.1286,-1.3137,0.0,-1.5983,0.0,0.0,0.0,-2.1422,0.0,0.0,-2.4237,-2.4116,0.0,0.0,0.0,0.0,0.0,0.0,0.0,0.0,0.0,0.0,0.0,0.0,0.0,0.0,0.0,0.0,0.0,0.0,0.0,0.0,0.0,0.0,-3.1198,-3.1103,-3.1024,-3.0683,-3.0559,-3.0683,-3.0559,-3.0642,-3.0885,-3.0744,-3.0497,-3.0166,-2.9903,-2.9611,-2.9353,-2.9951,-3.0717,-3.1571,-3.2102,-3.244,-3.2677,-3.2639,-3.2212,-3.169,-3.1665,-3.1834,-3.1967,-3.1693,-3.1793,-3.1943,-3.1476,-3.1281,-3.1265,-3.1419,-3.1187,-3.0731,-3.0088,-2.9672,-2.9132,-2.8027,-2.8097,-2.8411,-2.8411,-2.8411,-2.8411,-2.8411,-2.8323,-2.8201,-2.8029,-2.793,-2.779,-2.7625,-2.7229,-2.6971,-2.6971,-2.6971,-2.6971,-2.6971,-2.6814,-2.6537,-2.6095,-2.5906,-2.5632,-2.5272,-2.509,-2.5005,-2.5005,-2.4287,-2.3819,-2.3599,-2.345,-2.33,-2.3108,-2.3108,-2.3308,-2.3728,-2.3296,-2.3321,-1.1962,-1.4056,0.0,-1.722,-1.9129,-2.0926,-2.1473,0.0,0.0,0.0,0.0,0.0,0.0,0.0,0.0,0.0,0.0,0.0,0.0,0.0,0.0,0.0,0.0,0.0,0.0,0.0,0.0,0.0,0.0,0.0,0.0,0.0,0.0,0.0,-3.1235,-3.1061,-3.0925,-3.0723,-3.0497,-3.0225,-3.0225,-3.0118,-2.9946,-3.014,-3.0075,-2.9788,-2.9611,-2.9357,-2.913,-2.9595,-3.0338,-3.123,-3.1681,-3.2307,-3.2882,-3.2766,-3.2529,-3.225,-3.1954,-3.1883,-3.1886,-3.1451,-3.139,-3.1465,-3.1174,-3.1233,-3.1408,-3.1495,-3.1306,-3.0939,-3.0303,-2.9624,-2.8882,-2.804,-2.8156,-2.8323,-2.8097,-2.8235,-2.8323,-2.8097,-2.8122,-2.8162,-2.8005,-2.7905,-2.7665,-2.7306,-2.6721,-2.6336,-2.6336,-2.6336,-2.6336,-2.6336,-2.6163,-2.5892,-2.5508,-2.5258,-2.4991,-2.4664,-2.4649,-2.4649,-2.4649,-2.4229,-2.3848,-2.3599,-2.3726,-2.369,-2.3446,-2.3659,-2.3948,-2.4318,-2.3935,-2.3847,-1.3713,0.0,0.0,-1.8656,-1.9653,0.0,-2.2629,-2.2669,-2.2592,0.0,0.0,0.0,0.0,0.0,0.0,0.0,0.0,0.0,0.0,0.0,0.0,0.0,0.0,0.0,0.0,0.0,0.0,0.0,0.0,0.0,0.0,0.0,0.0,0.0,-3.1015,-3.0838,-3.0767,-3.0723,-3.0393,0.0,-2.9766,-2.9499,-2.9098,-2.9544,-2.9744,-2.9722,-2.9305,-2.9098,-2.9098,-2.9098,-2.9888,-3.1103,-3.1167,-3.165,-3.237,-3.304,-3.2898,-3.2455,-3.285,-3.252,-3.189,-3.1734,-3.1101,-3.0569,-3.1218,-3.0984,-3.0584,-3.1146,-3.0881,-3.0289,-2.974,-2.9102,-2.8536,-2.8355,-2.8298,-2.8097,-2.754,-2.791,-2.8162,-2.759,-2.7845,-2.8113,-2.793,-2.779,-2.7448,-2.6642,-2.6068,-2.5742,-2.5742,-2.5742,-2.5742,-2.5742,-2.5286,-2.4977,-2.492,-2.4419,-2.4083,-2.4083,-2.4083,-2.4083,-2.4083,-2.4083,-2.3936,-2.3628,-2.4119,-2.4258,-2.4004,-2.4556,-2.4813,-2.4863,-2.4813,-2.4569,-1.3272,-1.4978,0.0,0.0,-1.9585,-2.0519,-2.2298,-2.2103,-2.2004,0.0,0.0,0.0,0.0,0.0,0.0,0.0,0.0,0.0,0.0,0.0,0.0,0.0,0.0,0.0,0.0,0.0,0.0,0.0,0.0,0.0,0.0,0.0,0.0,-3.1075,-3.0801,-3.0662,-3.0645,-3.0075,-2.97,0.0,-2.9357,-2.919,-2.9098,-2.9213,-2.9243,-2.9243,-2.9144,-2.9098,-2.9098,-2.9098,-2.9627,-3.0489,-3.1002,-3.165,-3.237,-3.304,-3.3214,-3.2982,-3.236,-3.2031,-3.1705,-3.0436,-3.0058,-2.9981,-2.9421,-2.9656,-3.0072,-2.9966,-2.9813,-2.9692,-2.9565,-2.9025,-2.8388,-2.7897,-2.7424,-2.703,-2.6886,-2.7312,-2.763,-2.7399,-2.7735,-2.7865,-2.724,-2.7034,-2.659,-2.5508,-2.5272,-2.516,-2.516,-2.516,-2.516,-2.516,-2.5061,-2.4806,-2.4345,-2.4171,-2.4083,-2.4083,-2.4083,-2.4083,-2.4083,-2.4083,-2.3936,-2.3628,-2.4119,-2.4258,-2.4004,-2.4556,-2.5034,-2.5423,-2.5008,-2.4938,-1.3279,0.0,0.0,-1.9489,0.0,-2.0627,-2.1723,-2.1799,0.0,0.0,0.0,0.0,0.0,0.0,0.0,0.0,0.0,0.0,0.0,0.0,0.0,0.0,0.0,0.0,0.0,0.0,0.0,0.0,0.0,0.0,0.0,-3.0275,-3.0477,-3.0477,-3.0516,-3.0514,-3.041,-3.0113,-2.9826,-2.9493,-2.947,-2.9312,-2.9098,-2.9098,-2.9098,-2.9098,-2.9098,-2.9098,-2.9098,-2.9098,-2.9525,-3.0236,-3.0575,-3.1374,-3.2339,-3.2703,-3.3008,-3.3214,-3.259,-3.2173,-3.1677,-3.0391,-2.9889,-2.9673,-2.917,-2.9376,-2.9721,-2.9535,-2.9504,-2.9504,-2.9504,-2.8822,-2.8124,-2.8122,-2.7612,-2.7043,-2.675,-2.7067,-2.7297,-2.6979,-2.724,-2.7265,-2.6599,-2.6135,-2.5674,-2.509,-2.475,-2.4563,-2.4563,-2.4563,-2.4563,-2.4563,-2.4563,-2.4447,-2.4112,-2.436,-2.4517,-2.4517,-2.4779,-2.4905,-2.4905,-2.4905,-2.4611,-2.4008,-2.4783,-2.5078,-2.477,-2.5335,-2.5598,-2.5586,-2.5322,-2.5209,-1.2989,0.0,-1.7499,-2.0005,-2.0504,0.0,-2.0916,-2.1303,0.0,0.0,0.0,0.0,0.0,0.0,0.0,0.0,0.0,0.0,0.0,0.0,0.0,0.0,0.0,0.0,0.0,0.0,0.0,0.0,0.0,0.0,-2.8721,-2.9309,-2.9626,-2.9626,-2.9972,-3.0108,-3.0056,-3.0161,-2.9977,-2.956,-2.9633,-2.9493,-2.9098,-2.9098,-2.9098,-2.9098,-2.9098,-2.9098,-2.9098,-2.9098,-2.9446,-3.0006,-3.0157,-3.0891,-3.1934,-3.2171,-3.2603,-3.3056,-3.278,-3.2272,-3.1563,-3.0615,-2.9889,-2.9331,-2.9331,-2.9331,-2.9331,-2.9331,-2.9331,-2.9331,-2.9331,-2.8591,-2.7984,-2.8402,-2.8022,-2.7368,-2.6664,-2.6777,-2.686,-2.6363,-2.6443,-2.6414,-2.5918,-2.5273,-2.4835,-2.4835,-2.4419,-2.4083,-2.4083,-2.4083,-2.4164,-2.4295,-2.4279,-2.4305,-2.437,-2.4844,-2.5149,-2.5149,-2.5563,-2.5793,-2.5749,-2.5853,-2.5527,-2.4675,-2.5601,-2.5892,-2.546,-2.6172,-2.6248,-2.5737,-2.5636,-2.5423,0.0,0.0,-1.7196,0.0,-1.8965,-1.9272,0.0,0.0,0.0,0.0,0.0,0.0,0.0,0.0,0.0,0.0,0.0,0.0,0.0,0.0,0.0,0.0,0.0,0.0,0.0,0.0,0.0,0.0,0.0,0.0,-2.8417,-2.855,-2.86,-2.86,-2.8644,-2.8953,-2.9489,-2.9123,-2.9221,-2.9766,-2.938,-2.9167,-2.9098,-2.9098,-2.9098,-2.9098,-2.9098,-2.9098,-2.9098,-2.9098,-2.9161,-2.9304,-2.9943,-3.0243,-3.0452,-3.1614,-3.2117,-3.2228,-3.1946,-3.1492,-3.0896,-2.9952,-2.9233,-2.8702,-2.8702,-2.8702,-2.8702,-2.8702,-2.8702,-2.8702,-2.8702,-2.8597,-2.8375,-2.7952,-2.7618,-2.7138,-2.6054,-2.5841,-2.5755,-2.5425,-2.5314,-2.5216,-2.516,-2.4635,-2.4229,-2.4229,-2.4141,-2.4083,-2.4083,-2.4083,-2.4331,-2.4988,-2.5053,-2.5197,-2.5532,-2.5636,-2.5675,-2.5675,-2.5754,-2.5717,-2.5547,-2.6039,-2.6109,-2.5706,-2.5965,-2.5714,-2.4888,-2.5996,-2.6449,-2.6361,-2.5824,-2.5824,-1.2021,-1.4098,-1.604,0.0,-1.8227,-1.8304,-1.8807,0.0,0.0,0.0,0.0,0.0,0.0,0.0,0.0,0.0,0.0,0.0,0.0,0.0,0.0,0.0,0.0,0.0,0.0,0.0,0.0,0.0,0.0,-2.6816,-2.7147,-2.7564,-2.7779,-2.7779,-2.8177,-2.8704,-2.938,-2.8934,-2.893,-2.9403,-2.919,-2.9098,-2.9098,-2.9098,-2.9098,-2.9098,-2.9098,-2.9098,-2.9098,-2.9098,-2.9098,-2.913,-2.9446,-2.9974,-3.0622,-3.1218,-3.1914,-3.2476,-3.1886,-3.1549,-3.1159,-2.9891,-2.93,-2.9044,-2.8702,-2.8587,-2.8587,-2.8587,-2.8587,-2.8587,-2.8587,-2.8587,-2.8519,-2.8261,-2.7796,-2.7296,-2.6978,-2.6616,-2.6164,-2.5636,-2.5262,-2.489,-2.4558,-2.4287,-2.4083,-2.4083,-2.4083,-2.4083,-2.4083,-2.4644,-2.5414,-2.6399,-2.591,-2.5597,-2.5767,-2.6112,-2.6295,-2.6295,-2.6608,-2.6713,-2.6635,-2.6797,-2.6652,-2.608,-2.6294,-2.6198,-2.5737,-2.626,-2.6336,-2.5996,-2.5423,-2.5448,0.0,0.0,-1.4441,-1.6579,-1.7276,-1.7514,0.0,0.0,0.0,0.0,0.0,0.0,0.0,0.0,0.0,0.0,0.0,0.0,0.0,0.0,0.0,0.0,0.0,0.0,0.0,0.0,0.0,0.0,0.0,-2.6184,-2.6132,-2.6662,-2.6943,-2.6943,-2.7434,-2.8042,-2.8791,-2.8672,-2.8772,-2.9098,-2.9098,-2.9098,-2.9098,-2.9098,-2.9098,-2.9098,-2.9098,-2.9098,-2.9098,-2.9098,-2.9098,-2.9098,-2.9052,-2.9713,-3.0714,-3.0861,-3.1509,-3.228,-3.1819,-3.145,-3.1028,-2.9875,-2.9393,-2.9188,-2.8734,-2.8587,-2.8587,-2.8587,-2.8587,-2.8587,-2.8587,-2.8554,-2.8509,-2.8509,-2.801,-2.749,-2.7438,-2.6996,-2.6465,-2.5904,-2.5491,-2.5014,-2.4478,-2.4213,-2.4083,-2.4083,-2.4579,-2.4958,-2.4958,-2.5702,-2.655,-2.7411,-2.6733,-2.6224,-2.6224,-2.6648,-2.6883,-2.6883,-2.7288,-2.7469,-2.7369,-2.7268,-2.6907,-2.6297,-2.6523,-2.6514,-2.6273,-2.6424,-2.6273,-2.5799,-2.5272,-2.531,0.0,-1.1107,0.0,-1.3784,-1.5547,0.0,0.0,0.0,0.0,0.0,0.0,0.0,0.0,0.0,0.0,0.0,0.0,0.0,0.0,0.0,0.0,0.0,0.0,0.0,0.0,0.0,0.0,0.0,0.0,-2.6114,-2.5934,-2.5948,-2.5965,-2.5965,-2.5815,-2.6189,-2.7131,-2.7973,-2.8634,-2.9098,-2.9098,-2.9098,-2.9098,-2.9098,-2.9098,-2.9098,-2.9098,-2.9098,-2.9098,-2.9098,-2.9098,-2.9075,-2.8967,-2.9296,-2.9924,-3.0421,-3.0696,-3.0878,-3.1356,-3.0792,-2.9856,-2.958,-2.9107,-2.8651,-2.8619,-2.8587,-2.8587,-2.8587,-2.8587,-2.8587,-2.8587,-2.8476,-2.832,-2.832,-2.8045,-2.7478,-2.6346,-2.5988,-2.5842,-2.5816,-2.5785,-2.561,-2.5223,-2.4553,-2.4083,-2.4083,-2.5936,-2.732,-2.732,-2.7372,-2.7425,-2.749,-2.7438,-2.7411,-2.7411,-2.7438,-2.7451,-2.7451,-2.7477,-2.7369,-2.7045,-2.7024,-2.6863,-2.6483,-2.6508,-2.6223,-2.5636,-2.6223,-2.6474,-2.6436,-2.5858,-2.5862,0.0,0.0,0.0,-1.299,-1.4123,0.0,0.0,0.0,0.0,0.0,0.0,0.0,0.0,0.0,0.0,0.0,0.0,0.0,0.0,0.0,0.0,0.0,0.0,0.0,0.0,0.0,0.0,0.0,0.0,0.0,-2.5715,-2.5715,-2.5715,-2.5715,-2.5642,-2.5904,-2.6534,-2.7774,-2.8411,-2.8474,-2.8893,-2.9098,-2.9098,-2.9098,-2.9052,-2.8967,-2.8967,-2.8967,-2.8967,-2.8944,-2.8897,-2.8897,-2.8834,-2.9176,-2.9652,-2.946,-2.9898,-3.0494,-2.9886,-2.9667,-2.9532,-2.9058,-2.8798,-2.8587,-2.8587,-2.8587,-2.8587,-2.8587,-2.8587,-2.8554,-2.8444,-2.8352,-2.8254,-2.8039,-2.7776,-2.7472,-2.7066,-2.6922,-2.6772,-2.6438,-2.6373,-2.6203,-2.5694,-2.4749,-2.4083,-2.4083,-2.4788,-2.5845,-2.7307,-2.7105,-2.6987,-2.7438,-2.7436,-2.7369,-2.7369,-2.7235,-2.7248,-2.7369,-2.7235,-2.718,-2.718,-2.693,-2.676,-2.6624,-2.6521,-2.6386,-2.6185,-2.6386,-2.6499,-2.6474,-2.5862,-2.59,-0.8987,0.0,0.0,0.0,0.0,0.0,0.0,0.0,0.0,0.0,0.0,0.0,0.0,0.0,0.0,0.0,0.0,0.0,0.0,0.0,0.0,0.0,0.0,0.0,0.0,0.0,0.0,0.0,0.0,0.0,-2.5492,-2.5508,-2.547,-2.5397,-2.5454,-2.5731,-2.6193,-2.7121,-2.7757,-2.8094,-2.8553,-2.8854,-2.9029,-2.9029,-2.8982,-2.8865,-2.8803,-2.8826,-2.8865,-2.8826,-2.8684,-2.8486,-2.8453,-2.8682,-2.8971,-2.8539,-2.8894,-2.949,-2.868,-2.847,-2.8557,-2.8366,-2.8302,-2.8343,-2.8532,-2.8587,-2.8587,-2.8587,-2.8554,-2.8476,-2.832,-2.8074,-2.7779,-2.7485,-2.719,-2.6929,-2.6929,-2.7229,-2.7385,-2.704,-2.6961,-2.6844,-2.6432,-2.5741,-2.4971,-2.42,-2.4083,-2.4631,-2.6158,-2.6387,-2.659,-2.7097,-2.7165,-2.7214,-2.7214,-2.7079,-2.7045,-2.718,-2.7079,-2.7045,-2.71,-2.685,-2.6692,-2.6624,-2.6555,-2.6499,-2.6499,-2.6499,-2.6499,-2.6487,-2.6097,-2.6122,0.0,0.0,0.0,0.0,0.0,0.0,0.0,0.0,0.0,0.0,0.0,0.0,0.0,0.0,0.0,0.0,0.0,0.0,0.0,0.0,0.0,0.0,0.0,0.0,0.0,0.0,0.0,0.0,0.0,-2.4715,-2.5214,-2.5278,-2.5217,-2.5005,-2.5197,-2.5516,-2.5977,-2.5993,-2.6688,-2.8031,-2.8063,-2.8343,-2.8873,-2.8873,-2.885,-2.8794,-2.866,-2.866,-2.8771,-2.8771,-2.8414,-2.7849,-2.773,-2.775,-2.7864,-2.7715,-2.7695,-2.7764,-2.7764,-2.7337,-2.6888,-2.7488,-2.7678,-2.7786,-2.837,-2.8546,-2.8546,-2.8532,-2.839,-2.8247,-2.8247,-2.756,-2.6828,-2.6712,-2.6229,-2.5793,-2.5806,-2.6694,-2.7477,-2.7477,-2.749,-2.749,-2.749,-2.7477,-2.6694,-2.4422,-2.4083,-2.4083,-2.4083,-2.5415,-2.6369,-2.6394,-2.6745,-2.699,-2.699,-2.699,-2.699,-2.699,-2.699,-2.6909,-2.6714,-2.6679,-2.6624,-2.6499,-2.6499,-2.6499,-2.6499,-2.6499,-2.6499,-2.6499,-2.6499,-2.6499,-0.8034,0.0,0.0,0.0,0.0,0.0,0.0,0.0,0.0,0.0,0.0,0.0,0.0,0.0,0.0,0.0,0.0,0.0,0.0,0.0,0.0,0.0,0.0,0.0,0.0,0.0,0.0,0.0,-2.379,-2.4134,-2.4268,-2.4795,-2.5045,-2.5005,-2.5045,-2.514,-2.527,-2.5756,-2.6198,-2.6593,-2.7013,-2.7561,-2.8175,-2.8091,-2.8256,-2.866,-2.8636,-2.8565,-2.8484,-2.8033,-2.754,-2.7041,-2.699,-2.7003,-2.698,-2.654,-2.6651,-2.6946,-2.6556,-2.6578,-2.682,-2.6982,-2.7037,-2.7064,-2.724,-2.7311,-2.7281,-2.7188,-2.7126,-2.7019,-2.6756,-2.6417,-2.6078,-2.6059,-2.591,-2.591,-2.6347,-2.6687,-2.6909,-2.6909,-2.7249,-2.749,-2.749,-2.7079,-2.6112,-2.4344,-2.4083,-2.4083,-2.4083,-2.4819,-2.5587,-2.6317,-2.6632,-2.6794,-2.6794,-2.6692,-2.6671,-2.6794,-2.6705,-2.6658,-2.6679,-2.6624,-2.6521,-2.6499,-2.6499,-2.6499,-2.6499,-2.6499,-2.6499,-2.6499,-2.6499,-2.6499,-0.8567,0.0,0.0,0.0,0.0,0.0,0.0,-1.2547,0.0,0.0,0.0,0.0,0.0,0.0,0.0,0.0,0.0,0.0,0.0,0.0,0.0,0.0,0.0,0.0,0.0,0.0,0.0,-2.2471,-2.2848,-2.3304,-2.3872,-2.4302,-2.4685,-2.5005,-2.5005,-2.5005,-2.5005,-2.5397,-2.5724,-2.6009,-2.6372,-2.6838,-2.7402,-2.7616,-2.786,-2.8099,-2.8393,-2.8332,-2.7984,-2.7655,-2.7312,-2.699,-2.6534,-2.6363,-2.6283,-2.5743,-2.5716,-2.595,-2.5622,-2.5736,-2.6015,-2.6318,-2.637,-2.6394,-2.6711,-2.6762,-2.6702,-2.661,-2.6488,-2.6321,-2.6029,-2.5734,-2.5471,-2.5471,-2.5471,-2.5563,-2.5921,-2.6366,-2.6771,-2.6987,-2.7301,-2.7385,-2.7072,-2.6412,-2.5484,-2.4266,-2.4083,-2.4083,-2.4083,-2.4568,-2.5182,-2.5859,-2.6357,-2.6624,-2.6624,-2.6521,-2.6521,-2.6624,-2.6521,-2.6521,-2.6624,-2.6521,-2.6499,-2.6499,-2.6499,-2.6499,-2.6499,-2.6499,-2.6499,-2.6499,-2.6499,-2.6499,0.0,0.0,0.0,0.0,0.0,0.0,-1.2677,-1.2704,0.0,0.0,0.0,0.0,0.0,0.0,0.0,0.0,0.0,0.0,0.0,0.0,0.0,0.0,0.0,0.0,0.0,-2.0629,-2.1063,-2.1709,-2.1836,-2.2418,-2.3696,-2.3774,-2.409,-2.4823,-2.4835,-2.4867,-2.4946,-2.4946,-2.5246,-2.5841,-2.5857,-2.6078,-2.6573,-2.7159,-2.7434,-2.7426,-2.8027,-2.8036,-2.759,-2.754,-2.7464,-2.7312,-2.6297,-2.5893,-2.5839,-2.5202,-2.4977,-2.4977,-2.4948,-2.4863,-2.4901,-2.5529,-2.5675,-2.5695,-2.6367,-2.6469,-2.6378,-2.6348,-2.6121,-2.5845,-2.5659,-2.5262,-2.49,-2.49,-2.4953,-2.5018,-2.5083,-2.5947,-2.6844,-2.7385,-2.749,-2.7281,-2.6634,-2.5793,-2.4984,-2.42,-2.4083,-2.4135,-2.4223,-2.4667,-2.5036,-2.5358,-2.6059,-2.6499,-2.6499,-2.6499,-2.6499,-2.6499,-2.6499,-2.6499,-2.6499,-2.6499,-2.6499,-2.6499,-2.6499,-2.6499,-2.6499,-2.6499,-2.6499,-2.6499,-2.6424,-2.6436,0.0,0.0,0.0,0.0,0.0,0.0,0.0,-1.0962,0.0,0.0,0.0,0.0,0.0,0.0,0.0,0.0,0.0,0.0,0.0,0.0,0.0,0.0,0.0,0.0,0.0,-2.0629,-2.0841,-2.0915,-2.1382,-2.2003,-2.2817,-2.2864,-2.3177,-2.3846,-2.3862,-2.4127,-2.467,-2.467,-2.4733,-2.4873,-2.4807,-2.5118,-2.5728,-2.5765,-2.6378,-2.7411,-2.7534,-2.7817,-2.8186,-2.7705,-2.7261,-2.6782,-2.6136,-2.5893,-2.5811,-2.509,-2.4835,-2.4806,-2.4734,-2.4677,-2.4662,-2.4811,-2.4851,-2.4836,-2.4985,-2.5025,-2.4954,-2.4795,-2.4632,-2.4482,-2.4452,-2.436,-2.4282,-2.4282,-2.4635,-2.5123,-2.5563,-2.619,-2.6844,-2.7385,-2.749,-2.7451,-2.7307,-2.6284,-2.52,-2.424,-2.4083,-2.432,-2.4983,-2.5165,-2.5365,-2.5739,-2.6198,-2.6499,-2.6499,-2.6499,-2.6499,-2.6499,-2.6499,-2.6499,-2.6499,-2.6499,-2.6499,-2.6499,-2.6499,-2.6499,-2.6499,-2.6499,-2.6499,-2.6487,-2.6021,-2.6047,0.0,0.0,0.0,-1.2917,0.0,0.0,0.0,0.0,0.0,0.0,0.0,0.0,0.0,0.0,0.0,0.0,0.0,0.0,0.0,0.0,0.0,0.0,0.0,0.0,0.0,-2.0578,-2.0628,-2.061,-2.0889,-2.1372,-2.2059,-2.209,-2.2418,-2.307,-2.3429,-2.3752,-2.4095,-2.4438,-2.4609,-2.4609,-2.4564,-2.471,-2.5025,-2.5286,-2.5746,-2.638,-2.6734,-2.7249,-2.7769,-2.7159,-2.6914,-2.6849,-2.6469,-2.6416,-2.6481,-2.555,-2.5147,-2.5034,-2.4721,-2.452,-2.4463,-2.4563,-2.452,-2.4463,-2.4563,-2.452,-2.4421,-2.4261,-2.4157,-2.4083,-2.4083,-2.4083,-2.4083,-2.4083,-2.4779,-2.5471,-2.5728,-2.6491,-2.7183,-2.7438,-2.749,-2.7378,-2.7025,-2.6505,-2.5634,-2.4174,-2.4278,-2.4628,-2.5042,-2.5582,-2.5889,-2.5889,-2.6261,-2.6499,-2.6499,-2.6499,-2.6499,-2.6499,-2.6499,-2.6499,-2.6499,-2.6499,-2.6361,-2.6072,-2.6059,-2.5933,-2.5636,-2.5636,-2.5925,-2.6474,-2.5862,-2.5749,0.0,0.0,0.0,0.0,0.0,-1.2917,0.0,0.0,0.0,0.0,0.0,0.0,0.0,0.0,0.0,0.0,0.0,0.0,0.0,0.0,0.0,0.0,0.0,0.0,0.0,-2.0182,-2.0197,-2.0461,-2.0211,-2.0446,-2.1305,-2.1352,-2.1664,-2.2331,-2.2857,-2.3277,-2.3538,-2.4082,-2.4409,-2.4549,-2.4549,-2.4508,-2.4472,-2.5029,-2.5274,-2.5327,-2.5911,-2.6573,-2.7154,-2.6639,-2.6693,-2.7071,-2.6625,-2.6651,-2.682,-2.5741,-2.5287,-2.5133,-2.4664,-2.4405,-2.4276,-2.4434,-2.4405,-2.4276,-2.4434,-2.4405,-2.4247,-2.4128,-2.4083,-2.4083,-2.4083,-2.4083,-2.4122,-2.4256,-2.5079,-2.5819,-2.5968,-2.6772,-2.749,-2.749,-2.7503,-2.7259,-2.6673,-2.659,-2.6102,-2.4675,-2.4692,-2.4926,-2.5191,-2.5945,-2.6391,-2.6071,-2.6324,-2.6499,-2.6499,-2.6499,-2.6499,-2.6499,-2.6499,-2.6499,-2.6499,-2.6499,-2.6223,-2.5598,-2.5598,-2.5335,-2.4788,-2.4788,-2.5272,-2.6172,-2.5561,-2.5347,0.0,0.0,0.0,0.0,-1.5053,0.0,0.0,0.0,0.0,0.0,0.0,0.0,0.0,0.0,0.0,0.0,0.0,0.0,0.0,0.0,0.0,0.0,0.0,0.0,0.0,0.0,-1.9137,-2.0313,-1.921,-1.9039,-2.0385,-2.0462,-2.0738,-2.1432,-2.1525,-2.2142,-2.3326,-2.3418,-2.3758,-2.4323,-2.4323,-2.4323,-2.4338,-2.4415,-2.4748,-2.5296,-2.5339,-2.6061,-2.7177,-2.6996,-2.6995,-2.6993,-2.5959,-2.5591,-2.5522,-2.4738,-2.4423,-2.4408,-2.4216,-2.4141,-2.4141,-2.4141,-2.4141,-2.4141,-2.4141,-2.4141,-2.4112,-2.4112,-2.4083,-2.4083,-2.4083,-2.4083,-2.4243,-2.4783,-2.5354,-2.5968,-2.6465,-2.7079,-2.749,-2.749,-2.7403,-2.7289,-2.7224,-2.6664,-2.638,-2.6742,-2.5582,-2.504,-2.6173,-2.642,-2.6461,-2.6445,-2.6461,-2.6499,-2.6499,-2.6499,-2.6499,-2.6499,-2.6499,-2.6499,-2.6499,-2.6499,-2.6223,-2.5598,-2.5598,-2.5335,-2.4788,-2.4788,-2.4883,-2.4996,-2.4443,-2.4443,0.0,0.0,0.0,0.0,0.0,0.0,-1.3005,0.0,-1.2295,0.0,0.0,0.0,0.0,0.0,0.0,0.0,0.0,0.0,0.0,0.0,0.0,0.0,0.0,0.0,0.0,0.0,0.0,0.0,0.0,-1.8638,-1.9672,-2.0088,-2.0428,-2.0703,-2.1103,-2.1766,-2.2701,-2.3102,-2.364,-2.4302,-2.4302,-2.4276,-2.4234,-2.4276,-2.443,-2.4664,-2.4637,-2.5107,-2.5895,-2.5437,-2.547,-2.5728,-2.494,-2.5105,-2.5673,-2.5063,-2.4766,-2.465,-2.4245,-2.4083,-2.4083,-2.4083,-2.4083,-2.4083,-2.4083,-2.4083,-2.4083,-2.4083,-2.4083,-2.4083,-2.4083,-2.4083,-2.4178,-2.4426,-2.5158,-2.5858,-2.6125,-2.685,-2.749,-2.749,-2.7403,-2.7268,-2.7146,-2.6853,-2.6593,-2.6458,-2.6077,-2.5775,-2.563,-2.6131,-2.6361,-2.6034,-2.6298,-2.6499,-2.6499,-2.6499,-2.6499,-2.6499,-2.6499,-2.6499,-2.6499,-2.6499,-2.6084,-2.5159,-2.5146,-2.4687,-2.381,-2.381,-2.381,-2.381,-2.3954,-2.4117,-1.6054,0.0,0.0,0.0,0.0,0.0,0.0,0.0,0.0,0.0,0.0,0.0,0.0,0.0,0.0,0.0,0.0,0.0,0.0,0.0,0.0,0.0,0.0,0.0,0.0,0.0,0.0,0.0,0.0,0.0,-1.9225,-1.9765,-2.0119,-2.0287,-2.0764,-2.135,-2.2028,-2.2686,-2.3363,-2.4025,-2.421,-2.4255,-2.4202,-2.4234,-2.4229,-2.4145,-2.4103,-2.442,-2.4903,-2.4374,-2.4461,-2.4861,-2.446,-2.48,-2.5439,-2.5049,-2.485,-2.4706,-2.4258,-2.4083,-2.4083,-2.4083,-2.4083,-2.4083,-2.4083,-2.4083,-2.4083,-2.4083,-2.4083,-2.4083,-2.4083,-2.4083,-2.4174,-2.4475,-2.5192,-2.5884,-2.6198,-2.6915,-2.749,-2.7469,-2.7302,-2.7146,-2.6943,-2.6909,-2.6735,-2.6147,-2.6266,-2.6093,-2.5252,-2.5665,-2.59,-2.5624,-2.5975,-2.6323,-2.6474,-2.6348,-2.626,-2.626,-2.6411,-2.6499,-2.6499,-2.6336,-2.582,-2.4813,-2.4669,-2.4086,-2.3108,-2.3108,-2.3108,-2.3108,-2.3534,-2.3766,0.0,0.0,0.0,-1.45,0.0,0.0,0.0,0.0,-1.3752,0.0,0.0,0.0,0.0,0.0,-1.3805,-1.3855,0.0,0.0,0.0,0.0,0.0,0.0,0.0,0.0,0.0,0.0,0.0,0.0,0.0,0.0,-1.9148,-1.9317,-1.9626,-2.0289,-2.0335,-2.0641,-2.1319,-2.2012,-2.2675,-2.3332,-2.3994,-2.4255,-2.4202,-2.4202,-2.4124,-2.4003,-2.3861,-2.4189,-2.4777,-2.4634,-2.4704,-2.4912,-2.4873,-2.4573,-2.4171,-2.4141,-2.4112,-2.4112,-2.4112,-2.4083,-2.4083,-2.4083,-2.4083,-2.4083,-2.4083,-2.4083,-2.4083,-2.4083,-2.4083,-2.4083,-2.4083,-2.4083,-2.437,-2.548,-2.5767,-2.6093,-2.7203,-2.7464,-2.7469,-2.7335,-2.7146,-2.6943,-2.676,-2.6714,-2.6645,-2.6496,-2.6009,-2.5611,-2.5573,-2.5159,-2.5059,-2.5548,-2.5611,-2.5883,-2.6449,-2.595,-2.5624,-2.5624,-2.6185,-2.6499,-2.6499,-2.5925,-2.5372,-2.48,-2.4293,-2.3728,-2.3108,-2.3108,-2.3108,-2.3108,-2.312,-2.3133,0.0,0.0,-1.7938,-1.6159,0.0,0.0,0.0,0.0,0.0,0.0,0.0,0.0,0.0,0.0,-1.4318,-1.3897,-1.3262,-1.231,0.0,0.0,0.0,0.0,0.0,0.0,0.0,0.0,0.0,0.0,0.0,0.0,0.0,-1.9287,-1.9867,-2.0096,-2.0096,-2.0416,-2.1088,-2.1774,-2.2446,-2.3117,-2.3788,-2.403,-2.394,-2.4024,-2.3982,-2.3861,-2.3818,-2.3932,-2.4108,-2.3705,-2.3832,-2.4207,-2.3892,-2.3917,-2.4083,-2.4083,-2.4083,-2.4083,-2.4083,-2.4083,-2.4083,-2.4083,-2.4083,-2.4083,-2.4083,-2.4083,-2.4083,-2.4083,-2.4083,-2.4083,-2.4083,-2.4083,-2.4187,-2.4566,-2.4988,-2.5427,-2.6057,-2.6492,-2.6828,-2.7048,-2.6943,-2.6794,-2.6714,-2.6308,-2.608,-2.6436,-2.5996,-2.5473,-2.5134,-2.4901,-2.4713,-2.4556,-2.487,-2.5159,-2.536,-2.5197,-2.5084,-2.5084,-2.5272,-2.5372,-2.5372,-2.5184,-2.4833,-2.4293,-2.4092,-2.3715,-2.3108,-2.3108,-2.3108,-2.3108,-2.3108,-2.3108,-1.8076,-1.8392,0.0,-1.7071,-1.6413,0.0,-1.4453,0.0,0.0,0.0,0.0,0.0,0.0,0.0,-1.4648,-1.4229,-1.3388,-1.2208,0.0,0.0,0.0,0.0,0.0,0.0,0.0,0.0,-1.3232,-1.3946,0.0,0.0,0.0,0.0,-1.952,-1.999,-2.0005,-2.0218,-2.0643,-2.1538,-2.2226,-2.2666,-2.3578,-2.394,-2.3797,-2.3882,-2.3861,-2.3739,-2.3739,-2.3739,-2.3683,-2.3172,-2.3219,-2.3554,-2.3259,-2.3388,-2.3738,-2.4005,-2.4083,-2.4083,-2.4083,-2.4083,-2.4083,-2.4083,-2.4083,-2.4083,-2.4083,-2.4054,-2.4037,-2.4083,-2.4054,-2.4037,-2.4083,-2.4083,-2.4135,-2.4272,-2.4597,-2.4984,-2.5355,-2.5717,-2.6058,-2.6279,-2.623,-2.6097,-2.603,-2.5627,-2.5511,-2.6097,-2.5511,-2.4908,-2.4569,-2.4324,-2.4167,-2.4017,-2.4318,-2.4531,-2.4531,-2.4675,-2.4713,-2.4544,-2.4675,-2.4788,-2.4788,-2.4632,-2.4356,-2.4004,-2.3803,-2.3471,-2.3108,-2.3108,-2.3108,-2.3108,-2.3108,-2.3108]},{"header":{"parameterUnit":"m.s-1","parameterCategory":1,"la1":30.6,"la2":29.2853,"lo1":-89.7004,"lo2":-87.6739,"dy":0.0162,"dx":0.0183,"nx":112,"ny":82,"refTime":"2025-08-20T00:00:00:Z","depth":0,"parameterNumber":3,"parameterNumberName":"V-component_of_WINDS"},"data":[0.0,0.0,0.0,0.0,0.0,0.0,0.0,0.0,0.0,0.0,0.0,0.0,0.0,0.0,0.0,0.0,0.0,0.0,0.0,0.0,0.0,0.0,0.0,0.0,0.0,0.0,0.0,0.0,0.0,0.0,0.0,0.0,0.0,0.0,0.0,0.0,0.0,0.0,0.0,0.0,0.0,0.0,0.0,0.0,0.0,0.0,0.0,0.0,0.0,0.0,0.0,0.0,0.0,0.0,0.0,0.0,0.0,0.0,0.0,0.0,0.0,0.0,0.0,0.0,0.0,0.0,0.0,0.0,0.0,0.0,0.0,0.0,0.0,0.0,0.0,0.0,0.0,0.0,0.0,0.0,0.0,0.0,0.0,0.0,0.0,0.0,0.0,0.0,0.0,0.0,0.0,-1.3128,-1.5538,-1.6914,-1.6623,-1.6301,-1.4895,-1.199,0.0,0.0,0.0,0.0,0.0,0.0,0.0,0.0,0.0,0.0,0.0,0.0,0.0,0.0,0.0,0.0,0.0,0.0,0.0,0.0,0.0,0.0,0.0,0.0,0.0,0.0,0.0,0.0,0.0,0.0,0.0,0.0,0.0,0.0,0.0,0.0,0.0,0.0,0.0,0.0,0.0,0.0,0.0,0.0,0.0,0.0,0.0,0.0,0.0,0.0,0.0,0.0,0.0,0.0,0.0,0.0,0.0,0.0,0.0,0.0,0.0,0.0,0.0,0.0,0.0,0.0,0.0,0.0,0.0,0.0,0.0,0.0,0.0,0.0,0.0,0.0,0.0,0.0,0.0,0.0,0.0,0.0,0.0,0.0,0.0,0.0,0.0,0.0,0.0,0.0,0.0,0.0,0.0,0.0,0.0,0.0,0.0,0.0,0.0,0.0,0.0,0.0,0.0,0.0,-1.2726,-1.5248,-1.6198,-1.6662,-1.6594,-1.634,-1.4957,-1.2067,0.0,0.0,0.0,0.0,0.0,0.0,0.0,0.0,0.0,0.0,0.0,0.0,0.0,0.0,0.0,0.0,0.0,0.0,0.0,0.0,0.0,0.0,0.0,0.0,0.0,0.0,0.0,0.0,0.0,0.0,0.0,0.0,0.0,0.0,0.0,0.0,0.0,0.0,0.0,0.0,0.0,0.0,0.0,0.0,0.0,0.0,0.0,0.0,0.0,0.0,0.0,0.0,0.0,0.0,0.0,0.0,0.0,0.0,0.0,0.0,0.0,0.0,0.0,0.0,0.0,0.0,0.0,0.0,0.0,0.0,0.0,0.0,0.0,0.0,0.0,0.0,0.0,0.0,0.0,0.0,0.0,0.0,0.0,0.0,0.0,0.0,0.0,0.0,0.0,0.0,0.0,0.0,0.0,0.0,0.0,0.0,0.0,0.0,0.0,0.0,0.0,0.0,0.0,-1.1842,-1.3466,-1.6301,-1.676,-1.6743,-1.6407,-1.6272,-1.4905,-1.1874,-1.1455,0.0,0.0,0.0,0.0,0.0,0.0,0.0,0.0,0.0,0.0,0.0,0.0,0.0,0.0,0.0,0.0,0.0,0.0,0.0,0.0,0.0,0.0,0.0,0.0,0.0,0.0,0.0,0.0,0.0,0.0,0.0,0.0,0.0,0.0,0.0,0.0,0.0,0.0,0.0,0.0,0.0,0.0,0.0,0.0,0.0,0.0,0.0,0.0,0.0,0.0,0.0,0.0,0.0,0.0,0.0,0.0,0.0,0.0,0.0,0.0,0.0,0.0,0.0,0.0,0.0,0.0,0.0,0.0,0.0,0.0,0.0,0.0,0.0,0.0,0.0,0.0,0.0,0.0,0.0,0.0,0.0,0.0,0.0,0.0,0.0,0.0,0.0,0.0,0.0,0.0,0.0,0.0,0.0,0.0,0.0,0.0,0.0,0.0,0.0,0.0,0.0,0.0,-1.3521,-1.4297,-1.6832,-1.7108,-1.6927,-1.6448,-1.6058,-1.4658,-1.1892,-1.1361,0.0,0.0,0.0,0.0,0.0,0.0,0.0,0.0,0.0,0.0,0.0,0.0,0.0,0.0,0.0,0.0,0.0,0.0,0.0,0.0,0.0,0.0,0.0,0.0,0.0,0.0,0.0,0.0,0.0,0.0,0.0,0.0,0.0,0.0,0.0,0.0,0.0,0.0,0.0,0.0,0.0,0.0,0.0,0.0,0.0,0.0,0.0,0.0,0.0,0.0,0.0,0.0,0.0,0.0,0.0,0.0,0.0,0.0,0.0,0.0,0.0,0.0,0.0,0.0,0.0,0.0,0.0,0.0,0.0,0.0,0.0,0.0,0.0,0.0,0.0,0.0,0.0,0.0,0.0,0.0,0.0,0.0,0.0,0.0,0.0,0.0,0.0,0.0,0.0,0.0,0.0,0.0,0.0,0.0,0.0,0.0,0.0,0.0,0.0,0.0,0.0,0.0,-1.4045,-1.5429,-1.6946,-1.7162,-1.7149,-1.7045,-1.5675,-1.4101,-1.2437,-1.0924,0.0,0.0,0.0,0.0,0.0,0.0,0.0,0.0,0.0,0.0,0.0,0.0,0.0,0.0,0.0,0.0,0.0,0.0,0.0,0.0,0.0,0.0,0.0,0.0,0.0,0.0,0.0,0.0,0.0,0.0,0.0,0.0,0.0,0.0,0.0,0.0,0.0,0.0,0.0,0.0,0.0,0.0,0.0,0.0,0.0,0.0,0.0,0.0,0.0,0.0,0.0,0.0,0.0,0.0,0.0,0.0,0.0,0.0,0.0,0.0,0.0,0.0,0.0,0.0,0.0,0.0,0.0,0.0,0.0,0.0,0.0,0.0,0.0,0.0,0.0,0.0,0.0,0.0,0.0,0.0,0.0,0.0,0.0,0.0,0.0,0.0,0.0,0.0,0.0,0.0,0.0,0.0,0.0,0.0,0.0,0.0,0.0,0.0,0.0,0.0,0.0,0.0,-1.371,-1.4978,0.0,-1.6847,-1.6691,-1.6386,-1.5714,-1.4346,-1.2052,0.0,0.0,0.0,0.0,0.0,0.0,0.0,0.0,0.0,0.0,0.0,0.0,0.0,0.0,0.0,0.0,0.0,0.0,0.0,0.0,0.0,0.0,0.0,0.0,0.0,0.0,0.0,0.0,0.0,0.0,0.0,0.0,0.0,0.0,0.0,0.0,0.0,0.0,0.0,0.0,0.0,0.0,0.0,0.0,0.0,0.0,0.0,0.0,0.0,0.0,0.0,0.0,0.0,0.0,0.0,0.0,0.0,0.0,0.0,0.0,0.0,0.0,0.0,0.0,0.0,0.0,0.0,0.0,0.0,0.0,0.0,0.0,0.0,0.0,0.0,0.0,0.0,0.0,0.0,0.0,0.0,0.0,0.0,0.0,0.0,0.0,0.0,0.0,0.0,0.0,0.0,0.0,0.0,0.0,0.0,0.0,0.0,0.0,0.0,0.0,0.0,0.0,-1.238,-1.3587,-1.4785,0.0,-1.6528,-1.6369,-1.6025,-1.528,-1.3957,-1.1866,0.0,0.0,0.0,0.0,0.0,0.0,0.0,0.0,0.0,0.0,0.0,0.0,0.0,0.0,0.0,0.0,0.0,0.0,0.0,0.0,0.0,0.0,0.0,0.0,0.0,0.0,0.0,0.0,0.0,0.0,0.0,0.0,0.0,0.0,0.0,0.0,0.0,0.0,0.0,0.0,0.0,0.0,0.0,0.0,0.0,0.0,0.0,0.0,0.0,0.0,0.0,0.0,0.0,0.0,0.0,0.0,0.0,0.0,0.0,0.0,0.0,0.0,0.0,0.0,0.0,0.0,0.0,0.0,0.0,0.0,0.0,0.0,0.0,0.0,0.0,0.0,0.0,0.0,0.0,0.0,0.0,0.0,0.0,0.0,0.0,0.0,0.0,0.0,0.0,0.0,0.0,0.0,0.0,0.0,0.0,0.0,0.0,0.0,0.0,0.0,0.0,0.0,-1.2252,-1.3829,-1.5114,-1.6173,-1.6301,-1.6258,-1.6203,-1.4246,-1.272,0.0,0.0,0.0,0.0,0.0,0.0,0.0,0.0,0.0,0.0,0.0,0.0,0.0,0.0,0.0,0.0,0.0,0.0,0.0,0.0,0.0,0.0,0.0,0.0,0.0,0.0,0.0,0.0,0.0,0.0,0.0,0.0,0.0,0.0,0.0,0.0,0.0,0.0,0.0,0.0,0.0,0.0,0.0,0.0,0.0,0.0,0.0,0.0,0.0,0.0,0.0,0.0,0.0,0.0,0.0,0.0,0.0,0.0,0.0,0.0,0.0,0.0,0.0,0.0,0.0,0.0,0.0,0.0,0.0,0.0,0.0,0.0,0.0,0.0,0.0,0.0,0.0,0.0,0.0,0.0,0.0,0.0,0.0,0.0,0.0,0.0,0.0,0.0,0.0,0.0,0.0,0.0,0.0,0.0,0.0,0.0,0.0,0.0,0.0,0.0,0.0,0.0,0.0,-1.2239,-1.3705,-1.4921,-1.6039,-1.6122,-1.5967,-1.574,-1.4688,-1.3391,-1.1815,0.0,0.0,0.0,0.0,0.0,0.0,0.0,0.0,0.0,0.0,0.0,0.0,0.0,0.0,0.0,0.0,0.0,0.0,0.0,0.0,0.0,0.0,0.0,0.0,0.0,0.0,0.0,0.0,0.0,0.0,0.0,0.0,0.0,0.0,0.0,0.0,0.0,0.0,0.0,0.0,0.0,0.0,0.0,0.0,0.0,0.0,0.0,0.0,0.0,0.0,0.0,0.0,0.0,0.0,0.0,0.0,0.0,0.0,0.0,0.0,0.0,0.0,0.0,0.0,0.0,0.0,0.0,0.0,0.0,0.0,0.0,0.0,0.0,0.0,0.0,0.0,0.0,0.0,0.0,0.0,0.0,0.0,0.0,0.0,0.0,0.0,0.0,0.0,0.0,0.0,0.0,0.0,0.0,0.0,0.0,0.0,0.0,0.0,0.0,0.0,0.0,0.0,-1.2123,-1.3493,-1.4673,-1.5775,-1.584,-1.5711,-1.5522,-1.4933,-1.3856,-1.2161,0.0,0.0,0.0,0.0,0.0,0.0,0.0,0.0,0.0,0.0,0.0,0.0,0.0,0.0,0.0,0.0,0.0,0.0,0.0,0.0,0.0,0.0,0.0,0.0,0.0,0.0,0.0,0.0,0.0,0.0,0.0,0.0,0.0,0.0,0.0,0.0,0.0,0.0,0.0,0.0,0.0,0.0,0.0,0.0,0.0,0.0,0.0,0.0,0.0,0.0,0.0,0.0,0.0,0.0,0.0,0.0,0.0,0.0,0.0,0.0,0.0,0.0,0.0,0.0,0.0,0.0,0.0,0.0,0.0,0.0,0.0,0.0,0.0,0.0,0.0,0.0,0.0,0.0,0.0,0.0,0.0,0.0,0.0,0.0,0.0,0.0,0.0,0.0,0.0,0.0,0.0,0.0,0.0,0.0,0.0,0.0,0.0,0.0,0.0,0.0,0.0,0.0,-1.1965,-1.3245,-1.4393,-1.549,-1.5566,-1.5522,-1.5507,-1.5017,-1.4122,-1.2781,0.0,0.0,0.0,0.0,0.0,0.0,0.0,0.0,0.0,0.0,0.0,0.0,0.0,0.0,0.0,0.0,0.0,0.0,0.0,0.0,0.0,0.0,0.0,0.0,0.0,0.0,0.0,0.0,0.0,0.0,0.0,0.0,0.0,0.0,0.0,0.0,0.0,0.0,0.0,0.0,0.0,0.0,0.0,0.0,0.0,0.0,0.0,0.0,0.0,0.0,0.0,0.0,0.0,0.0,0.0,0.0,0.0,0.0,0.0,0.0,-1.0583,0.0,0.0,0.0,0.0,0.0,0.0,0.0,0.0,0.0,0.0,0.0,0.0,0.0,0.0,0.0,0.0,0.0,0.0,0.0,0.0,0.0,0.0,0.0,0.0,0.0,0.0,0.0,0.0,0.0,0.0,0.0,0.0,0.0,0.0,0.0,0.0,0.0,0.0,0.0,0.0,0.0,-1.1956,-1.3168,-1.433,-1.562,-1.5741,-1.5682,-1.5595,-1.5031,-1.4109,-1.2706,-1.1911,0.0,0.0,0.0,0.0,0.0,0.0,0.0,0.0,0.0,0.0,0.0,0.0,0.0,0.0,0.0,0.0,0.0,0.0,0.0,0.0,0.0,0.0,0.0,0.0,0.0,0.0,0.0,0.0,0.0,0.0,0.0,0.0,0.0,0.0,0.0,0.0,0.0,0.0,0.0,0.0,0.0,0.0,0.0,0.0,0.0,0.0,0.0,0.0,0.0,0.0,0.0,0.0,0.0,0.0,0.0,0.0,0.0,0.0,0.0,0.0,-1.1401,0.0,0.0,0.0,0.0,0.0,0.0,0.0,0.0,0.0,0.0,0.0,0.0,0.0,0.0,0.0,0.0,0.0,0.0,0.0,0.0,0.0,0.0,0.0,0.0,0.0,0.0,0.0,0.0,0.0,0.0,0.0,0.0,0.0,0.0,0.0,0.0,0.0,0.0,0.0,0.0,-1.2013,-1.3418,-1.4663,-1.5694,-1.5799,-1.577,-1.5712,-1.5413,-1.4773,-1.3723,-1.3022,0.0,0.0,0.0,0.0,0.0,0.0,0.0,0.0,0.0,0.0,0.0,0.0,0.0,0.0,0.0,0.0,0.0,0.0,0.0,0.0,0.0,0.0,0.0,0.0,0.0,0.0,0.0,0.0,0.0,0.0,0.0,0.0,0.0,0.0,0.0,0.0,0.0,0.0,0.0,0.0,0.0,0.0,0.0,0.0,0.0,0.0,0.0,0.0,0.0,0.0,0.0,0.0,0.0,-1.2371,-1.3007,-1.4127,-1.4083,-1.4774,-1.5887,-1.3718,-1.287,-1.2989,0.0,0.0,0.0,0.0,0.0,0.0,0.0,0.0,0.0,0.0,0.0,0.0,0.0,0.0,0.0,0.0,0.0,0.0,0.0,0.0,0.0,0.0,0.0,0.0,0.0,-1.7118,-1.6941,0.0,0.0,0.0,0.0,0.0,0.0,0.0,0.0,0.0,0.0,0.0,0.0,-1.2396,-1.3849,-1.5065,-1.5724,-1.5799,-1.5799,-1.5799,-1.5799,-1.5514,-1.4841,-1.4231,-1.3321,0.0,0.0,0.0,0.0,0.0,0.0,0.0,0.0,0.0,0.0,0.0,0.0,0.0,0.0,0.0,0.0,0.0,0.0,0.0,0.0,0.0,0.0,0.0,0.0,0.0,0.0,0.0,0.0,0.0,0.0,0.0,0.0,-0.7771,-0.8627,0.0,0.0,0.0,0.0,0.0,0.0,0.0,0.0,0.0,0.0,0.0,0.0,0.0,-1.2733,-1.3971,-1.4501,-1.4951,-1.5345,-1.5742,-1.6026,-1.6194,-1.6211,-1.6295,-1.647,-1.5728,0.0,-1.4901,-1.4336,0.0,0.0,0.0,0.0,0.0,0.0,0.0,0.0,0.0,0.0,0.0,0.0,0.0,0.0,0.0,0.0,0.0,0.0,0.0,0.0,0.0,0.0,-1.8402,-1.7884,-1.8114,-1.8352,0.0,-1.5933,-1.391,-1.2941,-1.2323,0.0,0.0,0.0,0.0,0.0,0.0,0.0,-1.3623,-1.4375,-1.5065,-1.5724,-1.5799,-1.5799,-1.5799,-1.5799,-1.5514,-1.4841,-1.4707,-1.4062,-1.2714,-1.1939,0.0,0.0,0.0,0.0,0.0,0.0,0.0,0.0,0.0,0.0,0.0,0.0,0.0,0.0,0.0,0.0,0.0,0.0,0.0,0.0,0.0,0.0,0.0,0.0,0.0,0.0,0.0,0.0,0.0,-0.8115,-0.9268,-1.0325,-1.0495,-1.0245,0.0,0.0,0.0,0.0,0.0,0.0,0.0,0.0,0.0,-1.367,-1.4172,-1.4967,-1.6113,-1.6375,-1.6465,-1.645,-1.6655,-1.6708,-1.6613,-1.6717,-1.6945,-1.7257,-1.7166,-1.6917,-1.6442,-1.5346,-1.4339,-1.3476,0.0,0.0,0.0,0.0,-1.3076,-1.315,-1.4313,-1.4708,0.0,0.0,0.0,0.0,0.0,0.0,0.0,0.0,0.0,0.0,0.0,0.0,0.0,-1.8931,-1.9081,-1.923,-1.923,-1.7929,-1.6418,0.0,-1.5102,-1.4491,-1.2313,0.0,0.0,0.0,0.0,-1.391,-1.4491,-1.5659,-1.6533,-1.6847,-1.6518,-1.6308,-1.6308,-1.5994,-1.5679,-1.5379,-1.535,-1.4931,-1.3957,-1.3271,-1.2314,0.0,0.0,0.0,0.0,0.0,0.0,0.0,0.0,0.0,0.0,0.0,0.0,0.0,0.0,0.0,0.0,0.0,0.0,0.0,0.0,0.0,0.0,0.0,0.0,0.0,0.0,0.0,0.0,-0.9688,-1.0766,-1.1817,-1.2277,-1.218,0.0,0.0,0.0,0.0,0.0,0.0,-1.2822,-1.3764,-1.4767,-1.583,-1.6395,-1.7008,-1.7689,-1.77,-1.7494,-1.706,-1.706,-1.7002,-1.692,-1.7066,-1.7399,-1.7904,-1.8048,-1.7938,-1.7531,-1.6132,-1.516,-1.454,-1.4697,-1.4328,-1.3895,-1.5302,-1.5553,-1.5434,-1.7038,-1.7445,-1.7073,-1.6302,0.0,-1.5647,-1.4699,0.0,0.0,0.0,0.0,-1.7469,-1.844,-1.8832,-1.9076,-1.9567,-1.969,-1.9708,-1.9708,-1.9389,-1.8681,0.0,-1.7281,-1.6674,-1.3926,0.0,0.0,0.0,0.0,-1.5461,-1.5655,-1.6878,-1.7713,-1.7713,-1.7249,-1.6965,-1.6965,-1.6383,-1.6039,-1.6039,-1.5889,-1.5589,-1.508,-1.4408,-1.351,-1.2328,0.0,0.0,0.0,0.0,0.0,0.0,0.0,0.0,0.0,0.0,0.0,0.0,0.0,0.0,0.0,0.0,0.0,0.0,0.0,0.0,0.0,0.0,0.0,0.0,0.0,0.0,0.0,0.0,0.0,-1.2791,-1.3804,0.0,0.0,0.0,0.0,-1.349,-1.4357,-1.5131,-1.5658,-1.6646,-1.7427,-1.7939,-1.8483,-1.8691,-1.8545,-1.8556,-1.8175,-1.7461,-1.7461,-1.7554,-1.7739,-1.776,-1.7873,-1.8078,-1.8109,-1.8098,-1.7992,-1.7152,-1.6265,-1.5402,-1.5038,-1.4566,-1.4215,-1.5363,-1.5771,-1.5947,-1.7168,-1.7678,-1.7761,-1.7854,-1.7824,-1.7839,-1.8353,-1.8322,0.0,0.0,-1.9108,-1.9259,-1.9262,-1.9446,-1.9627,-1.9614,-1.965,-1.9708,-1.9708,-1.9914,-1.9827,0.0,-1.809,-1.7511,-1.6952,0.0,-1.6875,-1.6813,-1.6921,-1.7121,-1.7506,-1.7639,-1.7713,-1.7713,-1.7667,-1.7637,-1.7637,-1.704,-1.6636,-1.6636,-1.6114,-1.5784,-1.5754,-1.511,-1.4408,-1.3707,-1.2388,0.0,0.0,0.0,0.0,0.0,0.0,0.0,0.0,0.0,0.0,0.0,0.0,0.0,0.0,0.0,0.0,0.0,0.0,0.0,0.0,0.0,0.0,0.0,0.0,0.0,0.0,0.0,0.0,-1.5709,-1.6315,0.0,-1.5745,-1.613,-1.6094,-1.5292,-1.6268,-1.701,-1.7298,-1.7989,-1.8379,-1.8404,-1.8622,-1.8602,-1.8417,-1.8428,-1.8194,-1.7807,-1.7807,-1.7675,-1.741,-1.7562,-1.7638,-1.7747,-1.7935,-1.7958,-1.781,-1.7391,-1.7216,-1.7128,-1.6771,-1.6525,-1.637,-1.6618,-1.6699,-1.6834,-1.7734,-1.8137,-1.8298,-1.8561,-1.8567,-1.8474,-1.8429,-1.872,-1.9117,-1.9391,-1.9738,-2.012,-2.0429,-2.0356,-2.0202,-2.0179,-1.993,-1.9708,-1.9708,-1.9782,-1.9778,-1.9411,-1.9312,-1.8931,-1.7694,-1.7844,-1.7844,-1.6969,-1.7572,-1.8188,-1.8328,-1.8732,-1.8986,-1.8986,-1.8612,-1.8326,-1.8326,-1.7339,-1.6696,-1.6696,-1.6129,-1.5799,-1.5799,-1.5574,-1.5125,-1.4453,-1.3555,-1.2239,0.0,0.0,0.0,0.0,0.0,0.0,0.0,0.0,0.0,0.0,0.0,0.0,0.0,0.0,0.0,0.0,0.0,0.0,0.0,0.0,0.0,0.0,0.0,0.0,0.0,0.0,-1.5559,-1.7026,-1.7801,-1.8093,-1.783,-1.7998,-1.7942,-1.7545,-1.7974,-1.8375,-1.8677,-1.9224,-1.9315,-1.8864,-1.9089,-1.8912,-1.8253,-1.822,-1.8042,-1.7731,-1.7731,-1.7569,-1.7314,-1.7486,-1.7598,-1.7676,-1.7906,-1.794,-1.7799,-1.7672,-1.7783,-1.8017,-1.7512,-1.7199,-1.7101,-1.7105,-1.7175,-1.7341,-1.8321,-1.8735,-1.885,-1.9169,-1.9205,-1.9153,-1.9249,-1.9684,-2.0184,-2.0374,-2.0676,-2.1011,-2.1096,-2.0975,-2.0783,-2.0542,-2.0251,-1.9974,-1.9753,-1.9708,-1.9708,-1.9708,-1.9889,-1.9689,-1.8572,-1.8747,-1.8747,-1.7848,-1.8478,-1.9031,-1.9031,-1.9438,-1.9654,-1.9508,-1.923,-1.8979,-1.8838,-1.7736,-1.713,-1.7354,-1.6368,-1.5889,-1.6099,-1.5694,-1.5245,-1.4811,-1.3914,-1.2927,-1.1809,0.0,0.0,0.0,0.0,0.0,0.0,0.0,0.0,0.0,0.0,0.0,0.0,0.0,0.0,0.0,0.0,0.0,0.0,0.0,0.0,0.0,0.0,0.0,-1.257,-1.5477,-1.7351,-1.6612,-1.8142,-1.9319,-1.9426,-1.8686,-1.8792,-2.0182,-1.9449,-1.9247,-1.9901,-2.0412,-2.027,-1.9345,-1.9984,-1.9628,-1.8172,-1.8037,-1.7696,-1.7201,-1.7201,-1.7314,-1.7505,-1.7613,-1.7784,-1.7974,-1.8008,-1.8008,-1.7974,-1.8008,-1.8008,-1.793,-1.7048,-1.6484,-1.6225,-1.6787,-1.7064,-1.739,-1.8866,-1.9354,-1.9408,-1.9708,-1.9798,-2.0003,-2.1028,-2.1345,-2.1452,-2.1856,-2.2026,-2.193,-2.1241,-2.1287,-2.1346,-2.0612,-2.0584,-2.0524,-1.9869,-1.9723,-1.9708,-1.9708,-1.969,-1.969,-1.9708,-1.9708,-1.9708,-1.9708,-1.9708,0.0,-1.9708,-1.969,-1.953,-1.9157,-1.9472,-1.9545,-1.9157,-1.8254,-1.7981,-1.861,-1.6846,-1.6069,-1.6651,-1.5502,-1.4857,-1.4871,-1.3568,-1.3208,-1.3827,0.0,0.0,0.0,0.0,0.0,0.0,0.0,0.0,0.0,0.0,0.0,0.0,0.0,0.0,0.0,0.0,0.0,0.0,0.0,0.0,0.0,0.0,-1.5387,-1.55,-1.7088,-1.8523,-1.9211,-2.0146,-2.0607,-2.0307,-2.0307,-2.0185,-1.9824,-2.0132,-2.0434,-2.0616,-2.0645,-2.0295,-1.9544,-1.9203,-1.8533,-1.751,-1.7432,-1.727,-1.6968,-1.6968,-1.7151,-1.7505,-1.7529,-1.7623,-1.7784,-1.794,-1.794,-1.7784,-1.794,-1.8008,-1.7959,-1.7412,-1.7129,-1.7014,-1.6849,-1.689,-1.7177,-1.8136,-1.8568,-1.8857,-1.9448,-1.9734,-1.985,-2.0144,-2.0245,-2.0433,-2.1308,-2.1573,-2.1709,-2.224,-2.2155,-2.1888,-2.1691,-2.1084,-2.0495,-2.0321,-1.9979,-1.969,-1.9647,-1.9347,-1.9244,-1.9621,-1.9669,-1.9629,-1.9629,-1.9629,0.0,-1.9629,-1.9541,-1.949,-1.9527,-1.9596,-1.9596,-1.9545,-1.8593,-1.7873,-1.7634,-1.6391,-1.5851,-1.6324,-1.6048,-1.5979,-1.6174,-1.5381,-1.4839,0.0,0.0,0.0,0.0,0.0,0.0,0.0,0.0,0.0,0.0,0.0,0.0,0.0,0.0,0.0,0.0,0.0,0.0,0.0,0.0,0.0,0.0,-1.5404,-1.6992,-1.7791,-1.852,-1.9328,-2.0362,-2.0583,-2.0823,-2.1226,-2.0808,-2.0556,-2.0689,-2.0831,-2.1012,-2.1296,-2.0934,-2.0366,-1.9628,-1.8867,-1.8193,-1.7567,-1.7427,-1.7406,-1.752,-1.752,-1.7662,-1.7875,-1.7956,-1.7957,0.0,-1.8064,-1.7958,-1.7706,-1.794,-1.8008,0.0,0.0,0.0,0.0,0.0,-1.7349,-1.7835,-1.8574,-1.913,-1.9588,-1.9867,-2.0031,-2.0164,-2.0156,-2.0131,-2.0295,-2.1151,-2.1393,-2.1599,-2.2394,-2.2405,-2.2156,-2.2126,-2.1665,-2.1109,-2.0562,-2.0057,-1.9652,-1.9546,-1.9124,0.0,-1.9295,-1.9328,-1.938,-1.9574,-1.9417,-1.9306,-1.9265,-1.903,-1.8865,-1.885,-1.8974,-1.9011,-1.8907,-1.8268,0.0,0.0,0.0,-1.6278,-1.6401,-1.6447,0.0,0.0,0.0,0.0,0.0,0.0,0.0,0.0,-1.5664,-1.5437,0.0,0.0,0.0,0.0,0.0,0.0,0.0,0.0,0.0,0.0,0.0,0.0,0.0,0.0,0.0,0.0,-1.6775,-1.7948,-1.9333,-1.9517,-1.9773,-2.0433,-2.0195,-2.0527,-2.1883,-2.069,-2.0455,-2.1994,-2.1434,-2.1303,-2.1901,0.0,0.0,0.0,0.0,-1.8287,-1.8076,-1.7719,-1.7815,-1.8369,-1.8369,-1.8369,-1.8406,-1.8573,-1.8475,-1.8188,-1.8247,-1.8069,-1.7773,-1.7915,-1.7974,-1.8008,-1.8008,-1.7783,-1.7501,-1.7704,-1.8133,-1.8763,-1.9563,0.0,0.0,-2.0563,-2.0605,-2.0772,-2.0707,-2.0666,-2.0726,-2.1258,-2.135,-2.1417,-2.1969,-2.2203,-2.2232,-2.2069,-2.2112,-2.1867,-2.0684,-2.009,-1.9706,-1.9447,-1.8994,-1.8667,-1.8831,-1.8855,-1.9001,-1.9362,-1.9072,-1.8774,-1.8712,-1.8336,-1.8001,-1.7787,0.0,0.0,-1.7888,-1.7645,-1.7876,-1.8787,-1.7773,-1.7028,-1.6794,-1.6948,-1.701,-1.6936,-1.701,-1.7578,-1.8702,-1.8777,-1.9106,-1.9633,-1.6713,-1.6278,0.0,0.0,0.0,0.0,0.0,0.0,0.0,0.0,0.0,0.0,0.0,0.0,0.0,0.0,0.0,-1.5675,-1.733,-1.8646,-1.9057,-1.9063,-1.9246,-1.9806,-2.0587,-2.1033,-2.091,-2.1001,-2.1186,-2.1522,-2.1789,-2.2015,-2.2154,-2.0944,0.0,-1.977,-1.8523,-1.7849,-1.7872,-1.7764,-1.786,-1.8156,0.0,0.0,-1.8406,-1.8443,-1.8479,-1.8578,-1.8264,-1.8171,-1.8181,-1.7894,-1.7862,-1.8008,-1.8008,-1.7959,-1.7939,-1.853,-1.8622,-1.8628,-1.9801,-2.0221,-2.0342,-2.0754,-2.1095,-2.1333,-2.1329,-2.1015,0.0,-2.1251,-2.1089,-2.087,-2.1431,-2.1898,-2.2105,-2.1637,-2.1549,-2.1387,-2.072,-2.0456,-2.0158,-1.9521,-1.9097,-1.8808,-1.8682,-1.8655,-1.8616,-1.8414,-1.8271,-1.8167,-1.8167,-1.7988,-1.7948,-1.8167,-1.8108,-1.8127,-1.8344,-1.7819,-1.7436,-1.7265,-1.7311,-1.7321,-1.7263,-1.8458,-1.8867,-1.8311,-1.8852,-1.8986,-1.8702,-1.9226,-1.9573,-1.9693,-1.9049,-1.8959,0.0,0.0,0.0,0.0,0.0,0.0,0.0,0.0,0.0,0.0,0.0,-1.248,-1.3432,0.0,-1.6268,-1.7245,-1.824,-1.9023,-1.9359,-1.9585,-1.9834,-2.0118,-2.0191,-2.0411,-2.0953,-2.0999,-2.1202,-2.1771,-2.2041,-2.2197,-2.2197,-2.1178,-2.0344,-1.9825,-1.869,-1.8083,-1.8098,-1.8008,-1.8193,-1.8715,-1.8715,-1.8753,-1.8859,-1.8859,-1.8795,-1.8676,-1.8583,-1.8478,-1.8324,-1.804,-1.7873,-1.7862,-1.7862,-1.7896,-1.8042,-1.8371,-1.8578,-1.8833,-1.9863,-2.048,-2.0925,-2.1277,-2.1638,-2.1845,-2.1568,-2.1131,-2.0745,-2.0986,-2.063,-2.0321,-2.087,-2.1188,-2.1396,-2.1393,-2.1389,-2.1241,-2.0624,-2.0334,-2.0006,-1.9525,-1.9122,-1.876,-1.8453,-1.8337,-1.8249,-1.8075,-1.7834,-1.7632,-1.7585,-1.7338,-1.7235,-1.7475,-1.7413,-1.7434,-1.7679,-1.7578,-1.7424,-1.7249,-1.7633,-1.7888,-1.7946,-1.8879,-1.9236,-1.8909,-1.9421,-1.9543,-1.9196,-1.9543,-1.9708,-1.9708,-2.0034,-2.0019,0.0,0.0,0.0,0.0,0.0,0.0,0.0,0.0,-1.0639,-1.1699,-1.3086,-1.4396,-1.5405,-1.6314,-1.7327,-1.8598,-1.8921,-1.9145,-1.9581,-2.0029,-2.0283,-2.0283,-1.963,-1.9719,-2.112,-2.0844,-2.1043,-2.2113,-2.2197,-2.2197,-2.2197,-2.1463,-2.0679,-1.9889,-1.9024,-1.8551,-1.8481,-1.8313,-1.8595,-1.9301,-1.9301,-1.9301,-1.9301,-1.9301,-1.9127,-1.8825,-1.8953,-1.876,-1.8369,-1.8175,-1.7983,-1.7797,-1.7735,-1.7818,-1.8008,-1.8144,-1.8519,-1.911,-1.9998,-2.0869,-2.1588,-2.1825,-2.212,-2.231,-2.1888,-2.1403,-2.0966,-2.088,-2.044,-2.0053,-2.0359,-2.051,-2.0671,-2.1004,-2.1175,-2.1078,-2.0428,-2.0096,-1.9866,-1.9596,-1.9252,-1.8852,-1.8398,-1.8152,-1.7961,-1.7787,-1.7407,-1.7118,-1.706,-1.6723,-1.6543,-1.6675,-1.6675,-1.6697,-1.6812,-1.7178,-1.7413,-1.7496,-1.8008,-1.8344,-1.8461,-1.886,-1.9139,-1.9213,-1.9472,-1.9695,-1.9902,-1.9902,-1.9944,-2.0112,-2.0647,-2.0543,-0.4746,-0.5932,-0.7196,-0.7878,-0.8395,-0.9577,0.0,0.0,-1.3685,-1.6127,-1.68,-1.6955,-1.6965,-1.7553,-1.8048,-1.8091,-1.8602,-1.9032,-1.9081,-1.9146,-1.9172,-1.9172,-1.95,-1.9973,-2.0637,-2.0632,-2.1048,-2.2113,-2.2197,-2.2197,-2.2197,-2.138,-2.0641,-2.0092,-1.929,-1.8785,-1.867,-1.8641,-1.8871,-1.9301,-1.9301,-1.9301,-1.9301,-1.9301,-1.9274,-1.9219,-1.9073,-1.876,-1.8369,-1.8175,-1.8154,-1.8219,-1.7825,-1.7818,-1.8076,-1.8654,-1.8944,-1.9199,-2.0549,-2.1198,-2.1502,-2.212,-2.2488,-2.267,-2.2717,-2.2379,-2.1861,-2.1515,-2.1031,-2.0478,-2.0014,-2.0232,-2.051,-2.008,-2.0346,-2.0534,-2.0004,-2.0218,-2.0348,-1.9797,-1.9679,-1.9473,-1.8842,-1.8418,-1.7867,-1.6978,-1.6693,-1.6586,-1.6586,-1.6543,-1.6543,-1.6675,-1.6599,-1.6522,-1.6543,-1.6799,-1.6918,-1.6825,-1.776,-1.8305,-1.8324,-1.8822,-1.9269,-1.9636,-1.9325,-1.9637,-2.0583,-2.0583,-2.0902,-2.147,-2.1545,-2.1231,-0.7011,-0.7935,-0.879,0.0,-1.1077,-1.2322,-1.3278,-1.4169,-1.5112,-1.6239,-1.6931,-1.7404,-1.7642,-1.8211,-1.861,0.0,-1.8776,-1.8987,-1.8987,-1.8987,-1.8987,-1.8987,-1.9198,-1.9678,-2.0519,-2.0603,-2.1048,-2.2113,-2.2197,-2.2197,-2.2197,-2.1702,-2.1029,-2.0143,-1.964,-1.9158,-1.8705,-1.8715,-1.8907,-1.9301,-1.9301,-1.9301,-1.9301,-1.9301,-1.9301,-1.9292,-1.9206,-1.895,-1.8544,-1.8212,-1.8123,-1.8164,-1.7983,-1.7946,-1.8042,-1.8303,-1.8654,-1.9144,-2.0161,-2.0901,-2.1514,-2.2192,-2.2555,-2.2708,-2.2769,-2.2374,-2.1893,-2.1716,-2.1331,-2.0867,-2.0305,-2.0393,-2.05,-1.9938,-1.9978,-2.008,-1.985,-1.9978,-2.0054,-1.9799,-1.9786,-1.9608,-1.9023,-1.8778,-1.8417,-1.7672,-1.7247,-1.6898,-1.6538,-1.65,-1.6522,-1.6577,-1.6522,-1.65,-1.65,-1.6607,-1.6811,-1.7128,-1.7583,-1.8028,-1.8515,-1.9,-1.9522,-2.0036,-2.011,-2.0528,-2.1291,-2.1291,-2.1425,-2.171,-2.2104,-2.2113,-0.8408,-0.9385,0.0,-1.1291,-1.2956,-1.418,-1.3652,-1.4705,-1.5892,-1.6295,-1.677,-1.7268,-1.7847,-1.8284,-1.856,-1.8519,-1.8797,-1.8987,-1.8987,-1.8987,-1.8987,-1.8987,-1.8987,-1.936,-2.0298,-2.0502,-2.0971,-2.1909,-2.1916,-2.1894,-2.1894,-2.1552,-2.0928,-2.001,-1.9818,-1.9443,-1.8871,-1.8871,-1.9017,-1.9301,-1.9301,-1.9301,-1.9301,-1.9301,-1.9301,-1.9301,-1.9301,-1.9136,-1.8843,-1.8411,-1.8332,-1.8398,-1.8207,-1.8142,-1.813,-1.8057,-1.8303,-1.8821,-1.954,-2.0226,-2.0869,-2.1776,-2.213,-2.2297,-2.2555,-2.2304,-2.1937,-2.182,-2.1634,-2.129,-2.0583,-2.0544,-2.0541,-1.9936,-1.9798,-1.9798,-1.9798,-1.9798,-1.9798,-1.9798,-1.9798,-1.9685,-1.9284,-1.9221,-1.9033,-1.8505,-1.8091,-1.7626,-1.7039,-1.6964,-1.6964,-1.6964,-1.6964,-1.6964,-1.6964,-1.7008,-1.7238,-1.772,-1.7926,-1.83,-1.8875,-1.9243,-1.9765,-2.0451,-2.0641,-2.1152,-2.1984,-2.1828,-2.1917,-2.2233,-2.2587,-2.2816,-0.805,0.0,-1.1433,-1.1866,-1.3041,-1.4299,-1.4987,-1.5427,-1.6098,-1.7532,-1.7198,-1.6848,-1.7655,-1.7667,-1.7627,-1.7794,-1.8505,-1.8987,-1.8987,-1.8987,-1.8987,-1.8987,-1.8987,-1.923,0.0,-2.0298,-2.0839,-2.1392,-2.1245,-2.1123,-2.1123,-2.0555,-2.0073,-1.9725,-1.976,-1.9621,-1.9274,-1.9283,-1.9292,-1.9301,-1.9301,-1.9301,-1.9301,-1.9301,-1.9301,-1.9301,-1.9301,-1.9292,-1.9256,-1.8861,-1.8917,-1.9175,-1.8398,-1.8315,-1.8529,-1.812,-1.8008,-1.8144,-1.8821,-1.9044,-1.9299,-2.0698,-2.1123,-2.1325,-2.2161,-2.2408,-2.2317,-2.19,-2.193,-2.1815,-2.0682,-2.0544,-2.0541,-1.9936,-1.9798,-1.9798,-1.9798,-1.9798,-1.9798,-1.9798,-1.9798,-1.9798,-1.9786,-1.9773,-1.9597,-1.9058,-1.8958,-1.8757,-1.8229,-1.8154,-1.8154,-1.8154,-1.8154,-1.8154,-1.8154,-1.8259,-1.8353,-1.8378,-1.8966,-1.9342,-1.9391,-1.9526,-2.0006,-2.0864,-2.0514,-2.1089,-2.2673,-2.2146,-2.246,-2.3535,-2.3106,-2.315,-1.0201,0.0,-1.2225,-1.3431,-1.4353,-1.4979,-1.505,-1.5453,-1.5912,-1.6181,-1.6022,-1.5903,-1.6218,-1.665,-1.7056,-1.7298,-1.7963,-1.859,-1.8939,-1.9314,-1.9411,-1.9035,-1.9624,0.0,0.0,0.0,0.0,-2.1332,-2.0887,-2.0854,-2.1529,-2.0614,-2.0068,-2.0102,-1.9803,-1.9556,-1.9301,-1.9301,-1.9301,-1.9301,-1.9301,-1.9301,-1.9301,-1.9301,-1.9301,-1.9301,-1.9301,-1.9381,-1.9481,-1.9064,-1.9126,-1.9459,-1.8904,-1.8646,-1.8588,-1.8442,-1.8217,-1.811,-1.8787,-1.9309,-1.9868,-2.0805,-2.1092,-2.1262,-2.2018,-2.2278,-2.2242,-2.2091,-2.2183,-2.2163,-2.1514,-2.1188,-2.0889,-2.038,-1.9969,-1.9656,-1.9656,-1.9656,-1.9682,-1.9773,-1.9798,-1.9798,-1.9798,-1.9798,-1.9748,-1.9572,-1.8945,-1.8405,-1.8229,-1.8204,-1.8204,-1.8204,-1.8204,-1.8204,-1.8204,-1.8251,-1.8474,-1.89,-1.9059,-1.9429,-2.0085,-2.0036,-2.0385,-2.1232,-2.1116,-2.1614,-2.2827,-2.2636,-2.293,-2.3595,-2.3443,-2.3443,-1.0913,-1.161,-1.2263,-1.3784,-1.4535,-1.4897,-1.4816,-1.511,-1.5364,-1.5323,-1.4861,-1.4602,-1.5148,-1.5612,-1.602,-1.6362,-1.7232,-1.8097,-1.8697,-1.914,-1.9404,-1.9455,-2.0081,-2.0397,0.0,0.0,0.0,-2.0949,-2.0291,-2.0124,-2.0754,-1.9998,-1.9577,-1.9705,-1.9561,-1.9429,-1.9301,-1.9301,-1.9301,-1.9301,-1.9301,-1.9301,-1.9301,-1.9301,-1.9301,-1.9301,-1.9301,-1.939,-1.946,-1.9221,-1.9303,-1.9544,-1.9174,-1.8893,-1.8715,-1.856,-1.8438,-1.8395,-1.8596,-1.911,-1.9835,-2.0516,-2.0901,-2.123,-2.1987,-2.2197,-2.2197,-2.2197,-2.2309,-2.2299,-2.1841,-2.1571,-2.1292,-2.0788,-2.0244,-1.9836,-1.9876,-1.9753,-1.963,-1.9708,-1.9734,-1.9734,-1.9734,-1.9773,-1.9798,-1.9798,-1.9208,-1.8781,-1.8781,-1.8781,-1.8781,-1.8781,-1.8781,-1.8781,-1.8781,-1.8781,-1.8957,-1.9396,-1.9384,-1.9674,-2.0359,-2.0347,-2.0723,-2.1688,-2.166,-2.2156,-2.3157,-2.2979,-2.3068,-2.3355,-2.3143,-2.3171,-1.0304,-1.0937,-1.1748,-1.3076,-1.3726,-1.4094,-1.441,-1.4417,-1.4505,-1.4964,-1.3779,-1.3057,0.0,0.0,-1.4611,-1.5082,-1.6365,-1.7562,-1.8357,-1.8629,-1.9149,0.0,0.0,0.0,0.0,0.0,0.0,-2.0193,0.0,-1.9,-1.9042,-1.8828,-1.8702,-1.8721,-1.9101,-1.9301,-1.9301,-1.9301,-1.9301,-1.9301,-1.9301,-1.9301,-1.9301,-1.9301,-1.9301,-1.9301,-1.9301,-1.9301,-1.9301,-1.9301,-1.9429,-1.9569,-1.916,-1.9024,-1.8985,-1.8552,-1.8686,-1.8983,-1.8377,-1.8549,-1.9177,-1.9901,-2.0581,-2.123,-2.1987,-2.2197,-2.2197,-2.2197,-2.2278,-2.2268,-2.177,-2.1719,-2.1648,-2.1133,-2.0606,-2.0256,-2.0355,-1.9973,-1.9615,-1.9591,-1.9617,-1.9617,-1.9617,-1.9734,-1.9798,-1.9798,-1.9798,-1.9798,-1.9798,-1.9798,-1.9798,-1.9798,-1.9798,-1.9798,-1.9798,-1.9798,-1.9798,-1.9811,-1.9926,-2.0067,-2.0207,-2.0398,-2.0997,-2.2114,-2.2072,-2.2543,-2.3486,-2.3068,-2.2881,-2.2933,-2.244,-2.2531,-1.1212,-1.22,-1.3116,-1.3517,-1.407,-1.4446,-1.4131,-1.4051,-1.3849,-1.3185,-1.2688,-1.2248,0.0,0.0,0.0,-1.445,-1.5954,0.0,-1.9029,-1.951,0.0,-2.0117,0.0,-2.1,-2.0095,-1.9726,0.0,0.0,-1.8736,-1.8781,-1.9486,-1.8994,-1.8825,-1.9137,-1.924,-1.9301,-1.9301,-1.9301,-1.9301,-1.9301,-1.9301,-1.9301,-1.9301,-1.9301,-1.9301,-1.9301,-1.9301,-1.939,-1.9518,-1.9518,-1.9636,-1.9786,-1.9381,-1.9307,-1.9483,-1.9667,-1.9879,-2.0111,-2.0143,-2.0004,-1.9933,-2.0613,-2.0965,-2.123,-2.1987,-2.2197,-2.2197,-2.2197,-2.2216,-2.2242,-2.2201,-2.1922,-2.1611,-2.1477,-2.1039,-2.0539,-2.0181,-1.9985,-1.9805,-1.9494,-1.9539,-1.963,-1.9734,-1.9773,-1.9798,-1.9798,-1.9798,-1.9798,-1.9798,-1.9798,-1.9798,-1.9798,-1.9798,-1.9798,-1.9798,-1.9798,-1.9837,-1.9926,-1.9901,-2.0029,-2.041,-2.0322,-2.0536,-2.1057,-2.141,-2.1708,-2.1969,-2.2189,-2.2778,-2.3647,-2.3493,-2.3981,-1.1657,-1.2389,-1.3059,-1.367,-1.3868,-1.387,-1.3689,-1.3369,-1.2844,-1.1957,-1.1477,0.0,-1.0369,0.0,0.0,0.0,0.0,0.0,-1.8728,-1.9385,-1.9952,0.0,-2.1187,0.0,-2.0241,-1.9824,-1.9332,0.0,-1.8231,-1.8245,-1.8916,-1.8694,-1.8713,-1.9023,-1.9203,-1.9301,-1.9301,-1.9301,-1.9301,-1.9301,-1.9301,-1.9301,-1.9301,-1.9301,-1.9301,-1.9301,0.0,-1.9341,-1.9469,-1.9469,-1.9548,-1.9599,-1.9501,-1.9678,-2.0023,-2.0366,-2.0887,-2.1483,-2.1631,-2.1551,-2.1337,-2.1172,-2.1325,-2.1663,-2.2061,-2.2197,-2.2197,-2.2197,-2.2197,-2.2216,-2.2278,-2.2079,-2.1862,-2.1862,-2.1451,-2.0991,-2.0762,-2.0337,-1.9867,-1.9399,-1.9368,-1.9473,-1.9617,-1.9656,-1.9734,-1.9798,-1.9798,-1.9798,-1.9798,-1.9798,-1.9798,-1.9798,-1.9798,-1.9798,-1.9798,-1.9798,-1.9824,-1.9901,-1.9837,-1.9965,-2.0347,-2.0258,-2.046,-2.0997,-2.1277,-2.1629,-2.2093,-2.2644,-2.324,-2.3942,-2.4235,-2.4689,-1.1838,-1.2064,-1.2413,-1.364,-1.3473,-1.3081,-1.3205,-1.2606,-1.1803,-1.1084,0.0,-0.9691,-0.9656,-1.0871,-1.1991,-1.2331,0.0,-1.6601,-1.8053,-1.8789,-1.9685,-2.1105,-2.1259,-2.1028,-2.059,-1.9857,-1.9133,-1.8509,-1.7818,-1.7564,-1.7906,-1.8163,-1.8461,-1.8694,-1.9071,-1.9301,-1.9301,-1.9301,-1.9301,-1.9301,-1.9301,-1.9301,-1.9301,-1.9301,-1.9301,-1.9301,0.0,0.0,-1.9301,-1.9301,-1.9301,-1.9341,-1.9597,-2.0053,-2.0609,-2.1018,-2.1872,-2.2891,-2.2924,-2.3022,-2.2895,-2.1731,-2.1753,-2.2197,-2.2197,-2.2197,-2.2197,-2.2197,-2.2197,-2.2197,-2.2197,-2.2197,-2.2197,-2.2197,-2.1849,-2.1518,-2.1553,-2.0782,-1.9922,-1.9415,-1.9305,-1.9334,-1.938,-1.9512,-1.963,-1.9759,-1.9798,-1.9798,-1.9798,-1.9798,-1.9798,-1.9798,-1.9798,-1.9798,-1.9798,-1.9798,-1.9798,-1.9798,-1.9798,-1.9914,-2.0156,-2.0182,-2.0573,-2.1361,-2.1539,-2.208,-2.3017,-2.3707,-2.4105,-2.4264,-2.4704,-2.506,-1.1852,-1.2388,-1.2948,-1.345,-1.365,-1.3568,-1.2947,-1.2183,0.0,0.0,-0.9607,-0.905,-0.8451,-0.9637,-1.104,-1.2141,0.0,0.0,0.0,0.0,-1.9471,0.0,0.0,0.0,0.0,0.0,0.0,0.0,0.0,-1.7185,-1.7573,-1.7793,-1.8146,-1.8672,-1.9102,-1.9301,-1.9301,-1.9301,-1.9301,-1.9301,-1.9301,-1.9301,-1.9301,-1.9301,-1.9301,-1.9301,-1.9301,0.0,-1.9301,-1.9301,-1.9301,-1.9381,-2.0079,-2.0604,-2.1176,-2.2546,-2.3383,-2.3905,-2.4105,-2.3948,-2.3544,-2.2874,-2.2452,-2.2197,-2.2197,-2.2197,-2.2197,-2.2197,-2.2197,-2.2197,-2.2197,-2.2197,-2.2197,-2.2197,-2.2125,-2.1933,-2.153,-2.0945,-2.037,-1.9934,-1.9864,-1.9772,-1.9442,-1.9512,-1.9617,-1.963,-1.9734,-1.9798,-1.9798,-1.9798,-1.9798,-1.9798,-1.9798,-1.9798,-1.9798,-1.9798,-1.9798,-1.9798,-1.9798,-1.9862,-2.0042,-2.0131,-2.0523,-2.1213,-2.2273,-2.2895,-2.3104,-2.4192,-2.5019,-2.5568,-2.5172,-2.5758,-1.2471,-1.3078,-1.358,-1.3773,-1.3693,-1.3277,-1.2095,0.0,0.0,0.0,-0.8704,-0.8354,-0.7797,-0.9013,0.0,-1.0983,-1.296,0.0,0.0,0.0,0.0,0.0,0.0,0.0,0.0,0.0,0.0,0.0,0.0,-1.7081,-1.747,-1.7692,-1.7971,-1.8394,-1.8788,-1.8999,-1.8999,-1.9201,-1.9301,-1.9301,-1.9301,-1.9301,-1.9301,-1.9301,-1.9301,-1.9301,-1.9301,0.0,-1.9341,-1.9766,-1.9687,-1.9381,-2.0352,-2.1106,-2.1838,-2.2702,-2.3745,-2.4743,-2.4871,-2.4422,-2.3758,-2.3505,-2.2847,-2.2197,-2.2197,-2.2197,-2.2197,-2.2197,-2.2197,-2.2197,-2.2197,-2.2197,-2.2197,-2.2197,-2.2197,-2.2053,-2.1512,-2.1187,-2.088,-2.0407,-2.0108,-1.9858,-1.9738,-1.9578,-1.9512,-1.9591,-1.9708,-1.9798,-1.9798,-1.9798,-1.9798,-1.9798,-1.9798,-1.9798,-1.9798,-1.9798,-1.9798,-1.9798,-1.9798,-1.9862,-1.999,-2.0131,-2.0539,-2.1245,-2.1916,-2.2564,-2.3148,-2.405,-2.4812,-2.543,-2.5416,-2.585,-1.2917,-1.3541,-1.3999,-1.416,-1.3737,-1.2919,-1.1431,-1.0684,0.0,0.0,-0.7976,-0.7779,-0.7476,0.0,-0.9503,0.0,-1.1971,-1.4083,-1.5782,0.0,0.0,0.0,0.0,0.0,0.0,0.0,0.0,0.0,0.0,0.0,-1.7358,-1.7612,-1.7805,-1.7981,-1.8375,-1.8623,-1.8715,-1.9017,-1.9219,-1.9301,-1.9301,-1.9301,-1.9301,-1.9301,-1.9301,-1.9301,-1.9301,0.0,0.0,-2.0001,-1.9883,-1.942,-2.043,-2.1298,-2.2027,-2.259,-2.3599,-2.4791,-2.5158,-2.4523,-2.3561,-2.3727,-2.3083,-2.2197,-2.2197,-2.2197,-2.2197,-2.2197,-2.2197,-2.2197,-2.2197,-2.2197,-2.2197,-2.2197,-2.2197,-2.2077,-2.1668,-2.1572,-2.1416,-2.0887,-2.043,-2.0149,-2.0136,-1.9924,-1.9791,-1.9885,-2.0057,-2.0125,-1.9999,-1.9987,-1.9936,-1.9811,-1.9798,-1.9798,-1.9798,-1.9798,-1.9798,-1.9798,-1.9911,-2.0051,-2.0142,-2.0424,-2.0888,-2.1589,-2.2036,-2.2724,-2.374,-2.449,-2.5105,-2.5564,-2.5851,-2.6054,-1.2447,-1.3186,-1.3911,-1.4371,-1.3873,-1.2965,-1.1742,0.0,0.0,-0.8345,-0.775,-0.7457,-0.7485,-0.7763,0.0,0.0,0.0,-1.2392,-1.5104,-1.6733,0.0,0.0,0.0,0.0,0.0,0.0,0.0,0.0,0.0,0.0,-1.6943,-1.732,-1.7549,-1.755,-1.7963,-1.831,-1.8705,-1.8751,-1.8944,-1.9301,-1.9301,-1.9301,-1.9301,-1.9301,-1.9301,-1.9301,-1.9301,0.0,0.0,-1.9381,-1.9381,-1.9381,-2.0196,-2.0692,-2.1135,-2.2813,-2.3184,-2.3073,-2.4743,-2.4153,-2.282,-2.3561,-2.3083,-2.2197,-2.2197,-2.2197,-2.2197,-2.2197,-2.2197,-2.2197,-2.2197,-2.2197,-2.2197,-2.2197,-2.2197,-2.2173,-2.2125,-2.2125,-2.1969,-2.144,-2.1296,-2.1103,-2.0622,-2.0706,-2.0855,-2.0883,-2.1135,-2.1182,-2.0679,-2.0616,-2.0415,-1.9861,-1.9798,-1.9798,-1.9798,-1.9798,-1.9798,-1.9798,-2.0314,-2.0616,-2.0643,-2.1353,-2.1988,-2.2565,-2.3953,-2.4928,-2.5466,-2.6703,-2.7297,-2.7357,-2.6852,-2.6904,-1.2691,-1.3611,-1.425,-1.3872,-1.3534,-1.2808,-1.0953,0.0,-0.9441,-0.8118,-0.7613,-0.7411,-0.749,-0.7661,-0.8091,0.0,0.0,0.0,-1.2968,0.0,0.0,0.0,0.0,0.0,0.0,0.0,0.0,0.0,0.0,0.0,-1.6908,-1.7055,-1.7138,-1.7138,-1.7743,-1.8164,-1.8319,-1.8595,-1.8907,-1.9292,-1.9063,-1.9072,-1.9301,-1.9301,-1.9301,-1.9301,-1.9301,0.0,0.0,-1.9805,-1.9726,-1.9411,-2.076,-2.1068,-2.1019,-2.2813,-2.3404,-2.3444,-2.4378,-2.4008,-2.3156,-2.3159,-2.2627,-2.203,-2.2154,-2.2197,-2.2197,-2.2197,-2.2197,-2.2197,-2.2197,-2.2197,-2.2197,-2.2197,-2.2197,-2.2197,-2.2197,-2.2197,-2.2125,-2.1921,-2.162,-2.1344,-2.1127,-2.1034,-2.1002,-2.1002,-2.1285,-2.1405,-2.1219,-2.1182,-2.1106,-2.084,-2.0213,-1.9936,-2.0314,-2.0352,-2.049,-2.079,-2.1056,-2.1222,-2.1291,-2.1686,-2.2382,-2.3393,-2.4108,-2.4894,-2.5751,-2.6261,-2.6522,-2.6522,-2.6283,-2.6283,-1.2645,-1.3648,-1.425,-1.3571,-1.322,-1.2489,0.0,-0.9863,-0.9282,-0.794,-0.7549,-0.746,-0.749,-0.7599,-0.7865,-0.8415,0.0,-1.0146,-1.1749,-1.3052,0.0,0.0,0.0,0.0,0.0,0.0,0.0,0.0,0.0,0.0,0.0,-1.6908,-1.6908,-1.6908,-1.7458,-1.7844,-1.8091,-1.8365,-1.8788,-1.9292,-1.9017,-1.9036,-1.9301,-1.9301,-1.9301,-1.9301,0.0,0.0,0.0,-1.9923,-1.9805,-1.946,-2.0837,-2.1106,-2.0952,-2.2776,-2.3379,-2.3408,-2.419,-2.3847,-2.3043,-2.2956,-2.2484,-2.1925,-2.2123,-2.2197,-2.2197,-2.2197,-2.2197,-2.2197,-2.2197,-2.2197,-2.2197,-2.2197,-2.2197,-2.2197,-2.2197,-2.2197,-2.2197,-2.2197,-2.1897,-2.1644,-2.1644,-2.1545,-2.1493,-2.1493,-2.177,-2.192,-2.1757,-2.1732,-2.1669,-2.1506,-2.0778,-2.0464,-2.0905,-2.0943,-2.1106,-2.1496,-2.1644,-2.1816,-2.1957,-2.225,-2.2957,-2.4106,-2.4436,-2.5078,-2.6068,-2.6242,-2.6322,-2.6322,-2.6322,-2.6322,-1.199,-1.2984,-1.3722,-1.3712,-1.3002,-1.2005,-1.0858,-0.9932,-0.8978,-0.7842,-0.7603,-0.7574,-0.7519,-0.744,-0.7645,-0.8386,-0.8847,0.0,-1.2078,-1.3149,0.0,0.0,0.0,0.0,0.0,0.0,0.0,0.0,0.0,0.0,0.0,-1.6908,-1.6908,-1.6908,-1.6917,-1.7312,-1.8081,-1.8091,-1.8522,-1.9301,-1.9292,-1.9292,-1.9301,-1.9301,-1.9301,0.0,0.0,0.0,0.0,-1.9301,-1.9301,-1.9381,-2.0196,-2.0498,-2.0731,-2.2611,-2.2809,-2.236,-2.4177,-2.3582,-2.2195,-2.3169,-2.2781,-2.1925,-2.2123,-2.2197,-2.2197,-2.2197,-2.2197,-2.2197,-2.2197,-2.2197,-2.2197,-2.2197,-2.2197,-2.2197,-2.2197,-2.2197,-2.2197,-2.2197,-2.2185,-2.2185,-2.2185,-2.2451,-2.2665,-2.2665,-2.2914,-2.2895,-2.2372,-2.2297,-2.2096,-2.1543,-2.1481,-2.1468,-2.1481,-2.1481,-2.1481,-2.1493,-2.1995,-2.2367,-2.2595,-2.3233,-2.3943,-2.4667,-2.5412,-2.6081,-2.6709,-2.728,-2.7575,-2.7575,-2.7575,-2.7575,-1.0777,-1.1611,-1.2194,-1.1584,-1.1462,-1.1101,-0.9687,-0.9336,-0.8995,-0.7898,-0.7563,-0.7475,-0.7505,-0.7377,-0.7623,-0.8728,-0.9004,0.0,0.0,0.0,0.0,0.0,0.0,0.0,0.0,0.0,0.0,0.0,0.0,0.0,0.0,-1.6908,-1.6908,-1.6908,-1.7165,-1.7568,-1.8081,-1.8091,-1.8484,-1.9292,-1.9026,-1.9036,-1.9301,-1.9301,0.0,0.0,0.0,0.0,0.0,-1.9301,-1.9608,-2.0187,-2.1068,-2.1375,-2.1603,-2.3423,-2.3607,-2.297,-2.342,-2.3189,-2.2626,-2.2371,-2.2052,-2.1812,-2.2104,-2.2197,-2.2197,-2.2197,-2.2197,-2.2197,-2.2197,-2.2197,-2.2197,-2.2197,-2.2197,-2.2197,-2.2197,-2.2197,-2.2197,-2.2197,-2.2197,-2.2197,-2.2197,-2.2475,-2.272,-2.272,-2.2939,-2.3045,-2.2869,-2.2844,-2.2782,-2.2606,-2.2581,-2.246,-2.2083,-2.2046,-2.2209,-2.2556,-2.2744,-2.2946,-2.3137,-2.3836,-2.4567,-2.5287,-2.6041,-2.6721,-2.7306,-2.7524,-2.76,-2.76,-2.76,-2.76,-1.0045,-1.0695,-1.1046,-1.0503,-1.0435,-1.0198,-0.9129,-0.8875,-0.8651,-0.786,-0.7602,-0.7514,-0.7505,-0.7407,-0.7645,-0.8709,-0.8995,0.0,0.0,0.0,0.0,0.0,0.0,0.0,0.0,0.0,0.0,0.0,0.0,0.0,0.0,-1.6908,-1.6908,-1.6908,-1.7147,-1.7541,-1.8081,-1.8091,-1.8484,-1.9292,-1.9054,-1.9063,-1.9301,-1.9301,0.0,0.0,0.0,0.0,0.0,-1.9766,-2.0226,-2.1078,-2.1918,-2.2268,-2.2419,-2.3849,-2.4068,-2.3627,-2.3501,-2.3213,-2.2818,-2.2311,-2.1972,-2.1812,-2.2104,-2.2197,-2.2197,-2.2197,-2.2197,-2.2197,-2.2197,-2.2197,-2.2197,-2.2197,-2.2197,-2.2197,-2.2197,-2.2197,-2.2197,-2.2197,-2.2197,-2.2197,-2.2197,-2.2475,-2.272,-2.272,-2.2939,-2.3108,-2.3108,-2.3108,-2.3108,-2.3108,-2.3108,-2.2957,-2.2619,-2.2594,-2.2744,-2.3083,-2.3108,-2.3318,-2.3793,-2.4263,-2.4979,-2.6014,-2.6484,-2.6997,-2.76,-2.76,-2.76,-2.76,-2.76,-2.76,0.0,-1.0021,-1.0156,-1.0126,-0.975,-0.9318,-0.898,-0.8567,0.0,-0.7768,-0.771,-0.77,-0.7595,-0.7556,-0.7785,-0.8543,0.0,0.0,0.0,0.0,0.0,0.0,0.0,0.0,0.0,0.0,0.0,0.0,0.0,0.0,0.0,-1.6908,-1.6908,-1.6908,-1.6908,-1.7284,-1.8036,-1.8072,-1.8504,-1.9256,-1.9283,-1.9301,-1.9301,-1.9301,0.0,0.0,0.0,0.0,0.0,-2.0576,-2.1116,-2.1956,-2.2729,-2.3038,-2.3187,-2.3934,-2.42,-2.4189,-2.4154,-2.3523,-2.2753,-2.2831,-2.2441,-2.1925,-2.2123,-2.2197,-2.2197,-2.2197,-2.2197,-2.2197,-2.2197,-2.2197,-2.2197,-2.2197,-2.2197,-2.2197,-2.2197,-2.2197,-2.2197,-2.2197,-2.2197,-2.2197,-2.2197,-2.2475,-2.272,-2.272,-2.2939,-2.3108,-2.3108,-2.3108,-2.3108,-2.3108,-2.3108,-2.3108,-2.3108,-2.3108,-2.3108,-2.3108,-2.3125,-2.3573,-2.4452,-2.4567,-2.5259,-2.6642,-2.6736,-2.7049,-2.76,-2.76,-2.76,-2.76,-2.76,-2.76,-0.7521,0.0,-0.874,-0.8335,-0.8448,-0.8548,0.0,-0.8348,-0.848,-0.7827,-0.7821,-0.8034,-0.8356,-0.8117,-0.8415,-1.0074,0.0,0.0,0.0,0.0,0.0,0.0,0.0,0.0,0.0,0.0,0.0,0.0,0.0,0.0,0.0,-1.6908,-1.6908,-1.6908,-1.6908,-1.7138,-1.7642,-1.7963,-1.8329,-1.8852,-1.9155,-1.9301,-1.9301,-1.9301,0.0,0.0,0.0,0.0,-2.0537,-2.1231,-2.1993,-2.2729,-2.2927,-2.3372,-2.3934,-2.4127,-2.42,-2.4143,-2.3717,-2.343,-2.3167,-2.2674,-2.2256,-2.1925,-2.2123,-2.2197,-2.2197,-2.2197,-2.2197,-2.2197,-2.2197,-2.2197,-2.2197,-2.2197,-2.2197,-2.2197,-2.2197,-2.2197,-2.2197,-2.2197,-2.2197,-2.2197,-2.2197,-2.2475,-2.272,-2.272,-2.2939,-2.3108,-2.3108,-2.3108,-2.3108,-2.3108,-2.3108,-2.3108,-2.3108,-2.3108,-2.3108,-2.3108,-2.3573,-2.4002,-2.4321,-2.5231,-2.5987,-2.6537,-2.71,-2.7473,-2.76,-2.76,-2.76,-2.76,-2.76,-2.76,-0.6638,-0.7568,-0.8369,-0.8263,-0.847,-0.8636,-0.8517,-0.8374,-0.8224,-0.7978,0.0,-0.7945,-0.8356,-0.8517,0.0,0.0,0.0,0.0,0.0,0.0,0.0,0.0,0.0,0.0,0.0,0.0,0.0,0.0,0.0,0.0,0.0,-1.6908,-1.6908,-1.6908,-1.6908,-1.7092,-1.7495,-1.7724,-1.8045,-1.8449,-1.8843,-1.9036,-1.9036,-1.9219,-1.949,0.0,0.0,0.0,-2.169,-2.2155,-2.283,-2.3556,-2.3556,-2.3824,-2.42,-2.42,-2.42,-2.412,-2.3579,-2.3258,-2.3041,-2.2846,-2.2483,-2.2234,-2.2771,-2.2751,-2.2529,-2.2258,-2.2197,-2.2197,-2.2197,-2.2197,-2.2197,-2.2197,-2.2197,-2.2197,-2.2197,-2.2197,-2.2197,-2.2197,-2.2197,-2.2197,-2.2197,-2.2475,-2.272,-2.272,-2.2939,-2.3108,-2.3108,-2.3108,-2.3108,-2.3108,-2.3108,-2.3108,-2.3108,-2.3108,-2.3215,-2.3543,-2.4176,-2.4709,-2.5119,-2.5755,-2.6363,-2.6893,-2.7372,-2.76,-2.76,-2.76,-2.76,-2.76,-2.76,-2.76,-0.654,-0.7625,-0.8737,-0.8864,-0.9055,-0.9226,-0.9382,0.0,0.0,0.0,0.0,0.0,-0.8512,-0.9126,0.0,0.0,0.0,0.0,0.0,0.0,0.0,0.0,0.0,0.0,0.0,0.0,0.0,0.0,0.0,0.0,0.0,-1.6968,-1.6908,-1.6908,-1.6908,-1.7064,-1.7403,-1.7468,-1.7669,-1.7999,-1.843,-1.8623,-1.8632,-1.8971,-1.9576,0.0,0.0,0.0,-2.3001,-2.315,-2.3593,-2.42,-2.42,-2.42,-2.42,-2.42,-2.42,-2.4143,-2.3671,-2.3224,-2.2856,-2.3219,-2.2979,-2.2671,-2.3529,-2.3493,-2.3023,-2.2462,-2.2306,-2.2294,-2.2209,-2.2197,-2.2197,-2.2197,-2.2197,-2.2197,-2.2197,-2.2197,-2.2197,-2.2197,-2.2197,-2.2197,-2.2197,-2.2475,-2.272,-2.272,-2.2939,-2.3108,-2.3108,-2.3108,-2.3108,-2.3108,-2.3108,-2.3108,-2.3108,-2.3198,-2.3514,-2.406,-2.4567,-2.5245,-2.6041,-2.6203,-2.6642,-2.7376,-2.7524,-2.76,-2.76,-2.76,-2.76,-2.76,-2.76,-2.76,-0.7213,-0.8775,-0.9832,-0.8763,-0.9258,-0.9935,-0.9638,-0.9826,-0.9909,0.0,0.0,0.0,0.0,-1.0766,-1.1252,0.0,0.0,0.0,0.0,0.0,0.0,0.0,0.0,0.0,0.0,0.0,0.0,0.0,0.0,0.0,0.0,-1.7235,-1.6908,-1.6908,-1.6908,-1.6936,-1.7,-1.733,-1.7523,-1.7596,-1.8018,-1.8173,-1.8173,-1.8246,-1.892,0.0,0.0,-2.1834,-2.3038,-2.3751,-2.408,-2.42,-2.42,-2.42,-2.42,-2.42,-2.42,-2.4189,-2.4108,-2.3717,-2.3363,-2.3757,-2.3508,-2.3176,-2.3637,-2.3746,-2.3577,-2.3047,-2.2891,-2.2763,-2.2306,-2.2197,-2.2197,-2.2197,-2.2197,-2.2197,-2.2197,-2.2197,-2.2197,-2.2197,-2.2197,-2.2197,-2.2197,-2.2475,-2.272,-2.272,-2.2939,-2.3108,-2.3108,-2.3108,-2.3108,-2.3108,-2.3108,-2.3108,-2.3108,-2.3632,-2.3985,-2.4102,-2.4176,-2.4751,-2.5879,-2.675,-2.7207,-2.7233,-2.7473,-2.76,-2.76,-2.76,-2.76,-2.76,-2.76,-2.76,-0.6716,-0.7954,-0.903,-0.9395,-1.0625,-1.1754,-1.1726,-1.1447,-1.105,0.0,0.0,0.0,0.0,0.0,0.0,0.0,0.0,0.0,0.0,0.0,0.0,0.0,0.0,0.0,0.0,0.0,0.0,0.0,0.0,0.0,0.0,0.0,-1.6908,-1.6908,-1.6908,-1.6908,-1.6908,-1.7092,-1.7183,-1.7183,-1.7587,-1.7789,-1.7789,-1.7981,-1.8648,-1.9625,0.0,-2.1345,-2.2728,-2.3297,-2.3824,-2.42,-2.42,-2.42,-2.42,-2.42,-2.4028,-2.3751,-2.3751,-2.3419,-2.3144,-2.3792,-2.3626,-2.3388,-2.432,-2.4239,-2.3758,-2.3505,-2.3228,-2.2891,-2.233,-2.2197,-2.2197,-2.2197,-2.2197,-2.2197,-2.2197,-2.2197,-2.2197,-2.2197,-2.2197,-2.2197,-2.2197,-2.2475,-2.272,-2.272,-2.2939,-2.3108,-2.3108,-2.3108,-2.3108,-2.3108,-2.3108,-2.3108,-2.3108,-2.3365,-2.3855,-2.4538,-2.4893,-2.5175,-2.5398,-2.663,-2.7115,-2.6736,-2.7306,-2.76,-2.76,-2.76,-2.76,-2.76,-2.76,-2.76,-0.6582,-0.7437,-0.8435,-1.0123,0.0,-1.2738,-1.3536,-1.2903,0.0,0.0,0.0,0.0,0.0,0.0,0.0,0.0,0.0,0.0,0.0,0.0,0.0,0.0,0.0,0.0,0.0,0.0,0.0,0.0,0.0,0.0,0.0,0.0,-1.6968,-1.7141,-1.7176,-1.7176,-1.7176,-1.7176,-1.7072,-1.6908,-1.7211,-1.7358,-1.7367,-1.7688,-1.8309,-1.9193,-1.9653,-2.0767,-2.227,-2.2849,-2.3461,-2.4028,-2.4154,-2.412,-2.4028,-2.4154,-2.3798,-2.327,-2.3499,-2.3282,-2.3006,-2.3851,-2.3779,-2.3623,-2.486,-2.4556,-2.3806,-2.3806,-2.3421,-2.2891,-2.233,-2.2197,-2.2197,-2.2197,-2.2197,-2.2197,-2.2197,-2.2197,-2.2197,-2.2197,-2.2197,-2.2228,-2.2247,-2.2494,-2.2708,-2.2739,-2.2939,-2.3108,-2.3108,-2.3108,-2.3108,-2.3108,-2.3108,-2.3108,-2.3108,-2.3108,-2.3501,-2.4496,-2.5286,-2.5481,-2.5007,-2.6431,-2.6985,-2.651,-2.7229,-2.76,-2.76,-2.76,-2.76,-2.76,-2.76,-2.76,-0.7798,-0.8628,-0.9319,-1.062,-1.0908,-1.1483,-1.3815,-1.3743,0.0,-1.4448,0.0,0.0,0.0,0.0,0.0,0.0,0.0,0.0,0.0,0.0,0.0,0.0,0.0,0.0,0.0,0.0,0.0,0.0,0.0,0.0,0.0,0.0,0.0,-1.7901,-1.7935,-1.7935,-1.7935,-1.7935,-1.7569,-1.6908,-1.6936,-1.6945,-1.6945,-1.6982,-1.764,-1.8768,-1.9487,-2.0511,-2.1741,-2.2884,-2.3394,-2.351,-2.4016,-2.3913,-2.3522,-2.4028,-2.3569,-2.2868,-2.381,-2.3774,-2.3477,-2.4233,-2.4225,-2.4095,-2.4874,-2.4499,-2.3806,-2.3806,-2.3421,-2.2891,-2.233,-2.2197,-2.2197,-2.2197,-2.2197,-2.2197,-2.2197,-2.2197,-2.2197,-2.2197,-2.2197,-2.2247,-2.2359,-2.2555,-2.2739,-2.2878,-2.3017,-2.3108,-2.3108,-2.3108,-2.3108,-2.3108,-2.3108,-2.3108,-2.3108,-2.3108,-2.3125,-2.3215,-2.4381,-2.5049,-2.5007,-2.6431,-2.7181,-2.7141,-2.7448,-2.76,-2.76,-2.76,-2.76,-2.76,-2.76,-2.76,-0.6526,-0.7762,-0.9147,-1.0677,-1.1404,0.0,0.0,-1.4741,-1.5071,-1.5639,-1.5845,0.0,0.0,0.0,0.0,0.0,0.0,0.0,0.0,0.0,0.0,0.0,0.0,0.0,0.0,0.0,0.0,0.0,0.0,0.0,0.0,0.0,0.0,-1.7501,-1.7373,-1.7451,-1.7691,-1.7442,-1.7166,-1.6908,-1.6908,-1.6908,-1.6908,-1.6908,-1.7389,-1.8291,-1.882,-1.9855,-2.1225,-2.195,-2.269,-2.3465,-2.4005,-2.4085,-2.389,-2.374,-2.3453,-2.3121,-2.2834,-2.2868,-2.3041,-2.3445,-2.3746,-2.4142,-2.4885,-2.4715,-2.4242,-2.4242,-2.3869,-2.3312,-2.2414,-2.2197,-2.2197,-2.2197,-2.2197,-2.2197,-2.2197,-2.2197,-2.2197,-2.2197,-2.2197,-2.2247,-2.2389,-2.2586,-2.2739,-2.2878,-2.3017,-2.3108,-2.3108,-2.3108,-2.3108,-2.3108,-2.3108,-2.3108,-2.3108,-2.3108,-2.3275,-2.3691,-2.4538,-2.4823,-2.4452,-2.6229,-2.7011,-2.6642,-2.728,-2.76,-2.76,-2.76,-2.76,-2.76,-2.76,-2.76,-0.6498,-0.7781,-0.9292,-1.0732,0.0,0.0,-1.4472,-1.538,-1.6044,-1.6656,-1.6525,0.0,0.0,0.0,0.0,0.0,0.0,0.0,0.0,0.0,0.0,0.0,0.0,0.0,0.0,0.0,0.0,0.0,0.0,0.0,0.0,0.0,0.0,0.0,-1.7476,-1.7476,-1.7657,-1.7579,-1.7476,-1.7235,-1.7476,-1.7339,-1.6908,-1.7141,-1.7535,-1.8056,-1.8763,-1.968,-2.0698,-2.1372,-2.234,-2.3442,-2.3786,-2.3856,-2.3718,-2.3659,-2.3338,-2.2903,-2.2685,-2.2799,-2.3075,-2.3283,-2.3699,-2.4224,-2.4826,-2.4831,-2.4594,-2.4504,-2.4302,-2.3892,-2.2969,-2.2594,-2.2402,-2.2234,-2.2197,-2.2197,-2.2197,-2.2197,-2.2197,-2.2197,-2.2197,-2.2247,-2.2463,-2.2616,-2.2769,-2.2939,-2.3047,-2.3108,-2.3108,-2.3108,-2.3108,-2.3108,-2.3275,-2.3424,-2.3424,-2.359,-2.3914,-2.435,-2.4936,-2.5105,-2.4694,-2.6244,-2.6959,-2.659,-2.7203,-2.7549,-2.76,-2.76,-2.76,-2.76,-2.76,-2.76,-0.8247,-0.9079,-0.9932,0.0,0.0,0.0,-1.4952,-1.5626,-1.6191,-1.7529,0.0,-1.6455,-1.6924,0.0,0.0,0.0,0.0,0.0,0.0,0.0,0.0,0.0,0.0,0.0,0.0,0.0,0.0,0.0,0.0,0.0,0.0,0.0,0.0,0.0,-1.8509,-1.8331,-1.8003,-1.8677,-1.8677,-1.8037,-1.8677,-1.8273,-1.6934,-1.7672,-1.8003,-1.8104,-1.9497,-2.0096,-2.0205,-2.1415,-2.249,-2.3396,-2.3407,-2.3098,-2.2811,-2.3821,-2.3236,-2.2123,-2.3661,-2.3987,-2.377,-2.4089,-2.4272,-2.4374,-2.4708,-2.4818,-2.4761,-2.4565,-2.4657,-2.4683,-2.4073,-2.3489,-2.2891,-2.2349,-2.2197,-2.2197,-2.2197,-2.2197,-2.2197,-2.2197,-2.2197,-2.2309,-2.2659,-2.272,-2.28,-2.3047,-2.3108,-2.3108,-2.3108,-2.3108,-2.3108,-2.3108,-2.3691,-2.4102,-2.4102,-2.4652,-2.5007,-2.5007,-2.5564,-2.5893,-2.5893,-2.6621,-2.7041,-2.7207,-2.7335,-2.7463,-2.76,-2.76,-2.76,-2.76,-2.76,-2.76,-0.7294,-0.9092,0.0,-1.1827,0.0,0.0,0.0,-1.655,0.0,0.0,-1.814,-1.7845,0.0,0.0,0.0,0.0,0.0,0.0,0.0,0.0,0.0,0.0,0.0,0.0,0.0,0.0,0.0,0.0,0.0,0.0,0.0,0.0,0.0,0.0,-1.7876,-1.8003,-1.8138,-1.871,-1.8911,-1.871,-1.8911,-1.8777,-1.8375,-1.861,-1.9011,-1.9497,-1.9933,-2.0399,-2.0937,-2.1611,-2.2317,-2.2937,-2.327,-2.3569,-2.3741,-2.3659,-2.335,-2.2972,-2.3271,-2.3503,-2.3816,-2.4595,-2.5007,-2.5352,-2.6236,-2.6074,-2.5602,-2.5785,-2.5881,-2.5787,-2.5247,-2.4678,-2.4014,-2.3052,-2.25,-2.2197,-2.2197,-2.2197,-2.2197,-2.2197,-2.2278,-2.2432,-2.2647,-2.2769,-2.2909,-2.3078,-2.3514,-2.3809,-2.3809,-2.3809,-2.3809,-2.3809,-2.3985,-2.4263,-2.4709,-2.4908,-2.5189,-2.5605,-2.5811,-2.5893,-2.5893,-2.6621,-2.7041,-2.7207,-2.7335,-2.7463,-2.76,-2.76,-2.7839,-2.8278,-2.7824,-2.7854,-0.8454,-1.0425,0.0,-1.3363,-1.5012,-1.6645,-1.7583,0.0,0.0,0.0,0.0,0.0,0.0,0.0,0.0,0.0,0.0,0.0,0.0,0.0,0.0,0.0,0.0,0.0,0.0,0.0,0.0,0.0,0.0,0.0,0.0,0.0,0.0,0.0,-1.7852,-1.8114,-1.8307,-1.8643,-1.9011,-1.9441,-1.9441,-1.9606,-1.9868,-1.9573,-1.9671,-2.0139,-2.0399,-2.0796,-2.1213,-2.1502,-2.2042,-2.2742,-2.3018,-2.3419,-2.389,-2.3751,-2.3579,-2.3431,-2.3537,-2.4026,-2.4633,-2.5186,-2.5819,-2.6402,-2.6684,-2.6676,-2.653,-2.6427,-2.662,-2.6718,-2.611,-2.5582,-2.4886,-2.3737,-2.2801,-2.2278,-2.25,-2.2359,-2.2278,-2.25,-2.2469,-2.2451,-2.2678,-2.28,-2.306,-2.3424,-2.406,-2.4452,-2.4452,-2.4452,-2.4452,-2.4452,-2.4666,-2.495,-2.5342,-2.5591,-2.5879,-2.6218,-2.626,-2.626,-2.626,-2.6674,-2.7015,-2.7207,-2.7536,-2.7798,-2.8004,-2.8259,-2.8603,-2.8981,-2.8588,-2.8483,-1.0714,0.0,0.0,-1.5073,-1.5703,0.0,-1.808,-1.8896,-1.9381,0.0,0.0,0.0,0.0,0.0,0.0,0.0,0.0,0.0,0.0,0.0,0.0,0.0,0.0,0.0,0.0,0.0,0.0,0.0,0.0,0.0,0.0,0.0,0.0,0.0,-1.8269,-1.8529,-1.8533,-1.8643,-1.9177,0.0,-2.0172,-2.056,-2.119,-2.0495,-2.0204,-2.0237,-2.0903,-2.119,-2.119,-2.119,-2.1765,-2.265,-2.2696,-2.2995,-2.3465,-2.4005,-2.3902,-2.358,-2.4363,-2.5123,-2.5824,-2.5985,-2.6739,-2.7404,-2.6663,-2.6934,-2.7417,-2.6778,-2.7082,-2.7453,-2.6837,-2.6319,-2.5694,-2.454,-2.3275,-2.25,-2.3058,-2.2702,-2.2451,-2.2997,-2.275,-2.2512,-2.2769,-2.2909,-2.3288,-2.4147,-2.4738,-2.5077,-2.5077,-2.5077,-2.5077,-2.5077,-2.5564,-2.5921,-2.5975,-2.6474,-2.6806,-2.6806,-2.6806,-2.6806,-2.6806,-2.6806,-2.6937,-2.7181,-2.7868,-2.834,-2.8607,-2.9265,-2.9636,-2.9696,-2.9636,-2.928,-0.9776,-1.1441,0.0,0.0,-1.6434,-1.7837,-1.8669,-1.9555,-2.0075,0.0,0.0,0.0,0.0,0.0,0.0,0.0,0.0,0.0,0.0,0.0,0.0,0.0,0.0,0.0,0.0,0.0,0.0,0.0,0.0,0.0,0.0,0.0,0.0,-1.8168,-1.8553,-1.8744,-1.8734,-1.9671,-2.0269,0.0,-2.0796,-2.1063,-2.119,-2.1031,-2.0955,-2.0955,-2.1126,-2.119,-2.119,-2.119,-2.1525,-2.21,-2.2524,-2.2995,-2.3465,-2.4005,-2.4131,-2.4184,-2.5169,-2.565,-2.602,-2.7465,-2.7907,-2.8019,-2.8661,-2.839,-2.792,-2.8005,-2.8168,-2.8239,-2.8118,-2.7665,-2.7116,-2.6357,-2.4855,-2.3653,-2.3787,-2.3327,-2.298,-2.3195,-2.2914,-2.2818,-2.3471,-2.3708,-2.4205,-2.5342,-2.5605,-2.5715,-2.5715,-2.5715,-2.5715,-2.5715,-2.5839,-2.6084,-2.6568,-2.6727,-2.6806,-2.6806,-2.6806,-2.6806,-2.6806,-2.6806,-2.6937,-2.7181,-2.7868,-2.834,-2.8607,-2.9265,-2.9834,-3.0298,-2.9804,-2.9786,-1.019,0.0,0.0,-1.5502,0.0,-1.7891,-1.8594,-1.9456,0.0,0.0,0.0,0.0,0.0,0.0,0.0,0.0,0.0,0.0,0.0,0.0,0.0,0.0,0.0,0.0,0.0,0.0,0.0,0.0,0.0,0.0,0.0,-1.7833,-1.7952,-1.7952,-1.8609,-1.9021,-1.9187,-1.9649,-2.0118,-2.0603,-2.0635,-2.086,-2.119,-2.119,-2.119,-2.119,-2.119,-2.119,-2.119,-2.119,-2.15,-2.1917,-2.2214,-2.2742,-2.3442,-2.3705,-2.3982,-2.4298,-2.5064,-2.5534,-2.6055,-2.7544,-2.8117,-2.8344,-2.8917,-2.868,-2.8266,-2.846,-2.8492,-2.8492,-2.8492,-2.8324,-2.8002,-2.7336,-2.5805,-2.4403,-2.4086,-2.3581,-2.3314,-2.3712,-2.3471,-2.3442,-2.4108,-2.4639,-2.5175,-2.5811,-2.6138,-2.634,-2.634,-2.634,-2.634,-2.634,-2.634,-2.6447,-2.6779,-2.7055,-2.7229,-2.7229,-2.752,-2.7721,-2.7721,-2.7721,-2.7696,-2.7679,-2.8636,-2.9233,-2.952,-3.0193,-3.0507,-3.0492,-3.0178,-3.0043,-1.0495,0.0,-1.4329,-1.62,-1.6978,0.0,-1.8302,-1.9014,0.0,0.0,0.0,0.0,0.0,0.0,0.0,0.0,0.0,0.0,0.0,0.0,0.0,0.0,0.0,0.0,0.0,0.0,0.0,0.0,0.0,0.0,-1.7045,-1.7394,-1.7626,-1.7626,-1.8412,-1.9043,-1.9379,-1.9215,-1.9607,-2.0506,-2.0366,-2.0603,-2.119,-2.119,-2.119,-2.119,-2.119,-2.119,-2.119,-2.119,-2.1443,-2.1801,-2.186,-2.2444,-2.3201,-2.3374,-2.3742,-2.4182,-2.4814,-2.5441,-2.6193,-2.7324,-2.8117,-2.8698,-2.8698,-2.8698,-2.8698,-2.8698,-2.8698,-2.8698,-2.8698,-2.8778,-2.8663,-2.7971,-2.6708,-2.5465,-2.4702,-2.4057,-2.3816,-2.4423,-2.4337,-2.431,-2.4811,-2.555,-2.6056,-2.6056,-2.6474,-2.6806,-2.6806,-2.6806,-2.6837,-2.6982,-2.7023,-2.7053,-2.7125,-2.7592,-2.7869,-2.7869,-2.839,-2.8709,-2.8722,-2.8839,-2.8789,-2.8574,-2.9581,-3.0182,-3.0342,-3.1122,-3.1212,-3.0672,-3.0552,-3.0298,0.0,0.0,-1.4175,0.0,-1.6705,-1.7505,0.0,0.0,0.0,0.0,0.0,0.0,0.0,0.0,0.0,0.0,0.0,0.0,0.0,0.0,0.0,0.0,0.0,0.0,0.0,0.0,0.0,0.0,0.0,0.0,-1.7585,-1.7667,-1.7698,-1.7698,-1.7812,-1.8092,-1.8561,-1.9094,-1.9617,-2.0172,-2.0764,-2.1094,-2.119,-2.119,-2.119,-2.119,-2.119,-2.119,-2.119,-2.119,-2.1236,-2.1339,-2.1755,-2.2073,-2.2482,-2.334,-2.3711,-2.3956,-2.5411,-2.6308,-2.6917,-2.7992,-2.8853,-2.9463,-2.9463,-2.9463,-2.9463,-2.9463,-2.9463,-2.9463,-2.9463,-2.9484,-2.9319,-2.8694,-2.8474,-2.8041,-2.6862,-2.5728,-2.5035,-2.537,-2.5536,-2.566,-2.5715,-2.6245,-2.6674,-2.6674,-2.6753,-2.6806,-2.6806,-2.6806,-2.7082,-2.7752,-2.7824,-2.7984,-2.8418,-2.8534,-2.8578,-2.8578,-2.8665,-2.875,-2.8876,-2.9432,-2.9838,-3.0032,-3.0067,-2.9974,-2.9726,-3.0913,-3.1451,-3.1346,-3.0776,-3.0776,-0.9735,-1.1699,-1.3609,0.0,-1.6593,-1.7257,-1.8004,0.0,0.0,0.0,0.0,0.0,0.0,0.0,0.0,0.0,0.0,0.0,0.0,0.0,0.0,0.0,0.0,0.0,0.0,0.0,0.0,0.0,0.0,-1.6757,-1.6964,-1.7182,-1.7316,-1.7316,-1.7564,-1.7936,-1.8403,-1.9061,-1.9837,-2.0732,-2.1063,-2.119,-2.119,-2.119,-2.119,-2.119,-2.119,-2.119,-2.119,-2.119,-2.119,-2.1213,-2.1443,-2.1978,-2.2711,-2.3153,-2.3723,-2.4472,-2.5706,-2.6239,-2.6671,-2.8057,-2.873,-2.9044,-2.9463,-2.9602,-2.9602,-2.9602,-2.9602,-2.9602,-2.9602,-2.9602,-2.9532,-2.9265,-2.9036,-2.889,-2.8868,-2.7622,-2.6509,-2.6316,-2.6621,-2.6809,-2.6451,-2.6621,-2.6806,-2.6806,-2.6806,-2.6806,-2.6806,-2.743,-2.8287,-2.9319,-2.884,-2.8491,-2.868,-2.9,-2.9203,-2.9203,-2.9552,-2.9799,-2.9842,-3.0222,-3.0323,-3.02,-3.0583,-3.0742,-3.0672,-3.1227,-3.1316,-3.0913,-3.0298,-3.0328,0.0,0.0,-1.2443,-1.4862,-1.604,-1.684,0.0,0.0,0.0,0.0,0.0,0.0,0.0,0.0,0.0,0.0,0.0,0.0,0.0,0.0,0.0,0.0,0.0,0.0,0.0,0.0,0.0,0.0,0.0,-1.6441,-1.6488,-1.6782,-1.6959,-1.6959,-1.7352,-1.7779,-1.8166,-1.9068,-2.01,-2.119,-2.119,-2.119,-2.119,-2.119,-2.119,-2.119,-2.119,-2.119,-2.119,-2.119,-2.119,-2.119,-2.1253,-2.1936,-2.2883,-2.3045,-2.3905,-2.505,-2.5881,-2.6389,-2.6854,-2.8103,-2.8634,-2.8871,-2.9432,-2.9602,-2.9602,-2.9602,-2.9602,-2.9602,-2.9602,-2.9634,-2.9651,-2.9651,-2.9452,-2.9351,-2.9747,-2.8824,-2.7767,-2.7357,-2.7637,-2.7781,-2.7186,-2.6951,-2.6806,-2.6806,-2.7358,-2.7779,-2.7779,-2.8607,-2.9552,-3.051,-2.9755,-2.9188,-2.9188,-2.9595,-2.9856,-2.9856,-3.0306,-3.0642,-3.0732,-3.0821,-3.0749,-3.0451,-3.1055,-3.1319,-3.1241,-3.1421,-3.1241,-3.0746,-3.0118,-3.0163,0.0,-0.9095,0.0,-1.2854,-1.4657,0.0,0.0,0.0,0.0,0.0,0.0,0.0,0.0,0.0,0.0,0.0,0.0,0.0,0.0,0.0,0.0,0.0,0.0,0.0,0.0,0.0,0.0,0.0,0.0,-1.6516,-1.6761,-1.6811,-1.6821,-1.6821,-1.7086,-1.7334,-1.7535,-1.9091,-2.033,-2.119,-2.119,-2.119,-2.119,-2.119,-2.119,-2.119,-2.119,-2.119,-2.119,-2.119,-2.119,-2.1221,-2.1336,-2.1876,-2.2601,-2.3238,-2.4253,-2.5397,-2.6136,-2.7183,-2.8208,-2.8441,-2.898,-2.954,-2.9571,-2.9602,-2.9602,-2.9602,-2.9602,-2.9602,-2.9602,-2.9682,-2.9777,-2.9777,-3.0009,-2.9922,-2.8814,-2.8611,-2.8638,-2.8609,-2.8637,-2.8505,-2.8013,-2.7329,-2.6806,-2.6806,-2.8869,-3.0409,-3.0409,-3.0467,-3.0525,-3.0598,-3.0539,-3.051,-3.051,-3.0539,-3.0554,-3.0554,-3.0583,-3.0732,-3.1043,-3.1087,-3.1176,-3.1422,-3.1452,-3.1182,-3.0552,-3.1182,-3.1481,-3.1436,-3.0748,-3.0821,0.0,0.0,0.0,-1.1929,-1.3491,0.0,0.0,0.0,0.0,0.0,0.0,0.0,0.0,0.0,0.0,0.0,0.0,0.0,0.0,0.0,0.0,0.0,0.0,0.0,0.0,0.0,0.0,0.0,0.0,0.0,-1.706,-1.706,-1.706,-1.706,-1.7134,-1.7514,-1.8151,-1.9312,-2.0172,-2.0687,-2.104,-2.119,-2.119,-2.119,-2.1253,-2.1336,-2.1336,-2.1336,-2.1336,-2.1466,-2.1529,-2.1529,-2.158,-2.2036,-2.2701,-2.3329,-2.4373,-2.5644,-2.6792,-2.7725,-2.8519,-2.9058,-2.9369,-2.9602,-2.9602,-2.9602,-2.9602,-2.9602,-2.9602,-2.9634,-2.9713,-2.9747,-2.9839,-3.0068,-3.0312,-3.0377,-2.9928,-2.99,-2.9798,-2.9363,-2.929,-2.9102,-2.8536,-2.7547,-2.6806,-2.6806,-2.759,-2.8767,-3.0394,-3.0103,-2.9972,-3.0539,-3.0672,-3.0732,-3.0732,-3.0851,-3.0866,-3.0732,-3.0851,-3.0925,-3.0925,-3.1117,-3.1263,-3.138,-3.1467,-3.1376,-3.1137,-3.1376,-3.1511,-3.1481,-3.0821,-3.0866,-0.7491,0.0,0.0,0.0,0.0,0.0,0.0,0.0,0.0,0.0,0.0,0.0,0.0,0.0,0.0,0.0,0.0,0.0,0.0,0.0,0.0,0.0,0.0,0.0,0.0,0.0,0.0,0.0,0.0,0.0,-1.7357,-1.7368,-1.7423,-1.7496,-1.7412,-1.7767,-1.864,-1.9256,-1.9844,-2.0412,-2.0745,-2.106,-2.1285,-2.1285,-2.1348,-2.1506,-2.1557,-2.1526,-2.1506,-2.1624,-2.1812,-2.2006,-2.208,-2.2611,-2.3408,-2.3841,-2.4842,-2.6091,-2.6979,-2.7734,-2.837,-2.9055,-2.9307,-2.935,-2.9546,-2.9602,-2.9602,-2.9602,-2.9634,-2.9682,-2.9777,-2.9714,-2.9724,-2.9995,-3.0,-2.9973,-2.9973,-3.0307,-3.0481,-3.0031,-2.9943,-2.9813,-2.9421,-2.8651,-2.7794,-2.6936,-2.6806,-2.7416,-2.9116,-2.9435,-2.9726,-3.0294,-3.0704,-3.0895,-3.0895,-3.1014,-3.1043,-3.0925,-3.1014,-3.1043,-3.0969,-3.1161,-3.1322,-3.138,-3.1438,-3.1511,-3.1511,-3.1511,-3.1511,-3.1496,-3.1032,-3.1062,0.0,0.0,0.0,0.0,0.0,0.0,0.0,0.0,0.0,0.0,0.0,0.0,0.0,0.0,0.0,0.0,0.0,0.0,0.0,0.0,0.0,0.0,0.0,0.0,0.0,0.0,0.0,0.0,0.0,-1.6867,-1.7655,-1.77,-1.7822,-1.8084,-1.7849,-1.8075,-1.8873,-1.8885,-1.939,-2.0366,-2.0389,-2.0734,-2.1365,-2.1365,-2.1494,-2.1698,-2.1843,-2.1843,-2.173,-2.173,-2.2099,-2.2652,-2.2859,-2.3596,-2.4598,-2.4736,-2.5601,-2.6695,-2.6695,-2.7159,-2.7904,-2.8464,-2.8661,-2.8774,-2.9378,-2.956,-2.956,-2.9546,-2.9656,-2.9766,-2.9766,-2.9554,-2.9406,-2.9537,-2.9131,-2.8709,-2.8723,-2.9711,-3.0583,-3.0583,-3.0598,-3.0598,-3.0598,-3.0583,-2.9711,-2.7183,-2.6806,-2.6806,-2.6806,-2.8601,-2.987,-2.9899,-3.0631,-3.1117,-3.1117,-3.1117,-3.1117,-3.1117,-3.1117,-3.1161,-3.1278,-3.1307,-3.138,-3.1511,-3.1511,-3.1511,-3.1511,-3.1511,-3.1511,-3.1511,-3.1511,-3.1511,-0.6682,0.0,0.0,0.0,0.0,0.0,0.0,0.0,0.0,0.0,0.0,0.0,0.0,0.0,0.0,0.0,0.0,0.0,0.0,0.0,0.0,0.0,0.0,0.0,0.0,0.0,0.0,0.0,-1.693,-1.7255,-1.747,-1.7809,-1.803,-1.8084,-1.803,-1.8098,-1.8318,-1.8713,-1.9034,-1.9321,-1.9807,-2.0347,-2.0896,-2.0976,-2.1341,-2.1843,-2.1874,-2.1968,-2.2104,-2.2549,-2.3058,-2.361,-2.3669,-2.3891,-2.424,-2.4749,-2.5457,-2.6192,-2.6614,-2.7224,-2.7833,-2.8002,-2.8058,-2.8087,-2.8269,-2.8282,-2.8312,-2.8401,-2.846,-2.8534,-2.8755,-2.8829,-2.8899,-2.8942,-2.884,-2.884,-2.9261,-2.9639,-2.9885,-2.9885,-3.0263,-3.0598,-3.0598,-3.0074,-2.9,-2.7096,-2.6806,-2.6806,-2.6806,-2.7929,-2.9049,-2.9811,-3.0704,-3.1234,-3.1234,-3.1322,-3.1366,-3.1234,-3.1336,-3.1351,-3.1307,-3.138,-3.1467,-3.1511,-3.1511,-3.1511,-3.1511,-3.1511,-3.1511,-3.1511,-3.1511,-3.1511,-0.7141,0.0,0.0,0.0,0.0,0.0,0.0,-1.1372,0.0,0.0,0.0,0.0,0.0,0.0,0.0,0.0,0.0,0.0,0.0,0.0,0.0,0.0,0.0,0.0,0.0,0.0,0.0,-1.6289,-1.66,-1.697,-1.7384,-1.7656,-1.7894,-1.8084,-1.8084,-1.8084,-1.8084,-1.8409,-1.869,-1.8896,-1.9293,-1.9814,-2.0462,-2.0763,-2.1185,-2.1708,-2.1935,-2.2235,-2.261,-2.295,-2.3327,-2.3669,-2.4208,-2.4423,-2.4509,-2.5132,-2.5604,-2.595,-2.6302,-2.6708,-2.7117,-2.7313,-2.7426,-2.7511,-2.7721,-2.7834,-2.7893,-2.798,-2.8096,-2.8226,-2.8468,-2.8393,-2.8289,-2.8289,-2.8289,-2.839,-2.8725,-2.9218,-2.9668,-2.9972,-3.0321,-3.0481,-3.0133,-2.9334,-2.8303,-2.7009,-2.6806,-2.6806,-2.6806,-2.7708,-2.8651,-2.9486,-3.0657,-3.138,-3.138,-3.1467,-3.1467,-3.138,-3.1467,-3.1467,-3.138,-3.1467,-3.1511,-3.1511,-3.1511,-3.1511,-3.1511,-3.1511,-3.1511,-3.1511,-3.1511,-3.1511,0.0,0.0,0.0,0.0,0.0,0.0,-1.102,-1.1166,0.0,0.0,0.0,0.0,0.0,0.0,0.0,0.0,0.0,0.0,0.0,0.0,0.0,0.0,0.0,0.0,0.0,-1.53,-1.5303,-1.5809,-1.5901,-1.6362,-1.7295,-1.7353,-1.7583,-1.8035,-1.8085,-1.8108,-1.8166,-1.8166,-1.8384,-1.8861,-1.8872,-1.9297,-2.007,-2.0559,-2.1003,-2.1428,-2.1897,-2.2451,-2.2997,-2.3058,-2.3148,-2.3327,-2.4523,-2.5005,-2.5061,-2.5702,-2.5921,-2.5921,-2.5948,-2.6029,-2.6183,-2.6609,-2.6821,-2.7018,-2.7483,-2.771,-2.7797,-2.7825,-2.8011,-2.8266,-2.8435,-2.8057,-2.7594,-2.7594,-2.7652,-2.7724,-2.7797,-2.8754,-2.9813,-3.0481,-3.0598,-3.0365,-2.9581,-2.8709,-2.7808,-2.6936,-2.6806,-2.6864,-2.7021,-2.7881,-2.8674,-2.9171,-3.0578,-3.1511,-3.1511,-3.1511,-3.1511,-3.1511,-3.1511,-3.1511,-3.1511,-3.1511,-3.1511,-3.1511,-3.1511,-3.1511,-3.1511,-3.1511,-3.1511,-3.1511,-3.1421,-3.1436,0.0,0.0,0.0,0.0,0.0,0.0,0.0,-0.9178,0.0,0.0,0.0,0.0,0.0,0.0,0.0,0.0,0.0,0.0,0.0,0.0,0.0,0.0,0.0,0.0,0.0,-1.53,-1.5177,-1.5406,-1.5858,-1.6431,-1.7038,-1.7073,-1.7307,-1.7847,-1.7859,-1.8058,-1.8506,-1.8506,-1.8553,-1.8658,-1.8779,-1.9144,-1.9697,-1.9905,-2.0517,-2.1416,-2.1512,-2.188,-2.242,-2.2889,-2.3386,-2.3904,-2.4694,-2.5005,-2.509,-2.5811,-2.6056,-2.6084,-2.6179,-2.6233,-2.6274,-2.6375,-2.6418,-2.6459,-2.656,-2.6603,-2.6643,-2.6764,-2.694,-2.713,-2.7157,-2.7055,-2.6968,-2.6968,-2.736,-2.784,-2.839,-2.9087,-2.9813,-3.0481,-3.0598,-3.0554,-3.0394,-2.9449,-2.8296,-2.698,-2.6806,-2.7249,-2.8488,-2.8822,-2.9243,-3.0004,-3.0947,-3.1511,-3.1511,-3.1511,-3.1511,-3.1511,-3.1511,-3.1511,-3.1511,-3.1511,-3.1511,-3.1511,-3.1511,-3.1511,-3.1511,-3.1511,-3.1511,-3.1496,-3.0943,-3.0972,0.0,0.0,0.0,-1.0767,0.0,0.0,0.0,0.0,0.0,0.0,0.0,0.0,0.0,0.0,0.0,0.0,0.0,0.0,0.0,0.0,0.0,0.0,0.0,0.0,0.0,-1.5401,-1.5334,-1.539,-1.567,-1.6068,-1.6585,-1.6608,-1.6855,-1.7384,-1.7655,-1.7939,-1.8198,-1.8457,-1.8587,-1.8587,-1.8679,-1.8875,-1.9202,-1.9535,-2.0025,-2.061,-2.0887,-2.1337,-2.194,-2.2538,-2.3191,-2.3859,-2.4308,-2.4366,-2.4266,-2.5273,-2.5701,-2.5811,-2.6165,-2.6353,-2.6406,-2.634,-2.6353,-2.6406,-2.634,-2.6353,-2.6418,-2.6592,-2.6712,-2.6806,-2.6806,-2.6806,-2.6806,-2.6806,-2.752,-2.8289,-2.8636,-2.9421,-3.019,-3.0539,-3.0598,-3.054,-3.0279,-2.9697,-2.872,-2.7144,-2.726,-2.7837,-2.8618,-2.9624,-3.0312,-3.0312,-3.1021,-3.1511,-3.1511,-3.1511,-3.1511,-3.1511,-3.1511,-3.1511,-3.1511,-3.1511,-3.1346,-3.1002,-3.0987,-3.0838,-3.0552,-3.0552,-3.0896,-3.1481,-3.0821,-3.0687,0.0,0.0,0.0,0.0,0.0,-1.0767,0.0,0.0,0.0,0.0,0.0,0.0,0.0,0.0,0.0,0.0,0.0,0.0,0.0,0.0,0.0,0.0,0.0,0.0,0.0,-1.5277,-1.5323,-1.5524,-1.5369,-1.5512,-1.6091,-1.6127,-1.6362,-1.6904,-1.7342,-1.7661,-1.7899,-1.8312,-1.8561,-1.8667,-1.8667,-1.8721,-1.8863,-1.9292,-1.9614,-1.9832,-2.029,-2.0902,-2.1647,-2.2156,-2.2849,-2.3636,-2.4079,-2.405,-2.3833,-2.5021,-2.5508,-2.5687,-2.6218,-2.6459,-2.6551,-2.6433,-2.6459,-2.6551,-2.6433,-2.6459,-2.6578,-2.6738,-2.6806,-2.6806,-2.6806,-2.6806,-2.6849,-2.6939,-2.7853,-2.8738,-2.884,-2.9798,-3.0598,-3.0598,-3.0612,-3.0542,-3.0148,-2.9857,-2.9245,-2.7952,-2.8094,-2.8485,-2.8851,-3.0444,-3.1244,-3.0593,-3.1096,-3.1511,-3.1511,-3.1511,-3.1511,-3.1511,-3.1511,-3.1511,-3.1511,-3.1511,-3.1182,-3.0507,-3.0507,-3.0193,-2.9606,-2.9606,-3.0118,-3.1122,-3.0462,-3.0208,0.0,0.0,0.0,0.0,-1.2659,0.0,0.0,0.0,0.0,0.0,0.0,0.0,0.0,0.0,0.0,0.0,0.0,0.0,0.0,0.0,0.0,0.0,0.0,0.0,0.0,0.0,-1.4651,-1.5622,-1.4908,-1.4842,-1.5784,-1.5843,-1.6093,-1.6632,-1.6704,-1.7183,-1.8142,-1.8214,-1.8478,-1.896,-1.896,-1.896,-1.8972,-1.9032,-1.9336,-1.9808,-1.9975,-2.0637,-2.1618,-2.1812,-2.2552,-2.3725,-2.4796,-2.5203,-2.5245,-2.6068,-2.6363,-2.6404,-2.6659,-2.6753,-2.6753,-2.6753,-2.6753,-2.6753,-2.6753,-2.6753,-2.6779,-2.6779,-2.6806,-2.6806,-2.6806,-2.6806,-2.6924,-2.7463,-2.8158,-2.884,-2.9392,-3.0074,-3.0598,-3.0598,-3.0702,-3.0777,-3.0704,-3.0338,-3.0146,-3.0426,-2.9364,-2.9188,-3.0917,-3.1347,-3.1466,-3.1377,-3.1466,-3.1511,-3.1511,-3.1511,-3.1511,-3.1511,-3.1511,-3.1511,-3.1511,-3.1511,-3.1182,-3.0507,-3.0507,-3.0193,-2.9606,-2.9606,-2.9654,-2.9789,-2.9131,-2.9131,0.0,0.0,0.0,0.0,0.0,0.0,-1.0937,0.0,-1.0294,0.0,0.0,0.0,0.0,0.0,0.0,0.0,0.0,0.0,0.0,0.0,0.0,0.0,0.0,0.0,0.0,0.0,0.0,0.0,0.0,-1.4594,-1.5301,-1.5624,-1.5888,-1.6139,-1.6451,-1.6967,-1.7736,-1.8049,-1.847,-1.8987,-1.8987,-1.9052,-1.9105,-1.9052,-1.9172,-1.9443,-1.9509,-2.0016,-2.0876,-2.2063,-2.3085,-2.4044,-2.5602,-2.5715,-2.5064,-2.5728,-2.6041,-2.6204,-2.6633,-2.6806,-2.6806,-2.6806,-2.6806,-2.6806,-2.6806,-2.6806,-2.6806,-2.6806,-2.6806,-2.6806,-2.6806,-2.6806,-2.6852,-2.7128,-2.794,-2.8781,-2.9015,-2.9886,-3.0598,-3.0598,-3.0702,-3.0821,-3.0955,-3.0822,-3.066,-3.057,-3.0331,-3.0179,-3.0276,-3.1004,-3.1346,-3.0957,-3.1271,-3.1511,-3.1511,-3.1511,-3.1511,-3.1511,-3.1511,-3.1511,-3.1511,-3.1511,-3.1017,-2.9983,-2.9968,-2.9487,-2.8438,-2.8438,-2.8438,-2.8438,-2.8547,-2.8742,-1.3441,0.0,0.0,0.0,0.0,0.0,0.0,0.0,0.0,0.0,0.0,0.0,0.0,0.0,0.0,0.0,0.0,0.0,0.0,0.0,0.0,0.0,0.0,0.0,0.0,0.0,0.0,0.0,0.0,0.0,-1.4953,-1.5372,-1.5648,-1.5814,-1.6187,-1.6643,-1.7171,-1.7724,-1.8253,-1.877,-1.8915,-1.9078,-1.9208,-1.9105,-1.9143,-1.9249,-1.9302,-1.9687,-2.0392,-2.185,-2.3111,-2.4218,-2.5551,-2.5738,-2.5329,-2.5769,-2.6015,-2.6206,-2.6647,-2.6806,-2.6806,-2.6806,-2.6806,-2.6806,-2.6806,-2.6806,-2.6806,-2.6806,-2.6806,-2.6806,-2.6806,-2.6806,-2.6907,-2.7241,-2.8041,-2.8811,-2.9159,-2.9958,-3.0598,-3.0642,-3.0791,-3.0955,-3.1132,-3.1161,-3.1028,-3.0682,-3.0889,-3.0754,-2.9829,-3.0451,-3.0866,-3.0537,-3.0956,-3.1301,-3.1481,-3.1331,-3.1227,-3.1227,-3.1406,-3.1511,-3.1511,-3.1316,-3.0703,-2.9636,-2.94,-2.8768,-2.76,-2.76,-2.76,-2.76,-2.8109,-2.8323,0.0,0.0,0.0,-1.2194,0.0,0.0,0.0,0.0,-1.1565,0.0,0.0,0.0,0.0,0.0,-1.1533,-1.1472,0.0,0.0,0.0,0.0,0.0,0.0,0.0,0.0,0.0,0.0,0.0,0.0,0.0,0.0,-1.4893,-1.5025,-1.5265,-1.578,-1.5816,-1.609,-1.6619,-1.7159,-1.7676,-1.8229,-1.8746,-1.9078,-1.9208,-1.9208,-1.9275,-1.9394,-1.9539,-1.994,-2.0515,-2.0717,-2.2097,-2.411,-2.4177,-2.5224,-2.6727,-2.6753,-2.6779,-2.6779,-2.6779,-2.6806,-2.6806,-2.6806,-2.6806,-2.6806,-2.6806,-2.6806,-2.6806,-2.6806,-2.6806,-2.6806,-2.6806,-2.6806,-2.7125,-2.836,-2.868,-2.9043,-3.0278,-3.0569,-3.0642,-3.0762,-3.0955,-3.1132,-3.1263,-3.1278,-3.1336,-3.1437,-3.0928,-3.0522,-3.0477,-2.9983,-2.9864,-3.0447,-3.0522,-3.0778,-3.1451,-3.0926,-3.0537,-3.0537,-3.1137,-3.1511,-3.1511,-3.0896,-3.0238,-2.9621,-2.8951,-2.8278,-2.76,-2.76,-2.76,-2.76,-2.7615,-2.763,0.0,0.0,-1.5085,-1.3619,0.0,0.0,0.0,0.0,0.0,0.0,0.0,0.0,0.0,0.0,-1.2015,-1.1635,-1.1055,-1.0215,0.0,0.0,0.0,0.0,0.0,0.0,0.0,0.0,0.0,0.0,0.0,0.0,0.0,-1.541,-1.5874,-1.6057,-1.6057,-1.6313,-1.6849,-1.7398,-1.7934,-1.8471,-1.9007,-1.933,-1.9473,-1.9368,-1.942,-1.9539,-1.9591,-1.9728,-2.0006,-2.1251,-2.2468,-2.3685,-2.4795,-2.5873,-2.6806,-2.6806,-2.6806,-2.6806,-2.6806,-2.6806,-2.6806,-2.6806,-2.6806,-2.6806,-2.6806,-2.6806,-2.6806,-2.6806,-2.6806,-2.6806,-2.6806,-2.6806,-2.6922,-2.7343,-2.7752,-2.8302,-2.9259,-2.9813,-3.0324,-3.0911,-3.1132,-3.1234,-3.1278,-3.1007,-3.0944,-3.1436,-3.0913,-3.0357,-2.9953,-2.9741,-2.9517,-2.9265,-2.9639,-2.9983,-3.0223,-3.0028,-2.9894,-2.9894,-3.0118,-3.0238,-3.0238,-3.0013,-2.9594,-2.8951,-2.8712,-2.8263,-2.76,-2.76,-2.76,-2.76,-2.76,-2.76,-1.4703,-1.5027,0.0,-1.4325,-1.3803,0.0,-1.2128,0.0,0.0,0.0,0.0,0.0,0.0,0.0,-1.2291,-1.1939,-1.1209,-1.0154,0.0,0.0,0.0,0.0,0.0,0.0,0.0,0.0,-1.0691,-1.1268,0.0,0.0,0.0,0.0,-1.5807,-1.6188,-1.62,-1.6372,-1.6716,-1.7441,-1.7958,-1.8314,-1.9051,-1.9473,-1.9617,-1.9512,-1.9539,-1.9656,-1.9656,-1.9656,-1.9784,-2.1141,-2.2179,-2.3096,-2.4617,-2.5749,-2.6538,-2.6718,-2.6806,-2.6806,-2.6806,-2.6806,-2.6806,-2.6806,-2.6806,-2.6806,-2.6806,-2.6832,-2.6873,-2.6806,-2.6832,-2.6873,-2.6806,-2.6806,-2.6864,-2.7135,-2.7499,-2.7992,-2.8785,-2.9325,-2.9779,-3.0364,-3.0509,-3.0623,-3.068,-3.0406,-3.0402,-3.1032,-3.0402,-2.9684,-2.928,-2.9052,-2.8801,-2.8622,-2.8981,-2.9235,-2.9235,-2.9472,-2.9517,-2.925,-2.9472,-2.9606,-2.9606,-2.9355,-2.9026,-2.8607,-2.8368,-2.8034,-2.76,-2.76,-2.76,-2.76,-2.76,-2.76]}]]